<?xml version="1.0" encoding="UTF-8" standalone="no" ?>
<gpx xmlns="http://www.topografix.com/GPX/1/1" xmlns:xsi="http://www.w3.org/2001/XMLSchema-instance" xsi:schemaLocation="http://www.topografix.com/GPX/1/1 http://www.topografix.com/GPX/1/1/gpx.xsd" version="1.1" creator="VisuGPX - https://www.visugpx.com">
  <metadata>
    <name>Bézaudun Chemin du vieiriou</name>
  </metadata>
  <trk>
    <name><![CDATA[Bézaudun-les-Alpes Course]]></name>
    <trkseg>
      <trkpt lat="43.80824" lon="7.09584">
        <ele>886.6</ele>
        <time>2021-08-21T15:03:26.000Z</time>
      </trkpt>
      <trkpt lat="43.80829" lon="7.09593">
        <ele>885.1</ele>
        <time>2021-08-21T15:03:34.000Z</time>
      </trkpt>
      <trkpt lat="43.80839" lon="7.09594">
        <ele>882.6</ele>
        <time>2021-08-21T15:03:43.000Z</time>
      </trkpt>
      <trkpt lat="43.80843" lon="7.09598">
        <ele>880.4</ele>
        <time>2021-08-21T15:03:48.000Z</time>
      </trkpt>
      <trkpt lat="43.80848" lon="7.09602">
        <ele>878.5</ele>
        <time>2021-08-21T15:03:52.000Z</time>
      </trkpt>
      <trkpt lat="43.8085" lon="7.09608">
        <ele>877.2</ele>
        <time>2021-08-21T15:03:57.000Z</time>
      </trkpt>
      <trkpt lat="43.80852" lon="7.0961">
        <ele>876.4</ele>
        <time>2021-08-21T15:03:59.000Z</time>
      </trkpt>
      <trkpt lat="43.80858" lon="7.09619">
        <ele>874.1</ele>
        <time>2021-08-21T15:04:06.000Z</time>
      </trkpt>
      <trkpt lat="43.8086" lon="7.0963">
        <ele>873.1</ele>
        <time>2021-08-21T15:04:14.000Z</time>
      </trkpt>
      <trkpt lat="43.80858" lon="7.0964">
        <ele>873.3</ele>
        <time>2021-08-21T15:04:22.000Z</time>
      </trkpt>
      <trkpt lat="43.80856" lon="7.09643">
        <ele>873.7</ele>
        <time>2021-08-21T15:04:26.000Z</time>
      </trkpt>
      <trkpt lat="43.80855" lon="7.09651">
        <ele>873.5</ele>
        <time>2021-08-21T15:04:34.000Z</time>
      </trkpt>
      <trkpt lat="43.80855" lon="7.09655">
        <ele>873.5</ele>
        <time>2021-08-21T15:04:37.000Z</time>
      </trkpt>
      <trkpt lat="43.80855" lon="7.09658">
        <ele>873.3</ele>
        <time>2021-08-21T15:04:39.000Z</time>
      </trkpt>
      <trkpt lat="43.80851" lon="7.09664">
        <ele>873.6</ele>
        <time>2021-08-21T15:04:44.000Z</time>
      </trkpt>
      <trkpt lat="43.80852" lon="7.09666">
        <ele>873.3</ele>
        <time>2021-08-21T15:04:50.000Z</time>
      </trkpt>
      <trkpt lat="43.80854" lon="7.09667">
        <ele>872.9</ele>
        <time>2021-08-21T15:04:54.000Z</time>
      </trkpt>
      <trkpt lat="43.80859" lon="7.0967">
        <ele>871.4</ele>
        <time>2021-08-21T15:04:59.000Z</time>
      </trkpt>
      <trkpt lat="43.80861" lon="7.09669">
        <ele>871.1</ele>
        <time>2021-08-21T15:05:01.000Z</time>
      </trkpt>
      <trkpt lat="43.80869" lon="7.09676">
        <ele>868</ele>
        <time>2021-08-21T15:05:08.000Z</time>
      </trkpt>
      <trkpt lat="43.80879" lon="7.09679">
        <ele>866.1</ele>
        <time>2021-08-21T15:05:14.000Z</time>
      </trkpt>
      <trkpt lat="43.80882" lon="7.09682">
        <ele>864.8</ele>
        <time>2021-08-21T15:05:17.000Z</time>
      </trkpt>
      <trkpt lat="43.80884" lon="7.09682">
        <ele>864.6</ele>
        <time>2021-08-21T15:05:19.000Z</time>
      </trkpt>
      <trkpt lat="43.80885" lon="7.09681">
        <ele>864.8</ele>
        <time>2021-08-21T15:05:21.000Z</time>
      </trkpt>
      <trkpt lat="43.80888" lon="7.09675">
        <ele>866</ele>
        <time>2021-08-21T15:05:26.000Z</time>
      </trkpt>
      <trkpt lat="43.80892" lon="7.09669">
        <ele>866.8</ele>
        <time>2021-08-21T15:05:31.000Z</time>
      </trkpt>
      <trkpt lat="43.80896" lon="7.09661">
        <ele>866.5</ele>
        <time>2021-08-21T15:05:37.000Z</time>
      </trkpt>
      <trkpt lat="43.80897" lon="7.09659">
        <ele>866</ele>
        <time>2021-08-21T15:05:39.000Z</time>
      </trkpt>
      <trkpt lat="43.80901" lon="7.09656">
        <ele>865</ele>
        <time>2021-08-21T15:05:43.000Z</time>
      </trkpt>
      <trkpt lat="43.80903" lon="7.09652">
        <ele>864.2</ele>
        <time>2021-08-21T15:05:46.000Z</time>
      </trkpt>
      <trkpt lat="43.80904" lon="7.09647">
        <ele>863.3</ele>
        <time>2021-08-21T15:05:52.000Z</time>
      </trkpt>
      <trkpt lat="43.80901" lon="7.09644">
        <ele>863.8</ele>
        <time>2021-08-21T15:06:04.000Z</time>
      </trkpt>
      <trkpt lat="43.80901" lon="7.0964">
        <ele>863.2</ele>
        <time>2021-08-21T15:06:08.000Z</time>
      </trkpt>
      <trkpt lat="43.80903" lon="7.09636">
        <ele>862.3</ele>
        <time>2021-08-21T15:06:12.000Z</time>
      </trkpt>
      <trkpt lat="43.80904" lon="7.09632">
        <ele>861.5</ele>
        <time>2021-08-21T15:06:16.000Z</time>
      </trkpt>
      <trkpt lat="43.80903" lon="7.09624">
        <ele>860.8</ele>
        <time>2021-08-21T15:06:22.000Z</time>
      </trkpt>
      <trkpt lat="43.80903" lon="7.09618">
        <ele>860.1</ele>
        <time>2021-08-21T15:06:25.000Z</time>
      </trkpt>
      <trkpt lat="43.809" lon="7.0961">
        <ele>860.1</ele>
        <time>2021-08-21T15:06:32.000Z</time>
      </trkpt>
      <trkpt lat="43.80899" lon="7.09608">
        <ele>860.1</ele>
        <time>2021-08-21T15:06:34.000Z</time>
      </trkpt>
      <trkpt lat="43.80897" lon="7.09599">
        <ele>860</ele>
        <time>2021-08-21T15:06:41.000Z</time>
      </trkpt>
      <trkpt lat="43.80895" lon="7.09591">
        <ele>860.2</ele>
        <time>2021-08-21T15:06:47.000Z</time>
      </trkpt>
      <trkpt lat="43.80894" lon="7.09589">
        <ele>860.3</ele>
        <time>2021-08-21T15:06:49.000Z</time>
      </trkpt>
      <trkpt lat="43.80886" lon="7.09573">
        <ele>862.6</ele>
        <time>2021-08-21T15:07:29.000Z</time>
      </trkpt>
      <trkpt lat="43.80886" lon="7.09571">
        <ele>862.5</ele>
        <time>2021-08-21T15:07:31.000Z</time>
      </trkpt>
      <trkpt lat="43.80883" lon="7.09559">
        <ele>862.8</ele>
        <time>2021-08-21T15:07:39.000Z</time>
      </trkpt>
      <trkpt lat="43.80881" lon="7.09549">
        <ele>863.1</ele>
        <time>2021-08-21T15:07:46.000Z</time>
      </trkpt>
      <trkpt lat="43.8088" lon="7.09546">
        <ele>863.3</ele>
        <time>2021-08-21T15:07:49.000Z</time>
      </trkpt>
      <trkpt lat="43.8088" lon="7.0954">
        <ele>863.2</ele>
        <time>2021-08-21T15:07:55.000Z</time>
      </trkpt>
      <trkpt lat="43.8088" lon="7.09535">
        <ele>862.9</ele>
        <time>2021-08-21T15:07:58.000Z</time>
      </trkpt>
      <trkpt lat="43.8088" lon="7.09526">
        <ele>862.1</ele>
        <time>2021-08-21T15:08:04.000Z</time>
      </trkpt>
      <trkpt lat="43.80882" lon="7.09517">
        <ele>860.5</ele>
        <time>2021-08-21T15:08:11.000Z</time>
      </trkpt>
      <trkpt lat="43.80882" lon="7.09509">
        <ele>860</ele>
        <time>2021-08-21T15:08:17.000Z</time>
      </trkpt>
      <trkpt lat="43.80884" lon="7.09496">
        <ele>859.4</ele>
        <time>2021-08-21T15:08:27.000Z</time>
      </trkpt>
      <trkpt lat="43.80887" lon="7.09485">
        <ele>859.8</ele>
        <time>2021-08-21T15:08:35.000Z</time>
      </trkpt>
      <trkpt lat="43.80888" lon="7.09479">
        <ele>860.2</ele>
        <time>2021-08-21T15:08:39.000Z</time>
      </trkpt>
      <trkpt lat="43.80892" lon="7.09473">
        <ele>859.4</ele>
        <time>2021-08-21T15:08:44.000Z</time>
      </trkpt>
      <trkpt lat="43.80897" lon="7.0947">
        <ele>857.9</ele>
        <time>2021-08-21T15:08:48.000Z</time>
      </trkpt>
      <trkpt lat="43.80901" lon="7.09469">
        <ele>856.5</ele>
        <time>2021-08-21T15:08:51.000Z</time>
      </trkpt>
      <trkpt lat="43.80907" lon="7.09465">
        <ele>854.5</ele>
        <time>2021-08-21T15:08:57.000Z</time>
      </trkpt>
      <trkpt lat="43.80908" lon="7.09465">
        <ele>854.1</ele>
        <time>2021-08-21T15:08:59.000Z</time>
      </trkpt>
      <trkpt lat="43.80913" lon="7.09461">
        <ele>852.4</ele>
        <time>2021-08-21T15:09:05.000Z</time>
      </trkpt>
      <trkpt lat="43.80919" lon="7.09458">
        <ele>850.5</ele>
        <time>2021-08-21T15:09:11.000Z</time>
      </trkpt>
      <trkpt lat="43.80928" lon="7.09457">
        <ele>846.1</ele>
        <time>2021-08-21T15:09:16.000Z</time>
      </trkpt>
      <trkpt lat="43.80934" lon="7.09453">
        <ele>844.1</ele>
        <time>2021-08-21T15:09:20.000Z</time>
      </trkpt>
      <trkpt lat="43.80936" lon="7.09452">
        <ele>843.1</ele>
        <time>2021-08-21T15:09:22.000Z</time>
      </trkpt>
      <trkpt lat="43.80939" lon="7.09448">
        <ele>842.6</ele>
        <time>2021-08-21T15:09:26.000Z</time>
      </trkpt>
      <trkpt lat="43.80945" lon="7.09436">
        <ele>841.7</ele>
        <time>2021-08-21T15:09:35.000Z</time>
      </trkpt>
      <trkpt lat="43.80949" lon="7.09431">
        <ele>841</ele>
        <time>2021-08-21T15:09:42.000Z</time>
      </trkpt>
      <trkpt lat="43.80957" lon="7.09428">
        <ele>837.2</ele>
        <time>2021-08-21T15:09:51.000Z</time>
      </trkpt>
      <trkpt lat="43.80965" lon="7.09423">
        <ele>834.2</ele>
        <time>2021-08-21T15:09:59.000Z</time>
      </trkpt>
      <trkpt lat="43.8097" lon="7.0941">
        <ele>834.3</ele>
        <time>2021-08-21T15:10:09.000Z</time>
      </trkpt>
      <trkpt lat="43.80974" lon="7.09398">
        <ele>835.2</ele>
        <time>2021-08-21T15:10:18.000Z</time>
      </trkpt>
      <trkpt lat="43.80977" lon="7.09384">
        <ele>836.3</ele>
        <time>2021-08-21T15:10:29.000Z</time>
      </trkpt>
      <trkpt lat="43.80979" lon="7.09369">
        <ele>838.3</ele>
        <time>2021-08-21T15:10:40.000Z</time>
      </trkpt>
      <trkpt lat="43.80982" lon="7.09356">
        <ele>839.2</ele>
        <time>2021-08-21T15:10:49.000Z</time>
      </trkpt>
      <trkpt lat="43.80984" lon="7.09348">
        <ele>839.8</ele>
        <time>2021-08-21T15:10:55.000Z</time>
      </trkpt>
      <trkpt lat="43.80985" lon="7.09342">
        <ele>840.7</ele>
        <time>2021-08-21T15:10:59.000Z</time>
      </trkpt>
      <trkpt lat="43.80987" lon="7.09329">
        <ele>841.6</ele>
        <time>2021-08-21T15:11:07.000Z</time>
      </trkpt>
      <trkpt lat="43.8099" lon="7.09323">
        <ele>841.1</ele>
        <time>2021-08-21T15:11:12.000Z</time>
      </trkpt>
      <trkpt lat="43.80993" lon="7.09317">
        <ele>840.1</ele>
        <time>2021-08-21T15:11:16.000Z</time>
      </trkpt>
      <trkpt lat="43.80997" lon="7.09311">
        <ele>838.8</ele>
        <time>2021-08-21T15:11:21.000Z</time>
      </trkpt>
      <trkpt lat="43.80997" lon="7.09303">
        <ele>840.2</ele>
        <time>2021-08-21T15:11:26.000Z</time>
      </trkpt>
      <trkpt lat="43.80996" lon="7.09294">
        <ele>842</ele>
        <time>2021-08-21T15:11:31.000Z</time>
      </trkpt>
      <trkpt lat="43.80998" lon="7.09285">
        <ele>842.6</ele>
        <time>2021-08-21T15:11:38.000Z</time>
      </trkpt>
      <trkpt lat="43.81" lon="7.09276">
        <ele>843</ele>
        <time>2021-08-21T15:11:45.000Z</time>
      </trkpt>
      <trkpt lat="43.81002" lon="7.09268">
        <ele>843.1</ele>
        <time>2021-08-21T15:11:51.000Z</time>
      </trkpt>
      <trkpt lat="43.81003" lon="7.09266">
        <ele>843.1</ele>
        <time>2021-08-21T15:11:53.000Z</time>
      </trkpt>
      <trkpt lat="43.81005" lon="7.0926">
        <ele>842.6</ele>
        <time>2021-08-21T15:11:58.000Z</time>
      </trkpt>
      <trkpt lat="43.81009" lon="7.09253">
        <ele>841.6</ele>
        <time>2021-08-21T15:12:04.000Z</time>
      </trkpt>
      <trkpt lat="43.81016" lon="7.09248">
        <ele>838.5</ele>
        <time>2021-08-21T15:12:10.000Z</time>
      </trkpt>
      <trkpt lat="43.81023" lon="7.09238">
        <ele>836</ele>
        <time>2021-08-21T15:12:19.000Z</time>
      </trkpt>
      <trkpt lat="43.81023" lon="7.09228">
        <ele>837.2</ele>
        <time>2021-08-21T15:12:25.000Z</time>
      </trkpt>
      <trkpt lat="43.81021" lon="7.09218">
        <ele>839.4</ele>
        <time>2021-08-21T15:12:31.000Z</time>
      </trkpt>
      <trkpt lat="43.8102" lon="7.09209">
        <ele>840.9</ele>
        <time>2021-08-21T15:12:36.000Z</time>
      </trkpt>
      <trkpt lat="43.81018" lon="7.09204">
        <ele>842.6</ele>
        <time>2021-08-21T15:12:41.000Z</time>
      </trkpt>
      <trkpt lat="43.81015" lon="7.09194">
        <ele>845.1</ele>
        <time>2021-08-21T15:12:48.000Z</time>
      </trkpt>
      <trkpt lat="43.81014" lon="7.09191">
        <ele>845.6</ele>
        <time>2021-08-21T15:12:50.000Z</time>
      </trkpt>
      <trkpt lat="43.81012" lon="7.0918">
        <ele>847.8</ele>
        <time>2021-08-21T15:12:57.000Z</time>
      </trkpt>
      <trkpt lat="43.81014" lon="7.09173">
        <ele>847.6</ele>
        <time>2021-08-21T15:13:02.000Z</time>
      </trkpt>
      <trkpt lat="43.81021" lon="7.09168">
        <ele>845.1</ele>
        <time>2021-08-21T15:13:09.000Z</time>
      </trkpt>
      <trkpt lat="43.81026" lon="7.09161">
        <ele>843.6</ele>
        <time>2021-08-21T15:13:15.000Z</time>
      </trkpt>
      <trkpt lat="43.81028" lon="7.09158">
        <ele>843.2</ele>
        <time>2021-08-21T15:13:18.000Z</time>
      </trkpt>
      <trkpt lat="43.81031" lon="7.09154">
        <ele>842.3</ele>
        <time>2021-08-21T15:13:22.000Z</time>
      </trkpt>
      <trkpt lat="43.81038" lon="7.09147">
        <ele>840.1</ele>
        <time>2021-08-21T15:13:29.000Z</time>
      </trkpt>
      <trkpt lat="43.81043" lon="7.09142">
        <ele>838.1</ele>
        <time>2021-08-21T15:13:34.000Z</time>
      </trkpt>
      <trkpt lat="43.81051" lon="7.09138">
        <ele>835.2</ele>
        <time>2021-08-21T15:13:41.000Z</time>
      </trkpt>
      <trkpt lat="43.81053" lon="7.09137">
        <ele>834.1</ele>
        <time>2021-08-21T15:13:47.000Z</time>
      </trkpt>
      <trkpt lat="43.81055" lon="7.09137">
        <ele>833.5</ele>
        <time>2021-08-21T15:13:49.000Z</time>
      </trkpt>
      <trkpt lat="43.81058" lon="7.09137">
        <ele>831.9</ele>
        <time>2021-08-21T15:13:53.000Z</time>
      </trkpt>
      <trkpt lat="43.81062" lon="7.09136">
        <ele>830.4</ele>
        <time>2021-08-21T15:13:56.000Z</time>
      </trkpt>
      <trkpt lat="43.81069" lon="7.09134">
        <ele>827.3</ele>
        <time>2021-08-21T15:14:02.000Z</time>
      </trkpt>
      <trkpt lat="43.81078" lon="7.0913">
        <ele>823.7</ele>
        <time>2021-08-21T15:14:11.000Z</time>
      </trkpt>
      <trkpt lat="43.81085" lon="7.09125">
        <ele>820.9</ele>
        <time>2021-08-21T15:14:17.000Z</time>
      </trkpt>
      <trkpt lat="43.81088" lon="7.09118">
        <ele>819.3</ele>
        <time>2021-08-21T15:14:22.000Z</time>
      </trkpt>
      <trkpt lat="43.8109" lon="7.09117">
        <ele>818.8</ele>
        <time>2021-08-21T15:14:24.000Z</time>
      </trkpt>
      <trkpt lat="43.81094" lon="7.09109">
        <ele>816.8</ele>
        <time>2021-08-21T15:14:29.000Z</time>
      </trkpt>
      <trkpt lat="43.81097" lon="7.09103">
        <ele>815.4</ele>
        <time>2021-08-21T15:14:33.000Z</time>
      </trkpt>
      <trkpt lat="43.81096" lon="7.09097">
        <ele>816.2</ele>
        <time>2021-08-21T15:14:37.000Z</time>
      </trkpt>
      <trkpt lat="43.81095" lon="7.09093">
        <ele>817</ele>
        <time>2021-08-21T15:14:40.000Z</time>
      </trkpt>
      <trkpt lat="43.81093" lon="7.09085">
        <ele>818.7</ele>
        <time>2021-08-21T15:14:46.000Z</time>
      </trkpt>
      <trkpt lat="43.81092" lon="7.09076">
        <ele>818.3</ele>
        <time>2021-08-21T15:14:53.000Z</time>
      </trkpt>
      <trkpt lat="43.81091" lon="7.09075">
        <ele>818.4</ele>
        <time>2021-08-21T15:14:54.000Z</time>
      </trkpt>
      <trkpt lat="43.81087" lon="7.09066">
        <ele>819.6</ele>
        <time>2021-08-21T15:15:01.000Z</time>
      </trkpt>
      <trkpt lat="43.81083" lon="7.09059">
        <ele>820.8</ele>
        <time>2021-08-21T15:15:07.000Z</time>
      </trkpt>
      <trkpt lat="43.81082" lon="7.0905">
        <ele>820.5</ele>
        <time>2021-08-21T15:15:13.000Z</time>
      </trkpt>
      <trkpt lat="43.81079" lon="7.09044">
        <ele>820.9</ele>
        <time>2021-08-21T15:15:18.000Z</time>
      </trkpt>
      <trkpt lat="43.81078" lon="7.09042">
        <ele>821.2</ele>
        <time>2021-08-21T15:15:20.000Z</time>
      </trkpt>
      <trkpt lat="43.81075" lon="7.09035">
        <ele>822</ele>
        <time>2021-08-21T15:15:25.000Z</time>
      </trkpt>
      <trkpt lat="43.81075" lon="7.09029">
        <ele>821</ele>
        <time>2021-08-21T15:15:31.000Z</time>
      </trkpt>
      <trkpt lat="43.81074" lon="7.0902">
        <ele>820.7</ele>
        <time>2021-08-21T15:15:38.000Z</time>
      </trkpt>
      <trkpt lat="43.81074" lon="7.09018">
        <ele>820.3</ele>
        <time>2021-08-21T15:15:40.000Z</time>
      </trkpt>
      <trkpt lat="43.81078" lon="7.09013">
        <ele>817.5</ele>
        <time>2021-08-21T15:15:46.000Z</time>
      </trkpt>
      <trkpt lat="43.81081" lon="7.09009">
        <ele>815.5</ele>
        <time>2021-08-21T15:15:50.000Z</time>
      </trkpt>
      <trkpt lat="43.81083" lon="7.09001">
        <ele>813.5</ele>
        <time>2021-08-21T15:15:57.000Z</time>
      </trkpt>
      <trkpt lat="43.81082" lon="7.08999">
        <ele>813.4</ele>
        <time>2021-08-21T15:15:58.000Z</time>
      </trkpt>
      <trkpt lat="43.8108" lon="7.08989">
        <ele>812.8</ele>
        <time>2021-08-21T15:16:06.000Z</time>
      </trkpt>
      <trkpt lat="43.81079" lon="7.08984">
        <ele>812.6</ele>
        <time>2021-08-21T15:16:18.000Z</time>
      </trkpt>
      <trkpt lat="43.81078" lon="7.08977">
        <ele>812.5</ele>
        <time>2021-08-21T15:16:22.000Z</time>
      </trkpt>
      <trkpt lat="43.81075" lon="7.08967">
        <ele>812.5</ele>
        <time>2021-08-21T15:16:28.000Z</time>
      </trkpt>
      <trkpt lat="43.81073" lon="7.08959">
        <ele>812.1</ele>
        <time>2021-08-21T15:16:33.000Z</time>
      </trkpt>
      <trkpt lat="43.81071" lon="7.0895">
        <ele>811.5</ele>
        <time>2021-08-21T15:16:38.000Z</time>
      </trkpt>
      <trkpt lat="43.8107" lon="7.08942">
        <ele>810.9</ele>
        <time>2021-08-21T15:16:43.000Z</time>
      </trkpt>
      <trkpt lat="43.81067" lon="7.08932">
        <ele>810.7</ele>
        <time>2021-08-21T15:16:50.000Z</time>
      </trkpt>
      <trkpt lat="43.81067" lon="7.0893">
        <ele>810.5</ele>
        <time>2021-08-21T15:16:51.000Z</time>
      </trkpt>
      <trkpt lat="43.81066" lon="7.08926">
        <ele>810.1</ele>
        <time>2021-08-21T15:16:55.000Z</time>
      </trkpt>
      <trkpt lat="43.81065" lon="7.08924">
        <ele>810.1</ele>
        <time>2021-08-21T15:16:57.000Z</time>
      </trkpt>
      <trkpt lat="43.81063" lon="7.08918">
        <ele>810</ele>
        <time>2021-08-21T15:17:02.000Z</time>
      </trkpt>
      <trkpt lat="43.81062" lon="7.0891">
        <ele>809.9</ele>
        <time>2021-08-21T15:17:08.000Z</time>
      </trkpt>
      <trkpt lat="43.81059" lon="7.08903">
        <ele>810.5</ele>
        <time>2021-08-21T15:17:12.000Z</time>
      </trkpt>
      <trkpt lat="43.81054" lon="7.08896">
        <ele>812</ele>
        <time>2021-08-21T15:17:18.000Z</time>
      </trkpt>
      <trkpt lat="43.81051" lon="7.0889">
        <ele>812.3</ele>
        <time>2021-08-21T15:17:24.000Z</time>
      </trkpt>
      <trkpt lat="43.81049" lon="7.08883">
        <ele>812.1</ele>
        <time>2021-08-21T15:17:29.000Z</time>
      </trkpt>
      <trkpt lat="43.81049" lon="7.08878">
        <ele>811.4</ele>
        <time>2021-08-21T15:17:34.000Z</time>
      </trkpt>
      <trkpt lat="43.81052" lon="7.08876">
        <ele>810</ele>
        <time>2021-08-21T15:17:38.000Z</time>
      </trkpt>
      <trkpt lat="43.81056" lon="7.08872">
        <ele>807.8</ele>
        <time>2021-08-21T15:17:42.000Z</time>
      </trkpt>
      <trkpt lat="43.8106" lon="7.08867">
        <ele>805.7</ele>
        <time>2021-08-21T15:17:47.000Z</time>
      </trkpt>
      <trkpt lat="43.81061" lon="7.08862">
        <ele>804.6</ele>
        <time>2021-08-21T15:17:52.000Z</time>
      </trkpt>
      <trkpt lat="43.81063" lon="7.08855">
        <ele>803.3</ele>
        <time>2021-08-21T15:17:57.000Z</time>
      </trkpt>
      <trkpt lat="43.81062" lon="7.08847">
        <ele>802.5</ele>
        <time>2021-08-21T15:18:02.000Z</time>
      </trkpt>
      <trkpt lat="43.81063" lon="7.0884">
        <ele>801.7</ele>
        <time>2021-08-21T15:18:07.000Z</time>
      </trkpt>
      <trkpt lat="43.81065" lon="7.08834">
        <ele>800.1</ele>
        <time>2021-08-21T15:18:13.000Z</time>
      </trkpt>
      <trkpt lat="43.81067" lon="7.08831">
        <ele>799.4</ele>
        <time>2021-08-21T15:18:15.000Z</time>
      </trkpt>
      <trkpt lat="43.81069" lon="7.08819">
        <ele>797.9</ele>
        <time>2021-08-21T15:18:22.000Z</time>
      </trkpt>
      <trkpt lat="43.8107" lon="7.08816">
        <ele>797.7</ele>
        <time>2021-08-21T15:18:24.000Z</time>
      </trkpt>
      <trkpt lat="43.81073" lon="7.08811">
        <ele>796.3</ele>
        <time>2021-08-21T15:18:29.000Z</time>
      </trkpt>
      <trkpt lat="43.81074" lon="7.08806">
        <ele>795.7</ele>
        <time>2021-08-21T15:18:33.000Z</time>
      </trkpt>
      <trkpt lat="43.81077" lon="7.08798">
        <ele>794.7</ele>
        <time>2021-08-21T15:18:38.000Z</time>
      </trkpt>
      <trkpt lat="43.81077" lon="7.08791">
        <ele>794.3</ele>
        <time>2021-08-21T15:18:43.000Z</time>
      </trkpt>
      <trkpt lat="43.81078" lon="7.0879">
        <ele>794</ele>
        <time>2021-08-21T15:18:44.000Z</time>
      </trkpt>
      <trkpt lat="43.81079" lon="7.08789">
        <ele>793.7</ele>
        <time>2021-08-21T15:18:47.000Z</time>
      </trkpt>
      <trkpt lat="43.8108" lon="7.08797">
        <ele>793.5</ele>
        <time>2021-08-21T15:18:53.000Z</time>
      </trkpt>
      <trkpt lat="43.81082" lon="7.08802">
        <ele>793.3</ele>
        <time>2021-08-21T15:18:57.000Z</time>
      </trkpt>
      <trkpt lat="43.81084" lon="7.08804">
        <ele>792.9</ele>
        <time>2021-08-21T15:18:59.000Z</time>
      </trkpt>
      <trkpt lat="43.81086" lon="7.08801">
        <ele>792.3</ele>
        <time>2021-08-21T15:19:03.000Z</time>
      </trkpt>
      <trkpt lat="43.81087" lon="7.08795">
        <ele>792</ele>
        <time>2021-08-21T15:19:07.000Z</time>
      </trkpt>
      <trkpt lat="43.81089" lon="7.08792">
        <ele>791.5</ele>
        <time>2021-08-21T15:19:11.000Z</time>
      </trkpt>
      <trkpt lat="43.8109" lon="7.08788">
        <ele>791.3</ele>
        <time>2021-08-21T15:19:14.000Z</time>
      </trkpt>
      <trkpt lat="43.8109" lon="7.08782">
        <ele>791</ele>
        <time>2021-08-21T15:19:19.000Z</time>
      </trkpt>
      <trkpt lat="43.81088" lon="7.08773">
        <ele>791.1</ele>
        <time>2021-08-21T15:19:25.000Z</time>
      </trkpt>
      <trkpt lat="43.81086" lon="7.08765">
        <ele>791.1</ele>
        <time>2021-08-21T15:19:30.000Z</time>
      </trkpt>
      <trkpt lat="43.81084" lon="7.0876">
        <ele>791.2</ele>
        <time>2021-08-21T15:19:34.000Z</time>
      </trkpt>
      <trkpt lat="43.81089" lon="7.08756">
        <ele>790.5</ele>
        <time>2021-08-21T15:20:10.000Z</time>
      </trkpt>
      <trkpt lat="43.81091" lon="7.08754">
        <ele>790.1</ele>
        <time>2021-08-21T15:20:16.000Z</time>
      </trkpt>
      <trkpt lat="43.81095" lon="7.08754">
        <ele>789.5</ele>
        <time>2021-08-21T15:20:24.000Z</time>
      </trkpt>
      <trkpt lat="43.81097" lon="7.08754">
        <ele>789.3</ele>
        <time>2021-08-21T15:20:27.000Z</time>
      </trkpt>
      <trkpt lat="43.81103" lon="7.0875">
        <ele>788.5</ele>
        <time>2021-08-21T15:20:33.000Z</time>
      </trkpt>
      <trkpt lat="43.81107" lon="7.08746">
        <ele>788.4</ele>
        <time>2021-08-21T15:20:38.000Z</time>
      </trkpt>
      <trkpt lat="43.81115" lon="7.08741">
        <ele>787.9</ele>
        <time>2021-08-21T15:20:47.000Z</time>
      </trkpt>
      <trkpt lat="43.81119" lon="7.0874">
        <ele>787.5</ele>
        <time>2021-08-21T15:20:51.000Z</time>
      </trkpt>
      <trkpt lat="43.81124" lon="7.08732">
        <ele>787.5</ele>
        <time>2021-08-21T15:20:58.000Z</time>
      </trkpt>
      <trkpt lat="43.81126" lon="7.08729">
        <ele>787.6</ele>
        <time>2021-08-21T15:21:01.000Z</time>
      </trkpt>
      <trkpt lat="43.81128" lon="7.08719">
        <ele>788.1</ele>
        <time>2021-08-21T15:21:07.000Z</time>
      </trkpt>
      <trkpt lat="43.81129" lon="7.08716">
        <ele>788.3</ele>
        <time>2021-08-21T15:21:09.000Z</time>
      </trkpt>
      <trkpt lat="43.81131" lon="7.0871">
        <ele>788.4</ele>
        <time>2021-08-21T15:21:15.000Z</time>
      </trkpt>
      <trkpt lat="43.81134" lon="7.08704">
        <ele>788.4</ele>
        <time>2021-08-21T15:21:20.000Z</time>
      </trkpt>
      <trkpt lat="43.81136" lon="7.08697">
        <ele>788.5</ele>
        <time>2021-08-21T15:21:25.000Z</time>
      </trkpt>
      <trkpt lat="43.81138" lon="7.0869">
        <ele>788.7</ele>
        <time>2021-08-21T15:21:31.000Z</time>
      </trkpt>
      <trkpt lat="43.81138" lon="7.08688">
        <ele>788.8</ele>
        <time>2021-08-21T15:21:33.000Z</time>
      </trkpt>
      <trkpt lat="43.81139" lon="7.08685">
        <ele>788.8</ele>
        <time>2021-08-21T15:21:36.000Z</time>
      </trkpt>
      <trkpt lat="43.81142" lon="7.08677">
        <ele>788.7</ele>
        <time>2021-08-21T15:21:43.000Z</time>
      </trkpt>
      <trkpt lat="43.81148" lon="7.08673">
        <ele>787.5</ele>
        <time>2021-08-21T15:21:48.000Z</time>
      </trkpt>
      <trkpt lat="43.81147" lon="7.08668">
        <ele>788.1</ele>
        <time>2021-08-21T15:21:53.000Z</time>
      </trkpt>
      <trkpt lat="43.81148" lon="7.08659">
        <ele>788.5</ele>
        <time>2021-08-21T15:21:59.000Z</time>
      </trkpt>
      <trkpt lat="43.81147" lon="7.08651">
        <ele>789.4</ele>
        <time>2021-08-21T15:22:04.000Z</time>
      </trkpt>
      <trkpt lat="43.81144" lon="7.08638">
        <ele>791.3</ele>
        <time>2021-08-21T15:22:11.000Z</time>
      </trkpt>
      <trkpt lat="43.81144" lon="7.08634">
        <ele>791.8</ele>
        <time>2021-08-21T15:22:15.000Z</time>
      </trkpt>
      <trkpt lat="43.81142" lon="7.08629">
        <ele>792.8</ele>
        <time>2021-08-21T15:22:21.000Z</time>
      </trkpt>
      <trkpt lat="43.81141" lon="7.0862">
        <ele>793.9</ele>
        <time>2021-08-21T15:22:26.000Z</time>
      </trkpt>
      <trkpt lat="43.81142" lon="7.08606">
        <ele>794.9</ele>
        <time>2021-08-21T15:22:36.000Z</time>
      </trkpt>
      <trkpt lat="43.8114" lon="7.086">
        <ele>796.5</ele>
        <time>2021-08-21T15:22:41.000Z</time>
      </trkpt>
      <trkpt lat="43.8114" lon="7.08594">
        <ele>796.8</ele>
        <time>2021-08-21T15:22:45.000Z</time>
      </trkpt>
      <trkpt lat="43.81142" lon="7.08582">
        <ele>797.2</ele>
        <time>2021-08-21T15:22:53.000Z</time>
      </trkpt>
      <trkpt lat="43.81143" lon="7.08576">
        <ele>797.1</ele>
        <time>2021-08-21T15:22:57.000Z</time>
      </trkpt>
      <trkpt lat="43.81144" lon="7.08574">
        <ele>797</ele>
        <time>2021-08-21T15:22:59.000Z</time>
      </trkpt>
      <trkpt lat="43.81148" lon="7.08565">
        <ele>795.9</ele>
        <time>2021-08-21T15:23:04.000Z</time>
      </trkpt>
      <trkpt lat="43.81151" lon="7.08555">
        <ele>795.1</ele>
        <time>2021-08-21T15:23:12.000Z</time>
      </trkpt>
      <trkpt lat="43.81149" lon="7.08538">
        <ele>797.4</ele>
        <time>2021-08-21T15:23:38.000Z</time>
      </trkpt>
      <trkpt lat="43.8115" lon="7.08538">
        <ele>796.8</ele>
        <time>2021-08-21T15:23:39.000Z</time>
      </trkpt>
      <trkpt lat="43.81154" lon="7.08528">
        <ele>795.5</ele>
        <time>2021-08-21T15:23:45.000Z</time>
      </trkpt>
      <trkpt lat="43.81158" lon="7.08523">
        <ele>793.9</ele>
        <time>2021-08-21T15:23:49.000Z</time>
      </trkpt>
      <trkpt lat="43.81158" lon="7.08518">
        <ele>793.9</ele>
        <time>2021-08-21T15:23:52.000Z</time>
      </trkpt>
      <trkpt lat="43.81158" lon="7.08512">
        <ele>794.4</ele>
        <time>2021-08-21T15:23:56.000Z</time>
      </trkpt>
      <trkpt lat="43.81163" lon="7.08509">
        <ele>791.6</ele>
        <time>2021-08-21T15:24:03.000Z</time>
      </trkpt>
      <trkpt lat="43.81162" lon="7.08509">
        <ele>792.1</ele>
        <time>2021-08-21T15:24:05.000Z</time>
      </trkpt>
      <trkpt lat="43.81164" lon="7.08512">
        <ele>790.8</ele>
        <time>2021-08-21T15:24:10.000Z</time>
      </trkpt>
      <trkpt lat="43.81161" lon="7.08514">
        <ele>792.4</ele>
        <time>2021-08-21T15:24:18.000Z</time>
      </trkpt>
      <trkpt lat="43.8116" lon="7.0852">
        <ele>792.7</ele>
        <time>2021-08-21T15:24:22.000Z</time>
      </trkpt>
      <trkpt lat="43.81166" lon="7.08524">
        <ele>789.4</ele>
        <time>2021-08-21T15:24:27.000Z</time>
      </trkpt>
      <trkpt lat="43.81168" lon="7.08523">
        <ele>789.1</ele>
        <time>2021-08-21T15:24:29.000Z</time>
      </trkpt>
      <trkpt lat="43.8117" lon="7.08522">
        <ele>789.5</ele>
        <time>2021-08-21T15:24:32.000Z</time>
      </trkpt>
      <trkpt lat="43.81174" lon="7.08521">
        <ele>789.9</ele>
        <time>2021-08-21T15:24:36.000Z</time>
      </trkpt>
      <trkpt lat="43.81175" lon="7.08518">
        <ele>790.3</ele>
        <time>2021-08-21T15:24:39.000Z</time>
      </trkpt>
      <trkpt lat="43.81177" lon="7.08516">
        <ele>790.7</ele>
        <time>2021-08-21T15:24:43.000Z</time>
      </trkpt>
      <trkpt lat="43.81184" lon="7.08518">
        <ele>791.4</ele>
        <time>2021-08-21T15:24:48.000Z</time>
      </trkpt>
      <trkpt lat="43.81185" lon="7.0852">
        <ele>791.6</ele>
        <time>2021-08-21T15:24:51.000Z</time>
      </trkpt>
      <trkpt lat="43.81188" lon="7.08518">
        <ele>792</ele>
        <time>2021-08-21T15:24:57.000Z</time>
      </trkpt>
      <trkpt lat="43.81191" lon="7.08539">
        <ele>791.9</ele>
        <time>2021-08-21T15:28:07.000Z</time>
      </trkpt>
      <trkpt lat="43.81195" lon="7.08534">
        <ele>792.6</ele>
        <time>2021-08-21T15:28:14.000Z</time>
      </trkpt>
      <trkpt lat="43.81197" lon="7.08527">
        <ele>793.1</ele>
        <time>2021-08-21T15:28:22.000Z</time>
      </trkpt>
      <trkpt lat="43.81199" lon="7.08519">
        <ele>793.5</ele>
        <time>2021-08-21T15:28:29.000Z</time>
      </trkpt>
      <trkpt lat="43.81201" lon="7.08514">
        <ele>793.8</ele>
        <time>2021-08-21T15:28:33.000Z</time>
      </trkpt>
      <trkpt lat="43.812" lon="7.08505">
        <ele>794</ele>
        <time>2021-08-21T15:28:38.000Z</time>
      </trkpt>
      <trkpt lat="43.81201" lon="7.08498">
        <ele>794.2</ele>
        <time>2021-08-21T15:28:43.000Z</time>
      </trkpt>
      <trkpt lat="43.81201" lon="7.08493">
        <ele>794.5</ele>
        <time>2021-08-21T15:28:46.000Z</time>
      </trkpt>
      <trkpt lat="43.81201" lon="7.08486">
        <ele>794.9</ele>
        <time>2021-08-21T15:28:51.000Z</time>
      </trkpt>
      <trkpt lat="43.81201" lon="7.08474">
        <ele>795.5</ele>
        <time>2021-08-21T15:28:58.000Z</time>
      </trkpt>
      <trkpt lat="43.812" lon="7.08471">
        <ele>795.6</ele>
        <time>2021-08-21T15:29:00.000Z</time>
      </trkpt>
      <trkpt lat="43.812" lon="7.08464">
        <ele>796</ele>
        <time>2021-08-21T15:29:08.000Z</time>
      </trkpt>
      <trkpt lat="43.81202" lon="7.08454">
        <ele>796.8</ele>
        <time>2021-08-21T15:29:16.000Z</time>
      </trkpt>
      <trkpt lat="43.81202" lon="7.08452">
        <ele>796.8</ele>
        <time>2021-08-21T15:29:23.000Z</time>
      </trkpt>
      <trkpt lat="43.81198" lon="7.08542">
        <ele>792.9</ele>
        <time>2021-08-21T15:32:51.000Z</time>
      </trkpt>
      <trkpt lat="43.81202" lon="7.0854">
        <ele>793.5</ele>
        <time>2021-08-21T15:32:56.000Z</time>
      </trkpt>
      <trkpt lat="43.81206" lon="7.08535">
        <ele>794.2</ele>
        <time>2021-08-21T15:33:03.000Z</time>
      </trkpt>
      <trkpt lat="43.81208" lon="7.08531">
        <ele>794.6</ele>
        <time>2021-08-21T15:33:09.000Z</time>
      </trkpt>
      <trkpt lat="43.8121" lon="7.08527">
        <ele>794.9</ele>
        <time>2021-08-21T15:33:13.000Z</time>
      </trkpt>
      <trkpt lat="43.81211" lon="7.08522">
        <ele>795.2</ele>
        <time>2021-08-21T15:33:18.000Z</time>
      </trkpt>
      <trkpt lat="43.81221" lon="7.08492">
        <ele>796.9</ele>
        <time>2021-08-21T15:33:50.000Z</time>
      </trkpt>
      <trkpt lat="43.81222" lon="7.08486">
        <ele>797.3</ele>
        <time>2021-08-21T15:33:56.000Z</time>
      </trkpt>
      <trkpt lat="43.81225" lon="7.08484">
        <ele>797.8</ele>
        <time>2021-08-21T15:34:02.000Z</time>
      </trkpt>
      <trkpt lat="43.81226" lon="7.08482">
        <ele>798</ele>
        <time>2021-08-21T15:34:04.000Z</time>
      </trkpt>
      <trkpt lat="43.81228" lon="7.08473">
        <ele>798.7</ele>
        <time>2021-08-21T15:34:11.000Z</time>
      </trkpt>
      <trkpt lat="43.81229" lon="7.08472">
        <ele>798.8</ele>
        <time>2021-08-21T15:34:12.000Z</time>
      </trkpt>
      <trkpt lat="43.81232" lon="7.08466">
        <ele>799.5</ele>
        <time>2021-08-21T15:34:18.000Z</time>
      </trkpt>
      <trkpt lat="43.81234" lon="7.08463">
        <ele>799.9</ele>
        <time>2021-08-21T15:34:22.000Z</time>
      </trkpt>
      <trkpt lat="43.81235" lon="7.08459">
        <ele>800.2</ele>
        <time>2021-08-21T15:34:25.000Z</time>
      </trkpt>
      <trkpt lat="43.81236" lon="7.08455">
        <ele>800.6</ele>
        <time>2021-08-21T15:34:29.000Z</time>
      </trkpt>
      <trkpt lat="43.81239" lon="7.0845">
        <ele>801.2</ele>
        <time>2021-08-21T15:34:37.000Z</time>
      </trkpt>
      <trkpt lat="43.81241" lon="7.08442">
        <ele>801.7</ele>
        <time>2021-08-21T15:34:44.000Z</time>
      </trkpt>
      <trkpt lat="43.81242" lon="7.08436">
        <ele>802.2</ele>
        <time>2021-08-21T15:34:51.000Z</time>
      </trkpt>
      <trkpt lat="43.81244" lon="7.08434">
        <ele>802.5</ele>
        <time>2021-08-21T15:34:56.000Z</time>
      </trkpt>
      <trkpt lat="43.81245" lon="7.08428">
        <ele>802.8</ele>
        <time>2021-08-21T15:35:02.000Z</time>
      </trkpt>
      <trkpt lat="43.81246" lon="7.08423">
        <ele>803.2</ele>
        <time>2021-08-21T15:35:07.000Z</time>
      </trkpt>
      <trkpt lat="43.81247" lon="7.0842">
        <ele>803.5</ele>
        <time>2021-08-21T15:35:11.000Z</time>
      </trkpt>
      <trkpt lat="43.81247" lon="7.08416">
        <ele>803.7</ele>
        <time>2021-08-21T15:35:15.000Z</time>
      </trkpt>
      <trkpt lat="43.81248" lon="7.08406">
        <ele>804.4</ele>
        <time>2021-08-21T15:35:24.000Z</time>
      </trkpt>
      <trkpt lat="43.81248" lon="7.08397">
        <ele>805</ele>
        <time>2021-08-21T15:35:31.000Z</time>
      </trkpt>
      <trkpt lat="43.81248" lon="7.08395">
        <ele>805.1</ele>
        <time>2021-08-21T15:35:33.000Z</time>
      </trkpt>
      <trkpt lat="43.81246" lon="7.08385">
        <ele>805.5</ele>
        <time>2021-08-21T15:35:41.000Z</time>
      </trkpt>
      <trkpt lat="43.81246" lon="7.08376">
        <ele>806</ele>
        <time>2021-08-21T15:35:49.000Z</time>
      </trkpt>
      <trkpt lat="43.81247" lon="7.08374">
        <ele>806.2</ele>
        <time>2021-08-21T15:35:51.000Z</time>
      </trkpt>
      <trkpt lat="43.81248" lon="7.08369">
        <ele>806.6</ele>
        <time>2021-08-21T15:35:56.000Z</time>
      </trkpt>
      <trkpt lat="43.81249" lon="7.08364">
        <ele>807.1</ele>
        <time>2021-08-21T15:36:02.000Z</time>
      </trkpt>
      <trkpt lat="43.81249" lon="7.08359">
        <ele>807.4</ele>
        <time>2021-08-21T15:36:07.000Z</time>
      </trkpt>
      <trkpt lat="43.8125" lon="7.08358">
        <ele>807.5</ele>
        <time>2021-08-21T15:36:14.000Z</time>
      </trkpt>
      <trkpt lat="43.8125" lon="7.08357">
        <ele>807.6</ele>
        <time>2021-08-21T15:36:16.000Z</time>
      </trkpt>
      <trkpt lat="43.81251" lon="7.08349">
        <ele>808.5</ele>
        <time>2021-08-21T15:36:22.000Z</time>
      </trkpt>
      <trkpt lat="43.8125" lon="7.08346">
        <ele>808.2</ele>
        <time>2021-08-21T15:36:24.000Z</time>
      </trkpt>
      <trkpt lat="43.81249" lon="7.08338">
        <ele>808.6</ele>
        <time>2021-08-21T15:36:30.000Z</time>
      </trkpt>
      <trkpt lat="43.81249" lon="7.08331">
        <ele>809</ele>
        <time>2021-08-21T15:36:36.000Z</time>
      </trkpt>
      <trkpt lat="43.8125" lon="7.08326">
        <ele>809.6</ele>
        <time>2021-08-21T15:36:41.000Z</time>
      </trkpt>
      <trkpt lat="43.8125" lon="7.08321">
        <ele>809.9</ele>
        <time>2021-08-21T15:36:44.000Z</time>
      </trkpt>
      <trkpt lat="43.81251" lon="7.0831">
        <ele>811.1</ele>
        <time>2021-08-21T15:36:53.000Z</time>
      </trkpt>
      <trkpt lat="43.81252" lon="7.08306">
        <ele>811.8</ele>
        <time>2021-08-21T15:36:57.000Z</time>
      </trkpt>
      <trkpt lat="43.81252" lon="7.08301">
        <ele>812.1</ele>
        <time>2021-08-21T15:37:01.000Z</time>
      </trkpt>
      <trkpt lat="43.81252" lon="7.08292">
        <ele>812.6</ele>
        <time>2021-08-21T15:37:08.000Z</time>
      </trkpt>
      <trkpt lat="43.81252" lon="7.08288">
        <ele>812.8</ele>
        <time>2021-08-21T15:37:11.000Z</time>
      </trkpt>
      <trkpt lat="43.81254" lon="7.08276">
        <ele>814.4</ele>
        <time>2021-08-21T15:37:21.000Z</time>
      </trkpt>
      <trkpt lat="43.81255" lon="7.08266">
        <ele>815.5</ele>
        <time>2021-08-21T15:37:30.000Z</time>
      </trkpt>
      <trkpt lat="43.81255" lon="7.0826">
        <ele>815.9</ele>
        <time>2021-08-21T15:37:35.000Z</time>
      </trkpt>
      <trkpt lat="43.81255" lon="7.08257">
        <ele>816.3</ele>
        <time>2021-08-21T15:37:42.000Z</time>
      </trkpt>
      <trkpt lat="43.81255" lon="7.08256">
        <ele>816.3</ele>
        <time>2021-08-21T15:37:44.000Z</time>
      </trkpt>
      <trkpt lat="43.81254" lon="7.08247">
        <ele>816.3</ele>
        <time>2021-08-21T15:37:49.000Z</time>
      </trkpt>
      <trkpt lat="43.81254" lon="7.08244">
        <ele>815.9</ele>
        <time>2021-08-21T15:37:51.000Z</time>
      </trkpt>
      <trkpt lat="43.81253" lon="7.08241">
        <ele>815.6</ele>
        <time>2021-08-21T15:37:53.000Z</time>
      </trkpt>
      <trkpt lat="43.81253" lon="7.08231">
        <ele>815.8</ele>
        <time>2021-08-21T15:38:00.000Z</time>
      </trkpt>
      <trkpt lat="43.81252" lon="7.08227">
        <ele>815.5</ele>
        <time>2021-08-21T15:38:03.000Z</time>
      </trkpt>
      <trkpt lat="43.8125" lon="7.08221">
        <ele>814.3</ele>
        <time>2021-08-21T15:38:12.000Z</time>
      </trkpt>
      <trkpt lat="43.81251" lon="7.08217">
        <ele>815.1</ele>
        <time>2021-08-21T15:38:16.000Z</time>
      </trkpt>
      <trkpt lat="43.81251" lon="7.08216">
        <ele>815.1</ele>
        <time>2021-08-21T15:38:17.000Z</time>
      </trkpt>
      <trkpt lat="43.81251" lon="7.08205">
        <ele>814.8</ele>
        <time>2021-08-21T15:38:24.000Z</time>
      </trkpt>
      <trkpt lat="43.8125" lon="7.08203">
        <ele>814.6</ele>
        <time>2021-08-21T15:38:26.000Z</time>
      </trkpt>
      <trkpt lat="43.81249" lon="7.08192">
        <ele>814.7</ele>
        <time>2021-08-21T15:38:33.000Z</time>
      </trkpt>
      <trkpt lat="43.8125" lon="7.08191">
        <ele>814.7</ele>
        <time>2021-08-21T15:38:34.000Z</time>
      </trkpt>
      <trkpt lat="43.81249" lon="7.08186">
        <ele>814.7</ele>
        <time>2021-08-21T15:38:38.000Z</time>
      </trkpt>
      <trkpt lat="43.81251" lon="7.08183">
        <ele>815.1</ele>
        <time>2021-08-21T15:38:43.000Z</time>
      </trkpt>
      <trkpt lat="43.81252" lon="7.08177">
        <ele>815.8</ele>
        <time>2021-08-21T15:38:48.000Z</time>
      </trkpt>
      <trkpt lat="43.81252" lon="7.08176">
        <ele>815.7</ele>
        <time>2021-08-21T15:38:49.000Z</time>
      </trkpt>
      <trkpt lat="43.81252" lon="7.0817">
        <ele>816.2</ele>
        <time>2021-08-21T15:38:54.000Z</time>
      </trkpt>
      <trkpt lat="43.81251" lon="7.0816">
        <ele>815.7</ele>
        <time>2021-08-21T15:39:02.000Z</time>
      </trkpt>
      <trkpt lat="43.81249" lon="7.08158">
        <ele>815.4</ele>
        <time>2021-08-21T15:39:05.000Z</time>
      </trkpt>
      <trkpt lat="43.81246" lon="7.08153">
        <ele>815.6</ele>
        <time>2021-08-21T15:39:11.000Z</time>
      </trkpt>
      <trkpt lat="43.81245" lon="7.08147">
        <ele>815.8</ele>
        <time>2021-08-21T15:39:16.000Z</time>
      </trkpt>
      <trkpt lat="43.81244" lon="7.08143">
        <ele>815.9</ele>
        <time>2021-08-21T15:39:22.000Z</time>
      </trkpt>
      <trkpt lat="43.81244" lon="7.08137">
        <ele>816.4</ele>
        <time>2021-08-21T15:39:29.000Z</time>
      </trkpt>
      <trkpt lat="43.81247" lon="7.08133">
        <ele>816.8</ele>
        <time>2021-08-21T15:39:35.000Z</time>
      </trkpt>
      <trkpt lat="43.81247" lon="7.08127">
        <ele>817.1</ele>
        <time>2021-08-21T15:39:40.000Z</time>
      </trkpt>
      <trkpt lat="43.81247" lon="7.08124">
        <ele>817.3</ele>
        <time>2021-08-21T15:39:49.000Z</time>
      </trkpt>
      <trkpt lat="43.81249" lon="7.08123">
        <ele>817.5</ele>
        <time>2021-08-21T15:39:58.000Z</time>
      </trkpt>
      <trkpt lat="43.81246" lon="7.08119">
        <ele>817.6</ele>
        <time>2021-08-21T15:40:23.000Z</time>
      </trkpt>
      <trkpt lat="43.81246" lon="7.08117">
        <ele>817.7</ele>
        <time>2021-08-21T15:40:27.000Z</time>
      </trkpt>
      <trkpt lat="43.81247" lon="7.08114">
        <ele>817.9</ele>
        <time>2021-08-21T15:40:32.000Z</time>
      </trkpt>
      <trkpt lat="43.81249" lon="7.0811">
        <ele>818.3</ele>
        <time>2021-08-21T15:40:38.000Z</time>
      </trkpt>
      <trkpt lat="43.8125" lon="7.08107">
        <ele>818.7</ele>
        <time>2021-08-21T15:40:42.000Z</time>
      </trkpt>
      <trkpt lat="43.81249" lon="7.08101">
        <ele>818.9</ele>
        <time>2021-08-21T15:40:48.000Z</time>
      </trkpt>
      <trkpt lat="43.81251" lon="7.08098">
        <ele>819.6</ele>
        <time>2021-08-21T15:40:52.000Z</time>
      </trkpt>
      <trkpt lat="43.81253" lon="7.08093">
        <ele>820.8</ele>
        <time>2021-08-21T15:40:57.000Z</time>
      </trkpt>
      <trkpt lat="43.81255" lon="7.08092">
        <ele>821.6</ele>
        <time>2021-08-21T15:40:59.000Z</time>
      </trkpt>
      <trkpt lat="43.81258" lon="7.08087">
        <ele>823.7</ele>
        <time>2021-08-21T15:41:05.000Z</time>
      </trkpt>
      <trkpt lat="43.81259" lon="7.08079">
        <ele>824.5</ele>
        <time>2021-08-21T15:41:13.000Z</time>
      </trkpt>
      <trkpt lat="43.81258" lon="7.08073">
        <ele>824.3</ele>
        <time>2021-08-21T15:41:21.000Z</time>
      </trkpt>
      <trkpt lat="43.81258" lon="7.08069">
        <ele>824.6</ele>
        <time>2021-08-21T15:41:28.000Z</time>
      </trkpt>
      <trkpt lat="43.81258" lon="7.08059">
        <ele>825.1</ele>
        <time>2021-08-21T15:41:37.000Z</time>
      </trkpt>
      <trkpt lat="43.81259" lon="7.08049">
        <ele>826.4</ele>
        <time>2021-08-21T15:41:45.000Z</time>
      </trkpt>
      <trkpt lat="43.8126" lon="7.08041">
        <ele>827.2</ele>
        <time>2021-08-21T15:41:52.000Z</time>
      </trkpt>
      <trkpt lat="43.81263" lon="7.08035">
        <ele>828.7</ele>
        <time>2021-08-21T15:41:59.000Z</time>
      </trkpt>
      <trkpt lat="43.81264" lon="7.08031">
        <ele>829.4</ele>
        <time>2021-08-21T15:42:03.000Z</time>
      </trkpt>
      <trkpt lat="43.81266" lon="7.08029">
        <ele>830.3</ele>
        <time>2021-08-21T15:42:08.000Z</time>
      </trkpt>
      <trkpt lat="43.81267" lon="7.08025">
        <ele>831.3</ele>
        <time>2021-08-21T15:42:13.000Z</time>
      </trkpt>
      <trkpt lat="43.81269" lon="7.08024">
        <ele>832</ele>
        <time>2021-08-21T15:42:18.000Z</time>
      </trkpt>
      <trkpt lat="43.8127" lon="7.08019">
        <ele>832.7</ele>
        <time>2021-08-21T15:42:23.000Z</time>
      </trkpt>
      <trkpt lat="43.81271" lon="7.08015">
        <ele>833.4</ele>
        <time>2021-08-21T15:42:28.000Z</time>
      </trkpt>
      <trkpt lat="43.8127" lon="7.08012">
        <ele>833.2</ele>
        <time>2021-08-21T15:42:30.000Z</time>
      </trkpt>
      <trkpt lat="43.8127" lon="7.08006">
        <ele>833.3</ele>
        <time>2021-08-21T15:42:37.000Z</time>
      </trkpt>
      <trkpt lat="43.81271" lon="7.08002">
        <ele>833.9</ele>
        <time>2021-08-21T15:42:41.000Z</time>
      </trkpt>
      <trkpt lat="43.81272" lon="7.07997">
        <ele>834.5</ele>
        <time>2021-08-21T15:42:47.000Z</time>
      </trkpt>
      <trkpt lat="43.81273" lon="7.07996">
        <ele>834.9</ele>
        <time>2021-08-21T15:42:51.000Z</time>
      </trkpt>
      <trkpt lat="43.81275" lon="7.07993">
        <ele>835.5</ele>
        <time>2021-08-21T15:42:55.000Z</time>
      </trkpt>
      <trkpt lat="43.81275" lon="7.07987">
        <ele>835.4</ele>
        <time>2021-08-21T15:43:01.000Z</time>
      </trkpt>
      <trkpt lat="43.81275" lon="7.07981">
        <ele>835.3</ele>
        <time>2021-08-21T15:43:07.000Z</time>
      </trkpt>
      <trkpt lat="43.81274" lon="7.07976">
        <ele>834.8</ele>
        <time>2021-08-21T15:43:11.000Z</time>
      </trkpt>
      <trkpt lat="43.81278" lon="7.07971">
        <ele>836.2</ele>
        <time>2021-08-21T15:43:20.000Z</time>
      </trkpt>
      <trkpt lat="43.81282" lon="7.07972">
        <ele>837.4</ele>
        <time>2021-08-21T15:43:27.000Z</time>
      </trkpt>
      <trkpt lat="43.81285" lon="7.07972">
        <ele>838.7</ele>
        <time>2021-08-21T15:43:34.000Z</time>
      </trkpt>
      <trkpt lat="43.81288" lon="7.07972">
        <ele>839.7</ele>
        <time>2021-08-21T15:43:40.000Z</time>
      </trkpt>
      <trkpt lat="43.81291" lon="7.07971">
        <ele>840.4</ele>
        <time>2021-08-21T15:43:45.000Z</time>
      </trkpt>
      <trkpt lat="43.81293" lon="7.07969">
        <ele>841.2</ele>
        <time>2021-08-21T15:43:51.000Z</time>
      </trkpt>
      <trkpt lat="43.81295" lon="7.07969">
        <ele>841.8</ele>
        <time>2021-08-21T15:43:57.000Z</time>
      </trkpt>
      <trkpt lat="43.81296" lon="7.07967">
        <ele>842.2</ele>
        <time>2021-08-21T15:44:02.000Z</time>
      </trkpt>
      <trkpt lat="43.81298" lon="7.07966">
        <ele>842.7</ele>
        <time>2021-08-21T15:44:07.000Z</time>
      </trkpt>
      <trkpt lat="43.81301" lon="7.07965">
        <ele>843.6</ele>
        <time>2021-08-21T15:44:14.000Z</time>
      </trkpt>
      <trkpt lat="43.81304" lon="7.07962">
        <ele>844.7</ele>
        <time>2021-08-21T15:44:21.000Z</time>
      </trkpt>
      <trkpt lat="43.81305" lon="7.0796">
        <ele>844.8</ele>
        <time>2021-08-21T15:44:30.000Z</time>
      </trkpt>
      <trkpt lat="43.81306" lon="7.07958">
        <ele>844.9</ele>
        <time>2021-08-21T15:44:41.000Z</time>
      </trkpt>
      <trkpt lat="43.81308" lon="7.07958">
        <ele>845.6</ele>
        <time>2021-08-21T15:44:47.000Z</time>
      </trkpt>
      <trkpt lat="43.81312" lon="7.07955">
        <ele>846.7</ele>
        <time>2021-08-21T15:44:55.000Z</time>
      </trkpt>
      <trkpt lat="43.81314" lon="7.07957">
        <ele>847.6</ele>
        <time>2021-08-21T15:45:00.000Z</time>
      </trkpt>
      <trkpt lat="43.81317" lon="7.07956">
        <ele>848.5</ele>
        <time>2021-08-21T15:45:07.000Z</time>
      </trkpt>
      <trkpt lat="43.8132" lon="7.07955">
        <ele>849.2</ele>
        <time>2021-08-21T15:45:13.000Z</time>
      </trkpt>
      <trkpt lat="43.81322" lon="7.07954">
        <ele>850</ele>
        <time>2021-08-21T15:45:22.000Z</time>
      </trkpt>
      <trkpt lat="43.81323" lon="7.07956">
        <ele>850.5</ele>
        <time>2021-08-21T15:45:30.000Z</time>
      </trkpt>
      <trkpt lat="43.81324" lon="7.07956">
        <ele>850.7</ele>
        <time>2021-08-21T15:45:36.000Z</time>
      </trkpt>
      <trkpt lat="43.81324" lon="7.07955">
        <ele>850.8</ele>
        <time>2021-08-21T15:45:38.000Z</time>
      </trkpt>
      <trkpt lat="43.81327" lon="7.07955">
        <ele>851.6</ele>
        <time>2021-08-21T15:45:50.000Z</time>
      </trkpt>
      <trkpt lat="43.81327" lon="7.07958">
        <ele>851.9</ele>
        <time>2021-08-21T15:45:56.000Z</time>
      </trkpt>
      <trkpt lat="43.8133" lon="7.07962">
        <ele>853.1</ele>
        <time>2021-08-21T15:46:04.000Z</time>
      </trkpt>
      <trkpt lat="43.81332" lon="7.07961">
        <ele>853.9</ele>
        <time>2021-08-21T15:46:09.000Z</time>
      </trkpt>
      <trkpt lat="43.81336" lon="7.07954">
        <ele>854.6</ele>
        <time>2021-08-21T15:46:19.000Z</time>
      </trkpt>
      <trkpt lat="43.81394" lon="7.08075">
        <ele>889.9</ele>
        <time>2021-08-21T15:51:22.000Z</time>
      </trkpt>
      <trkpt lat="43.81396" lon="7.08082">
        <ele>891.2</ele>
        <time>2021-08-21T15:51:29.000Z</time>
      </trkpt>
      <trkpt lat="43.81398" lon="7.0809">
        <ele>892.2</ele>
        <time>2021-08-21T15:51:38.000Z</time>
      </trkpt>
      <trkpt lat="43.81401" lon="7.08098">
        <ele>893.2</ele>
        <time>2021-08-21T15:51:47.000Z</time>
      </trkpt>
      <trkpt lat="43.81403" lon="7.08107">
        <ele>894.2</ele>
        <time>2021-08-21T15:51:57.000Z</time>
      </trkpt>
      <trkpt lat="43.81406" lon="7.08115">
        <ele>895.2</ele>
        <time>2021-08-21T15:52:06.000Z</time>
      </trkpt>
      <trkpt lat="43.81407" lon="7.08125">
        <ele>895.8</ele>
        <time>2021-08-21T15:52:16.000Z</time>
      </trkpt>
      <trkpt lat="43.81408" lon="7.08133">
        <ele>895.9</ele>
        <time>2021-08-21T15:52:23.000Z</time>
      </trkpt>
      <trkpt lat="43.81409" lon="7.0814">
        <ele>895.9</ele>
        <time>2021-08-21T15:52:31.000Z</time>
      </trkpt>
      <trkpt lat="43.8141" lon="7.08145">
        <ele>896.2</ele>
        <time>2021-08-21T15:52:36.000Z</time>
      </trkpt>
      <trkpt lat="43.81412" lon="7.08147">
        <ele>897.6</ele>
        <time>2021-08-21T15:52:41.000Z</time>
      </trkpt>
      <trkpt lat="43.81415" lon="7.08145">
        <ele>899</ele>
        <time>2021-08-21T15:52:45.000Z</time>
      </trkpt>
      <trkpt lat="43.81417" lon="7.0814">
        <ele>900</ele>
        <time>2021-08-21T15:52:51.000Z</time>
      </trkpt>
      <trkpt lat="43.81418" lon="7.08136">
        <ele>900.4</ele>
        <time>2021-08-21T15:52:56.000Z</time>
      </trkpt>
      <trkpt lat="43.81418" lon="7.08132">
        <ele>900.7</ele>
        <time>2021-08-21T15:53:01.000Z</time>
      </trkpt>
      <trkpt lat="43.81419" lon="7.08128">
        <ele>901.1</ele>
        <time>2021-08-21T15:53:06.000Z</time>
      </trkpt>
      <trkpt lat="43.8142" lon="7.08124">
        <ele>901.4</ele>
        <time>2021-08-21T15:53:11.000Z</time>
      </trkpt>
      <trkpt lat="43.81421" lon="7.08119">
        <ele>902</ele>
        <time>2021-08-21T15:53:16.000Z</time>
      </trkpt>
      <trkpt lat="43.81423" lon="7.08115">
        <ele>902.5</ele>
        <time>2021-08-21T15:53:21.000Z</time>
      </trkpt>
      <trkpt lat="43.81424" lon="7.08111">
        <ele>902.9</ele>
        <time>2021-08-21T15:53:26.000Z</time>
      </trkpt>
      <trkpt lat="43.81425" lon="7.08106">
        <ele>903.4</ele>
        <time>2021-08-21T15:53:31.000Z</time>
      </trkpt>
      <trkpt lat="43.81426" lon="7.08102">
        <ele>903.8</ele>
        <time>2021-08-21T15:53:36.000Z</time>
      </trkpt>
      <trkpt lat="43.81426" lon="7.08099">
        <ele>904</ele>
        <time>2021-08-21T15:53:40.000Z</time>
      </trkpt>
      <trkpt lat="43.81428" lon="7.08093">
        <ele>904.6</ele>
        <time>2021-08-21T15:53:47.000Z</time>
      </trkpt>
      <trkpt lat="43.81428" lon="7.08091">
        <ele>904.7</ele>
        <time>2021-08-21T15:53:51.000Z</time>
      </trkpt>
      <trkpt lat="43.81429" lon="7.08087">
        <ele>905</ele>
        <time>2021-08-21T15:53:56.000Z</time>
      </trkpt>
      <trkpt lat="43.8143" lon="7.08083">
        <ele>905.6</ele>
        <time>2021-08-21T15:54:01.000Z</time>
      </trkpt>
      <trkpt lat="43.81431" lon="7.08079">
        <ele>905.7</ele>
        <time>2021-08-21T15:54:06.000Z</time>
      </trkpt>
      <trkpt lat="43.81432" lon="7.08073">
        <ele>905.6</ele>
        <time>2021-08-21T15:54:12.000Z</time>
      </trkpt>
      <trkpt lat="43.81433" lon="7.08069">
        <ele>905.7</ele>
        <time>2021-08-21T15:54:16.000Z</time>
      </trkpt>
      <trkpt lat="43.81433" lon="7.08065">
        <ele>905.5</ele>
        <time>2021-08-21T15:54:21.000Z</time>
      </trkpt>
      <trkpt lat="43.81434" lon="7.08061">
        <ele>905.7</ele>
        <time>2021-08-21T15:54:26.000Z</time>
      </trkpt>
      <trkpt lat="43.81437" lon="7.08057">
        <ele>906.3</ele>
        <time>2021-08-21T15:54:32.000Z</time>
      </trkpt>
      <trkpt lat="43.81437" lon="7.08053">
        <ele>906.2</ele>
        <time>2021-08-21T15:54:36.000Z</time>
      </trkpt>
      <trkpt lat="43.81438" lon="7.0805">
        <ele>906.5</ele>
        <time>2021-08-21T15:54:41.000Z</time>
      </trkpt>
      <trkpt lat="43.81439" lon="7.08045">
        <ele>906.7</ele>
        <time>2021-08-21T15:54:46.000Z</time>
      </trkpt>
      <trkpt lat="43.81441" lon="7.0804">
        <ele>907.1</ele>
        <time>2021-08-21T15:54:51.000Z</time>
      </trkpt>
      <trkpt lat="43.81443" lon="7.08035">
        <ele>907.5</ele>
        <time>2021-08-21T15:54:57.000Z</time>
      </trkpt>
      <trkpt lat="43.81445" lon="7.08031">
        <ele>908.1</ele>
        <time>2021-08-21T15:55:03.000Z</time>
      </trkpt>
      <trkpt lat="43.81449" lon="7.08024">
        <ele>909.1</ele>
        <time>2021-08-21T15:55:13.000Z</time>
      </trkpt>
      <trkpt lat="43.81452" lon="7.08018">
        <ele>910.1</ele>
        <time>2021-08-21T15:55:22.000Z</time>
      </trkpt>
      <trkpt lat="43.81458" lon="7.08009">
        <ele>911.9</ele>
        <time>2021-08-21T15:55:34.000Z</time>
      </trkpt>
      <trkpt lat="43.81461" lon="7.08002">
        <ele>913.1</ele>
        <time>2021-08-21T15:55:42.000Z</time>
      </trkpt>
      <trkpt lat="43.81465" lon="7.07997">
        <ele>913.6</ele>
        <time>2021-08-21T15:55:48.000Z</time>
      </trkpt>
      <trkpt lat="43.81468" lon="7.07993">
        <ele>913.7</ele>
        <time>2021-08-21T15:55:55.000Z</time>
      </trkpt>
      <trkpt lat="43.81471" lon="7.07988">
        <ele>913.7</ele>
        <time>2021-08-21T15:56:03.000Z</time>
      </trkpt>
      <trkpt lat="43.81477" lon="7.07981">
        <ele>914.3</ele>
        <time>2021-08-21T15:56:12.000Z</time>
      </trkpt>
      <trkpt lat="43.81477" lon="7.0798">
        <ele>914.3</ele>
        <time>2021-08-21T15:56:13.000Z</time>
      </trkpt>
      <trkpt lat="43.81485" lon="7.07974">
        <ele>915.6</ele>
        <time>2021-08-21T15:56:23.000Z</time>
      </trkpt>
      <trkpt lat="43.81487" lon="7.07971">
        <ele>915.7</ele>
        <time>2021-08-21T15:56:27.000Z</time>
      </trkpt>
      <trkpt lat="43.81492" lon="7.07966">
        <ele>916.6</ele>
        <time>2021-08-21T15:56:35.000Z</time>
      </trkpt>
      <trkpt lat="43.81496" lon="7.07962">
        <ele>917.4</ele>
        <time>2021-08-21T15:56:42.000Z</time>
      </trkpt>
      <trkpt lat="43.81501" lon="7.07961">
        <ele>918.8</ele>
        <time>2021-08-21T15:56:47.000Z</time>
      </trkpt>
      <trkpt lat="43.81503" lon="7.0796">
        <ele>919.3</ele>
        <time>2021-08-21T15:56:51.000Z</time>
      </trkpt>
      <trkpt lat="43.81504" lon="7.0796">
        <ele>919.6</ele>
        <time>2021-08-21T15:56:53.000Z</time>
      </trkpt>
      <trkpt lat="43.81507" lon="7.07956">
        <ele>919.5</ele>
        <time>2021-08-21T15:56:56.000Z</time>
      </trkpt>
      <trkpt lat="43.81518" lon="7.07954">
        <ele>922.6</ele>
        <time>2021-08-21T15:57:57.000Z</time>
      </trkpt>
      <trkpt lat="43.81524" lon="7.07951">
        <ele>924</ele>
        <time>2021-08-21T15:58:05.000Z</time>
      </trkpt>
      <trkpt lat="43.8153" lon="7.07948">
        <ele>925.3</ele>
        <time>2021-08-21T15:58:14.000Z</time>
      </trkpt>
      <trkpt lat="43.81535" lon="7.07946">
        <ele>926.6</ele>
        <time>2021-08-21T15:58:20.000Z</time>
      </trkpt>
      <trkpt lat="43.81541" lon="7.07943">
        <ele>928.2</ele>
        <time>2021-08-21T15:58:29.000Z</time>
      </trkpt>
      <trkpt lat="43.81546" lon="7.07941">
        <ele>929.6</ele>
        <time>2021-08-21T15:58:37.000Z</time>
      </trkpt>
      <trkpt lat="43.8155" lon="7.07939">
        <ele>930.8</ele>
        <time>2021-08-21T15:58:45.000Z</time>
      </trkpt>
      <trkpt lat="43.81553" lon="7.07938">
        <ele>931.4</ele>
        <time>2021-08-21T15:58:50.000Z</time>
      </trkpt>
      <trkpt lat="43.81556" lon="7.07933">
        <ele>932</ele>
        <time>2021-08-21T15:58:56.000Z</time>
      </trkpt>
      <trkpt lat="43.81559" lon="7.07928">
        <ele>932.5</ele>
        <time>2021-08-21T15:59:02.000Z</time>
      </trkpt>
      <trkpt lat="43.81566" lon="7.07919">
        <ele>934.5</ele>
        <time>2021-08-21T15:59:14.000Z</time>
      </trkpt>
      <trkpt lat="43.81571" lon="7.0791">
        <ele>935.7</ele>
        <time>2021-08-21T15:59:23.000Z</time>
      </trkpt>
      <trkpt lat="43.81575" lon="7.07902">
        <ele>936.7</ele>
        <time>2021-08-21T15:59:31.000Z</time>
      </trkpt>
      <trkpt lat="43.8158" lon="7.07891">
        <ele>938</ele>
        <time>2021-08-21T15:59:42.000Z</time>
      </trkpt>
      <trkpt lat="43.81584" lon="7.07878">
        <ele>939.1</ele>
        <time>2021-08-21T15:59:53.000Z</time>
      </trkpt>
      <trkpt lat="43.81585" lon="7.07877">
        <ele>939.1</ele>
        <time>2021-08-21T15:59:54.000Z</time>
      </trkpt>
      <trkpt lat="43.81588" lon="7.07865">
        <ele>939.9</ele>
        <time>2021-08-21T16:00:05.000Z</time>
      </trkpt>
      <trkpt lat="43.81591" lon="7.07856">
        <ele>940.3</ele>
        <time>2021-08-21T16:00:13.000Z</time>
      </trkpt>
      <trkpt lat="43.81593" lon="7.07848">
        <ele>940.7</ele>
        <time>2021-08-21T16:00:21.000Z</time>
      </trkpt>
      <trkpt lat="43.81594" lon="7.07838">
        <ele>940.9</ele>
        <time>2021-08-21T16:00:30.000Z</time>
      </trkpt>
      <trkpt lat="43.81596" lon="7.0783">
        <ele>941.2</ele>
        <time>2021-08-21T16:00:40.000Z</time>
      </trkpt>
      <trkpt lat="43.81598" lon="7.07821">
        <ele>941.7</ele>
        <time>2021-08-21T16:00:49.000Z</time>
      </trkpt>
      <trkpt lat="43.816" lon="7.07811">
        <ele>942.2</ele>
        <time>2021-08-21T16:00:58.000Z</time>
      </trkpt>
      <trkpt lat="43.81601" lon="7.07801">
        <ele>942.6</ele>
        <time>2021-08-21T16:01:07.000Z</time>
      </trkpt>
      <trkpt lat="43.81604" lon="7.0779">
        <ele>943.3</ele>
        <time>2021-08-21T16:01:16.000Z</time>
      </trkpt>
      <trkpt lat="43.81606" lon="7.07779">
        <ele>944.2</ele>
        <time>2021-08-21T16:01:25.000Z</time>
      </trkpt>
      <trkpt lat="43.8161" lon="7.07768">
        <ele>945.5</ele>
        <time>2021-08-21T16:01:34.000Z</time>
      </trkpt>
      <trkpt lat="43.81615" lon="7.07756">
        <ele>947.8</ele>
        <time>2021-08-21T16:01:45.000Z</time>
      </trkpt>
      <trkpt lat="43.81617" lon="7.07746">
        <ele>948.3</ele>
        <time>2021-08-21T16:01:52.000Z</time>
      </trkpt>
      <trkpt lat="43.81618" lon="7.07738">
        <ele>949.3</ele>
        <time>2021-08-21T16:01:57.000Z</time>
      </trkpt>
      <trkpt lat="43.8162" lon="7.07729">
        <ele>950.6</ele>
        <time>2021-08-21T16:02:03.000Z</time>
      </trkpt>
      <trkpt lat="43.81622" lon="7.07718">
        <ele>951.8</ele>
        <time>2021-08-21T16:02:10.000Z</time>
      </trkpt>
      <trkpt lat="43.81623" lon="7.07716">
        <ele>952.5</ele>
        <time>2021-08-21T16:02:12.000Z</time>
      </trkpt>
      <trkpt lat="43.81623" lon="7.07704">
        <ele>953.2</ele>
        <time>2021-08-21T16:02:21.000Z</time>
      </trkpt>
      <trkpt lat="43.81623" lon="7.07702">
        <ele>953.3</ele>
        <time>2021-08-21T16:02:22.000Z</time>
      </trkpt>
      <trkpt lat="43.81623" lon="7.07696">
        <ele>953.5</ele>
        <time>2021-08-21T16:02:27.000Z</time>
      </trkpt>
      <trkpt lat="43.81623" lon="7.07693">
        <ele>953.6</ele>
        <time>2021-08-21T16:02:29.000Z</time>
      </trkpt>
      <trkpt lat="43.81622" lon="7.07685">
        <ele>953.3</ele>
        <time>2021-08-21T16:02:35.000Z</time>
      </trkpt>
      <trkpt lat="43.81621" lon="7.07677">
        <ele>953.2</ele>
        <time>2021-08-21T16:02:42.000Z</time>
      </trkpt>
      <trkpt lat="43.8162" lon="7.07674">
        <ele>952.7</ele>
        <time>2021-08-21T16:02:46.000Z</time>
      </trkpt>
      <trkpt lat="43.81616" lon="7.07668">
        <ele>951.3</ele>
        <time>2021-08-21T16:02:53.000Z</time>
      </trkpt>
      <trkpt lat="43.81616" lon="7.07662">
        <ele>951.7</ele>
        <time>2021-08-21T16:02:59.000Z</time>
      </trkpt>
      <trkpt lat="43.81615" lon="7.07657">
        <ele>951.9</ele>
        <time>2021-08-21T16:03:05.000Z</time>
      </trkpt>
      <trkpt lat="43.81614" lon="7.07652">
        <ele>952.1</ele>
        <time>2021-08-21T16:03:10.000Z</time>
      </trkpt>
      <trkpt lat="43.81614" lon="7.07644">
        <ele>953</ele>
        <time>2021-08-21T16:03:17.000Z</time>
      </trkpt>
      <trkpt lat="43.81615" lon="7.07637">
        <ele>954</ele>
        <time>2021-08-21T16:03:22.000Z</time>
      </trkpt>
      <trkpt lat="43.81615" lon="7.07629">
        <ele>955.2</ele>
        <time>2021-08-21T16:03:28.000Z</time>
      </trkpt>
      <trkpt lat="43.81617" lon="7.07621">
        <ele>956.7</ele>
        <time>2021-08-21T16:03:35.000Z</time>
      </trkpt>
      <trkpt lat="43.81617" lon="7.07617">
        <ele>957.2</ele>
        <time>2021-08-21T16:03:38.000Z</time>
      </trkpt>
      <trkpt lat="43.81617" lon="7.07612">
        <ele>957.7</ele>
        <time>2021-08-21T16:03:42.000Z</time>
      </trkpt>
      <trkpt lat="43.81616" lon="7.07602">
        <ele>958.4</ele>
        <time>2021-08-21T16:03:52.000Z</time>
      </trkpt>
      <trkpt lat="43.81614" lon="7.0759">
        <ele>959.1</ele>
        <time>2021-08-21T16:04:04.000Z</time>
      </trkpt>
      <trkpt lat="43.81614" lon="7.07585">
        <ele>959.4</ele>
        <time>2021-08-21T16:04:07.000Z</time>
      </trkpt>
      <trkpt lat="43.81615" lon="7.07576">
        <ele>961.3</ele>
        <time>2021-08-21T16:04:16.000Z</time>
      </trkpt>
      <trkpt lat="43.81619" lon="7.07565">
        <ele>963.8</ele>
        <time>2021-08-21T16:04:26.000Z</time>
      </trkpt>
      <trkpt lat="43.81622" lon="7.07551">
        <ele>966.6</ele>
        <time>2021-08-21T16:04:37.000Z</time>
      </trkpt>
      <trkpt lat="43.81623" lon="7.07537">
        <ele>968.7</ele>
        <time>2021-08-21T16:04:48.000Z</time>
      </trkpt>
      <trkpt lat="43.81623" lon="7.07527">
        <ele>970</ele>
        <time>2021-08-21T16:04:56.000Z</time>
      </trkpt>
      <trkpt lat="43.81623" lon="7.07519">
        <ele>970.8</ele>
        <time>2021-08-21T16:05:01.000Z</time>
      </trkpt>
      <trkpt lat="43.81623" lon="7.07509">
        <ele>971.8</ele>
        <time>2021-08-21T16:05:08.000Z</time>
      </trkpt>
      <trkpt lat="43.81623" lon="7.07498">
        <ele>973.1</ele>
        <time>2021-08-21T16:05:18.000Z</time>
      </trkpt>
      <trkpt lat="43.81624" lon="7.07486">
        <ele>974.7</ele>
        <time>2021-08-21T16:05:27.000Z</time>
      </trkpt>
      <trkpt lat="43.81623" lon="7.0748">
        <ele>975.3</ele>
        <time>2021-08-21T16:05:32.000Z</time>
      </trkpt>
      <trkpt lat="43.81623" lon="7.07472">
        <ele>976.1</ele>
        <time>2021-08-21T16:05:37.000Z</time>
      </trkpt>
      <trkpt lat="43.81623" lon="7.07463">
        <ele>977.3</ele>
        <time>2021-08-21T16:05:44.000Z</time>
      </trkpt>
      <trkpt lat="43.81624" lon="7.07459">
        <ele>977.8</ele>
        <time>2021-08-21T16:05:46.000Z</time>
      </trkpt>
      <trkpt lat="43.81625" lon="7.07449">
        <ele>979.2</ele>
        <time>2021-08-21T16:05:53.000Z</time>
      </trkpt>
      <trkpt lat="43.81626" lon="7.07439">
        <ele>980.6</ele>
        <time>2021-08-21T16:06:00.000Z</time>
      </trkpt>
      <trkpt lat="43.81626" lon="7.07434">
        <ele>981.4</ele>
        <time>2021-08-21T16:06:04.000Z</time>
      </trkpt>
      <trkpt lat="43.81627" lon="7.07425">
        <ele>982.5</ele>
        <time>2021-08-21T16:06:11.000Z</time>
      </trkpt>
      <trkpt lat="43.81628" lon="7.07422">
        <ele>983</ele>
        <time>2021-08-21T16:06:13.000Z</time>
      </trkpt>
      <trkpt lat="43.81627" lon="7.07419">
        <ele>983.2</ele>
        <time>2021-08-21T16:06:15.000Z</time>
      </trkpt>
      <trkpt lat="43.81628" lon="7.07414">
        <ele>983.9</ele>
        <time>2021-08-21T16:06:19.000Z</time>
      </trkpt>
      <trkpt lat="43.81631" lon="7.07399">
        <ele>985.1</ele>
        <time>2021-08-21T16:06:30.000Z</time>
      </trkpt>
      <trkpt lat="43.81633" lon="7.07388">
        <ele>985.9</ele>
        <time>2021-08-21T16:06:39.000Z</time>
      </trkpt>
      <trkpt lat="43.81632" lon="7.07378">
        <ele>986</ele>
        <time>2021-08-21T16:06:46.000Z</time>
      </trkpt>
      <trkpt lat="43.8163" lon="7.07364">
        <ele>986.1</ele>
        <time>2021-08-21T16:06:56.000Z</time>
      </trkpt>
      <trkpt lat="43.81627" lon="7.07352">
        <ele>985.9</ele>
        <time>2021-08-21T16:07:06.000Z</time>
      </trkpt>
      <trkpt lat="43.81628" lon="7.07341">
        <ele>986.5</ele>
        <time>2021-08-21T16:07:14.000Z</time>
      </trkpt>
      <trkpt lat="43.81629" lon="7.07329">
        <ele>986.9</ele>
        <time>2021-08-21T16:07:23.000Z</time>
      </trkpt>
      <trkpt lat="43.81631" lon="7.07319">
        <ele>987.1</ele>
        <time>2021-08-21T16:07:32.000Z</time>
      </trkpt>
      <trkpt lat="43.81634" lon="7.07309">
        <ele>987.5</ele>
        <time>2021-08-21T16:07:41.000Z</time>
      </trkpt>
      <trkpt lat="43.81637" lon="7.07303">
        <ele>988.1</ele>
        <time>2021-08-21T16:07:49.000Z</time>
      </trkpt>
      <trkpt lat="43.81638" lon="7.073">
        <ele>988.4</ele>
        <time>2021-08-21T16:07:54.000Z</time>
      </trkpt>
      <trkpt lat="43.8164" lon="7.07296">
        <ele>988.7</ele>
        <time>2021-08-21T16:08:00.000Z</time>
      </trkpt>
      <trkpt lat="43.81644" lon="7.07286">
        <ele>989.6</ele>
        <time>2021-08-21T16:08:09.000Z</time>
      </trkpt>
      <trkpt lat="43.81648" lon="7.0728">
        <ele>990.5</ele>
        <time>2021-08-21T16:08:17.000Z</time>
      </trkpt>
      <trkpt lat="43.81652" lon="7.07272">
        <ele>991.5</ele>
        <time>2021-08-21T16:08:25.000Z</time>
      </trkpt>
      <trkpt lat="43.81655" lon="7.07268">
        <ele>992.1</ele>
        <time>2021-08-21T16:08:30.000Z</time>
      </trkpt>
      <trkpt lat="43.81655" lon="7.07266">
        <ele>992</ele>
        <time>2021-08-21T16:08:32.000Z</time>
      </trkpt>
      <trkpt lat="43.81658" lon="7.07258">
        <ele>992.7</ele>
        <time>2021-08-21T16:08:39.000Z</time>
      </trkpt>
      <trkpt lat="43.81659" lon="7.07256">
        <ele>992.9</ele>
        <time>2021-08-21T16:08:41.000Z</time>
      </trkpt>
      <trkpt lat="43.8166" lon="7.07252">
        <ele>993.3</ele>
        <time>2021-08-21T16:08:47.000Z</time>
      </trkpt>
      <trkpt lat="43.81665" lon="7.07248">
        <ele>994.4</ele>
        <time>2021-08-21T16:09:42.000Z</time>
      </trkpt>
      <trkpt lat="43.81665" lon="7.07247">
        <ele>994.5</ele>
        <time>2021-08-21T16:09:43.000Z</time>
      </trkpt>
      <trkpt lat="43.81668" lon="7.07241">
        <ele>995.1</ele>
        <time>2021-08-21T16:09:49.000Z</time>
      </trkpt>
      <trkpt lat="43.8167" lon="7.07235">
        <ele>995.9</ele>
        <time>2021-08-21T16:09:54.000Z</time>
      </trkpt>
      <trkpt lat="43.81672" lon="7.07229">
        <ele>996.7</ele>
        <time>2021-08-21T16:10:00.000Z</time>
      </trkpt>
      <trkpt lat="43.81673" lon="7.07228">
        <ele>996.9</ele>
        <time>2021-08-21T16:10:01.000Z</time>
      </trkpt>
      <trkpt lat="43.81676" lon="7.07221">
        <ele>997.8</ele>
        <time>2021-08-21T16:10:08.000Z</time>
      </trkpt>
      <trkpt lat="43.81677" lon="7.07219">
        <ele>998.1</ele>
        <time>2021-08-21T16:10:10.000Z</time>
      </trkpt>
      <trkpt lat="43.81678" lon="7.07213">
        <ele>998.4</ele>
        <time>2021-08-21T16:10:15.000Z</time>
      </trkpt>
      <trkpt lat="43.81682" lon="7.07202">
        <ele>999.5</ele>
        <time>2021-08-21T16:10:26.000Z</time>
      </trkpt>
      <trkpt lat="43.81685" lon="7.07193">
        <ele>1000.2</ele>
        <time>2021-08-21T16:10:35.000Z</time>
      </trkpt>
      <trkpt lat="43.81688" lon="7.07184">
        <ele>1001</ele>
        <time>2021-08-21T16:10:44.000Z</time>
      </trkpt>
      <trkpt lat="43.81693" lon="7.07175">
        <ele>1002.4</ele>
        <time>2021-08-21T16:10:53.000Z</time>
      </trkpt>
      <trkpt lat="43.81698" lon="7.07165">
        <ele>1003.6</ele>
        <time>2021-08-21T16:11:02.000Z</time>
      </trkpt>
      <trkpt lat="43.81699" lon="7.07164">
        <ele>1003.8</ele>
        <time>2021-08-21T16:11:03.000Z</time>
      </trkpt>
      <trkpt lat="43.81699" lon="7.07164">
        <ele>1003.8</ele>
        <time>2021-08-21T16:11:03.000Z</time>
      </trkpt>
      <trkpt lat="43.81702" lon="7.07154">
        <ele>1004.6</ele>
        <time>2021-08-21T16:11:12.000Z</time>
      </trkpt>
      <trkpt lat="43.81707" lon="7.07144">
        <ele>1005.8</ele>
        <time>2021-08-21T16:11:21.000Z</time>
      </trkpt>
      <trkpt lat="43.81711" lon="7.07135">
        <ele>1006.8</ele>
        <time>2021-08-21T16:11:30.000Z</time>
      </trkpt>
      <trkpt lat="43.81717" lon="7.07126">
        <ele>1008</ele>
        <time>2021-08-21T16:11:40.000Z</time>
      </trkpt>
      <trkpt lat="43.8172" lon="7.07117">
        <ele>1008.5</ele>
        <time>2021-08-21T16:11:49.000Z</time>
      </trkpt>
      <trkpt lat="43.81724" lon="7.07108">
        <ele>1009.1</ele>
        <time>2021-08-21T16:11:58.000Z</time>
      </trkpt>
      <trkpt lat="43.81729" lon="7.07096">
        <ele>1009.8</ele>
        <time>2021-08-21T16:12:09.000Z</time>
      </trkpt>
      <trkpt lat="43.81733" lon="7.07088">
        <ele>1010.2</ele>
        <time>2021-08-21T16:12:18.000Z</time>
      </trkpt>
      <trkpt lat="43.81737" lon="7.0708">
        <ele>1010.9</ele>
        <time>2021-08-21T16:12:28.000Z</time>
      </trkpt>
      <trkpt lat="43.81741" lon="7.07072">
        <ele>1011.6</ele>
        <time>2021-08-21T16:12:37.000Z</time>
      </trkpt>
      <trkpt lat="43.81744" lon="7.07064">
        <ele>1012</ele>
        <time>2021-08-21T16:12:46.000Z</time>
      </trkpt>
      <trkpt lat="43.81748" lon="7.07055">
        <ele>1012.6</ele>
        <time>2021-08-21T16:12:56.000Z</time>
      </trkpt>
      <trkpt lat="43.81752" lon="7.07044">
        <ele>1013.6</ele>
        <time>2021-08-21T16:13:07.000Z</time>
      </trkpt>
      <trkpt lat="43.81755" lon="7.07037">
        <ele>1014.5</ele>
        <time>2021-08-21T16:13:15.000Z</time>
      </trkpt>
      <trkpt lat="43.8176" lon="7.07028">
        <ele>1015.9</ele>
        <time>2021-08-21T16:13:25.000Z</time>
      </trkpt>
      <trkpt lat="43.81763" lon="7.07021">
        <ele>1017.1</ele>
        <time>2021-08-21T16:13:33.000Z</time>
      </trkpt>
      <trkpt lat="43.81767" lon="7.07012">
        <ele>1017.9</ele>
        <time>2021-08-21T16:13:42.000Z</time>
      </trkpt>
      <trkpt lat="43.81771" lon="7.07004">
        <ele>1019.1</ele>
        <time>2021-08-21T16:13:51.000Z</time>
      </trkpt>
      <trkpt lat="43.81776" lon="7.06993">
        <ele>1020.8</ele>
        <time>2021-08-21T16:14:02.000Z</time>
      </trkpt>
      <trkpt lat="43.81779" lon="7.06985">
        <ele>1022</ele>
        <time>2021-08-21T16:14:10.000Z</time>
      </trkpt>
      <trkpt lat="43.81784" lon="7.06978">
        <ele>1023.5</ele>
        <time>2021-08-21T16:14:18.000Z</time>
      </trkpt>
      <trkpt lat="43.81788" lon="7.06971">
        <ele>1024.4</ele>
        <time>2021-08-21T16:14:28.000Z</time>
      </trkpt>
      <trkpt lat="43.81792" lon="7.06963">
        <ele>1025.4</ele>
        <time>2021-08-21T16:14:37.000Z</time>
      </trkpt>
      <trkpt lat="43.81796" lon="7.06958">
        <ele>1026.2</ele>
        <time>2021-08-21T16:14:46.000Z</time>
      </trkpt>
      <trkpt lat="43.81801" lon="7.0695">
        <ele>1027.2</ele>
        <time>2021-08-21T16:14:56.000Z</time>
      </trkpt>
      <trkpt lat="43.81804" lon="7.06945">
        <ele>1027.8</ele>
        <time>2021-08-21T16:15:04.000Z</time>
      </trkpt>
      <trkpt lat="43.81809" lon="7.06939">
        <ele>1028.7</ele>
        <time>2021-08-21T16:15:13.000Z</time>
      </trkpt>
      <trkpt lat="43.81813" lon="7.06934">
        <ele>1029.2</ele>
        <time>2021-08-21T16:15:21.000Z</time>
      </trkpt>
      <trkpt lat="43.81819" lon="7.06925">
        <ele>1029.9</ele>
        <time>2021-08-21T16:26:43.000Z</time>
      </trkpt>
      <trkpt lat="43.81819" lon="7.06925">
        <ele>1029.9</ele>
        <time>2021-08-21T16:26:43.000Z</time>
      </trkpt>
      <trkpt lat="43.81823" lon="7.06922">
        <ele>1030.2</ele>
        <time>2021-08-21T16:26:48.000Z</time>
      </trkpt>
      <trkpt lat="43.81824" lon="7.06918">
        <ele>1030.3</ele>
        <time>2021-08-21T16:26:53.000Z</time>
      </trkpt>
      <trkpt lat="43.81827" lon="7.06913">
        <ele>1030.5</ele>
        <time>2021-08-21T16:27:01.000Z</time>
      </trkpt>
      <trkpt lat="43.81832" lon="7.06906">
        <ele>1031.2</ele>
        <time>2021-08-21T16:27:11.000Z</time>
      </trkpt>
      <trkpt lat="43.81834" lon="7.06903">
        <ele>1031.6</ele>
        <time>2021-08-21T16:27:16.000Z</time>
      </trkpt>
      <trkpt lat="43.81837" lon="7.06898">
        <ele>1032.5</ele>
        <time>2021-08-21T16:27:25.000Z</time>
      </trkpt>
      <trkpt lat="43.81839" lon="7.06893">
        <ele>1033.2</ele>
        <time>2021-08-21T16:27:33.000Z</time>
      </trkpt>
      <trkpt lat="43.81842" lon="7.0689">
        <ele>1034</ele>
        <time>2021-08-21T16:27:39.000Z</time>
      </trkpt>
      <trkpt lat="43.81846" lon="7.06884">
        <ele>1035.7</ele>
        <time>2021-08-21T16:27:48.000Z</time>
      </trkpt>
      <trkpt lat="43.81851" lon="7.0688">
        <ele>1037.1</ele>
        <time>2021-08-21T16:27:56.000Z</time>
      </trkpt>
      <trkpt lat="43.81854" lon="7.06876">
        <ele>1038.1</ele>
        <time>2021-08-21T16:28:03.000Z</time>
      </trkpt>
      <trkpt lat="43.81858" lon="7.06869">
        <ele>1039.3</ele>
        <time>2021-08-21T16:28:13.000Z</time>
      </trkpt>
      <trkpt lat="43.81863" lon="7.06862">
        <ele>1040.8</ele>
        <time>2021-08-21T16:28:23.000Z</time>
      </trkpt>
      <trkpt lat="43.81865" lon="7.06857">
        <ele>1041.7</ele>
        <time>2021-08-21T16:28:30.000Z</time>
      </trkpt>
      <trkpt lat="43.81869" lon="7.0685">
        <ele>1042.9</ele>
        <time>2021-08-21T16:28:40.000Z</time>
      </trkpt>
      <trkpt lat="43.81873" lon="7.06843">
        <ele>1044</ele>
        <time>2021-08-21T16:28:49.000Z</time>
      </trkpt>
      <trkpt lat="43.81875" lon="7.06841">
        <ele>1044.5</ele>
        <time>2021-08-21T16:28:51.000Z</time>
      </trkpt>
      <trkpt lat="43.8188" lon="7.06834">
        <ele>1045.8</ele>
        <time>2021-08-21T16:28:59.000Z</time>
      </trkpt>
      <trkpt lat="43.81881" lon="7.0683">
        <ele>1046.4</ele>
        <time>2021-08-21T16:29:03.000Z</time>
      </trkpt>
      <trkpt lat="43.81882" lon="7.06822">
        <ele>1047.2</ele>
        <time>2021-08-21T16:29:12.000Z</time>
      </trkpt>
      <trkpt lat="43.81883" lon="7.06812">
        <ele>1048.5</ele>
        <time>2021-08-21T16:29:23.000Z</time>
      </trkpt>
      <trkpt lat="43.81884" lon="7.06804">
        <ele>1049.2</ele>
        <time>2021-08-21T16:29:32.000Z</time>
      </trkpt>
      <trkpt lat="43.81887" lon="7.06794">
        <ele>1050.8</ele>
        <time>2021-08-21T16:29:43.000Z</time>
      </trkpt>
      <trkpt lat="43.81888" lon="7.06783">
        <ele>1051.9</ele>
        <time>2021-08-21T16:29:54.000Z</time>
      </trkpt>
      <trkpt lat="43.81889" lon="7.06775">
        <ele>1052.7</ele>
        <time>2021-08-21T16:30:03.000Z</time>
      </trkpt>
      <trkpt lat="43.8189" lon="7.06768">
        <ele>1053.4</ele>
        <time>2021-08-21T16:30:11.000Z</time>
      </trkpt>
      <trkpt lat="43.81892" lon="7.06756">
        <ele>1054.6</ele>
        <time>2021-08-21T16:30:23.000Z</time>
      </trkpt>
      <trkpt lat="43.81894" lon="7.06744">
        <ele>1055.7</ele>
        <time>2021-08-21T16:30:35.000Z</time>
      </trkpt>
      <trkpt lat="43.81895" lon="7.06735">
        <ele>1056.8</ele>
        <time>2021-08-21T16:30:44.000Z</time>
      </trkpt>
      <trkpt lat="43.81898" lon="7.06726">
        <ele>1058</ele>
        <time>2021-08-21T16:30:54.000Z</time>
      </trkpt>
      <trkpt lat="43.819" lon="7.06716">
        <ele>1059.1</ele>
        <time>2021-08-21T16:31:04.000Z</time>
      </trkpt>
      <trkpt lat="43.81903" lon="7.06708">
        <ele>1060.3</ele>
        <time>2021-08-21T16:31:12.000Z</time>
      </trkpt>
      <trkpt lat="43.81905" lon="7.06699">
        <ele>1061.3</ele>
        <time>2021-08-21T16:31:22.000Z</time>
      </trkpt>
      <trkpt lat="43.81907" lon="7.06691">
        <ele>1062</ele>
        <time>2021-08-21T16:31:30.000Z</time>
      </trkpt>
      <trkpt lat="43.81908" lon="7.06685">
        <ele>1062.6</ele>
        <time>2021-08-21T16:31:38.000Z</time>
      </trkpt>
      <trkpt lat="43.81909" lon="7.06676">
        <ele>1063.2</ele>
        <time>2021-08-21T16:31:46.000Z</time>
      </trkpt>
      <trkpt lat="43.81911" lon="7.06669">
        <ele>1063.8</ele>
        <time>2021-08-21T16:31:55.000Z</time>
      </trkpt>
      <trkpt lat="43.81912" lon="7.0666">
        <ele>1064.6</ele>
        <time>2021-08-21T16:32:04.000Z</time>
      </trkpt>
      <trkpt lat="43.81913" lon="7.06653">
        <ele>1065.2</ele>
        <time>2021-08-21T16:32:12.000Z</time>
      </trkpt>
      <trkpt lat="43.81914" lon="7.06645">
        <ele>1066</ele>
        <time>2021-08-21T16:32:21.000Z</time>
      </trkpt>
      <trkpt lat="43.81917" lon="7.06636">
        <ele>1067.3</ele>
        <time>2021-08-21T16:32:31.000Z</time>
      </trkpt>
      <trkpt lat="43.8192" lon="7.06627">
        <ele>1069</ele>
        <time>2021-08-21T16:32:40.000Z</time>
      </trkpt>
      <trkpt lat="43.81922" lon="7.06619">
        <ele>1070.6</ele>
        <time>2021-08-21T16:32:48.000Z</time>
      </trkpt>
      <trkpt lat="43.81924" lon="7.06612">
        <ele>1071.8</ele>
        <time>2021-08-21T16:32:55.000Z</time>
      </trkpt>
      <trkpt lat="43.81925" lon="7.06605">
        <ele>1073</ele>
        <time>2021-08-21T16:33:03.000Z</time>
      </trkpt>
      <trkpt lat="43.81927" lon="7.06596">
        <ele>1074.4</ele>
        <time>2021-08-21T16:33:13.000Z</time>
      </trkpt>
      <trkpt lat="43.81929" lon="7.06588">
        <ele>1075.8</ele>
        <time>2021-08-21T16:33:22.000Z</time>
      </trkpt>
      <trkpt lat="43.8193" lon="7.0658">
        <ele>1077</ele>
        <time>2021-08-21T16:33:30.000Z</time>
      </trkpt>
      <trkpt lat="43.81932" lon="7.06571">
        <ele>1078.3</ele>
        <time>2021-08-21T16:33:39.000Z</time>
      </trkpt>
      <trkpt lat="43.81934" lon="7.06564">
        <ele>1079.6</ele>
        <time>2021-08-21T16:33:47.000Z</time>
      </trkpt>
      <trkpt lat="43.81935" lon="7.06562">
        <ele>1080.1</ele>
        <time>2021-08-21T16:33:53.000Z</time>
      </trkpt>
      <trkpt lat="43.81936" lon="7.06555">
        <ele>1081.1</ele>
        <time>2021-08-21T16:34:01.000Z</time>
      </trkpt>
      <trkpt lat="43.81937" lon="7.06548">
        <ele>1082.3</ele>
        <time>2021-08-21T16:34:10.000Z</time>
      </trkpt>
      <trkpt lat="43.81938" lon="7.06543">
        <ele>1082.9</ele>
        <time>2021-08-21T16:34:17.000Z</time>
      </trkpt>
      <trkpt lat="43.8194" lon="7.06534">
        <ele>1084.2</ele>
        <time>2021-08-21T16:34:27.000Z</time>
      </trkpt>
      <trkpt lat="43.81941" lon="7.06528">
        <ele>1085.3</ele>
        <time>2021-08-21T16:34:36.000Z</time>
      </trkpt>
      <trkpt lat="43.81943" lon="7.0652">
        <ele>1086.4</ele>
        <time>2021-08-21T16:34:46.000Z</time>
      </trkpt>
      <trkpt lat="43.81944" lon="7.06514">
        <ele>1087.3</ele>
        <time>2021-08-21T16:34:54.000Z</time>
      </trkpt>
      <trkpt lat="43.81945" lon="7.06506">
        <ele>1088.4</ele>
        <time>2021-08-21T16:35:03.000Z</time>
      </trkpt>
      <trkpt lat="43.81946" lon="7.065">
        <ele>1089.2</ele>
        <time>2021-08-21T16:35:10.000Z</time>
      </trkpt>
      <trkpt lat="43.81947" lon="7.06495">
        <ele>1089.8</ele>
        <time>2021-08-21T16:35:16.000Z</time>
      </trkpt>
      <trkpt lat="43.81948" lon="7.06489">
        <ele>1091</ele>
        <time>2021-08-21T16:35:23.000Z</time>
      </trkpt>
      <trkpt lat="43.8195" lon="7.06482">
        <ele>1092.3</ele>
        <time>2021-08-21T16:35:31.000Z</time>
      </trkpt>
      <trkpt lat="43.81951" lon="7.06477">
        <ele>1093</ele>
        <time>2021-08-21T16:35:36.000Z</time>
      </trkpt>
      <trkpt lat="43.81953" lon="7.0647">
        <ele>1094.4</ele>
        <time>2021-08-21T16:35:43.000Z</time>
      </trkpt>
      <trkpt lat="43.81954" lon="7.06464">
        <ele>1095.5</ele>
        <time>2021-08-21T16:35:50.000Z</time>
      </trkpt>
      <trkpt lat="43.81957" lon="7.06459">
        <ele>1097.1</ele>
        <time>2021-08-21T16:35:55.000Z</time>
      </trkpt>
      <trkpt lat="43.81958" lon="7.0645">
        <ele>1098.4</ele>
        <time>2021-08-21T16:36:03.000Z</time>
      </trkpt>
      <trkpt lat="43.81958" lon="7.06449">
        <ele>1098.5</ele>
        <time>2021-08-21T16:36:04.000Z</time>
      </trkpt>
      <trkpt lat="43.81958" lon="7.06443">
        <ele>1099</ele>
        <time>2021-08-21T16:36:11.000Z</time>
      </trkpt>
      <trkpt lat="43.8196" lon="7.0644">
        <ele>1099.8</ele>
        <time>2021-08-21T16:36:18.000Z</time>
      </trkpt>
      <trkpt lat="43.81962" lon="7.06431">
        <ele>1101.2</ele>
        <time>2021-08-21T16:36:27.000Z</time>
      </trkpt>
      <trkpt lat="43.81963" lon="7.06429">
        <ele>1101.8</ele>
        <time>2021-08-21T16:36:29.000Z</time>
      </trkpt>
      <trkpt lat="43.81964" lon="7.06427">
        <ele>1102.6</ele>
        <time>2021-08-21T16:36:33.000Z</time>
      </trkpt>
      <trkpt lat="43.81963" lon="7.06422">
        <ele>1102.3</ele>
        <time>2021-08-21T16:36:36.000Z</time>
      </trkpt>
      <trkpt lat="43.81962" lon="7.06417">
        <ele>1102.5</ele>
        <time>2021-08-21T16:36:42.000Z</time>
      </trkpt>
      <trkpt lat="43.81962" lon="7.06409">
        <ele>1103.1</ele>
        <time>2021-08-21T16:36:51.000Z</time>
      </trkpt>
      <trkpt lat="43.81962" lon="7.06404">
        <ele>1103.6</ele>
        <time>2021-08-21T16:36:56.000Z</time>
      </trkpt>
      <trkpt lat="43.81962" lon="7.06401">
        <ele>1104</ele>
        <time>2021-08-21T16:36:59.000Z</time>
      </trkpt>
      <trkpt lat="43.81962" lon="7.06398">
        <ele>1104.1</ele>
        <time>2021-08-21T16:37:02.000Z</time>
      </trkpt>
      <trkpt lat="43.81962" lon="7.06395">
        <ele>1104.6</ele>
        <time>2021-08-21T16:37:05.000Z</time>
      </trkpt>
      <trkpt lat="43.81961" lon="7.06393">
        <ele>1104.5</ele>
        <time>2021-08-21T16:37:07.000Z</time>
      </trkpt>
      <trkpt lat="43.81959" lon="7.06386">
        <ele>1104.4</ele>
        <time>2021-08-21T16:37:13.000Z</time>
      </trkpt>
      <trkpt lat="43.81959" lon="7.06385">
        <ele>1104.3</ele>
        <time>2021-08-21T16:37:14.000Z</time>
      </trkpt>
      <trkpt lat="43.81958" lon="7.06382">
        <ele>1104.5</ele>
        <time>2021-08-21T16:37:16.000Z</time>
      </trkpt>
      <trkpt lat="43.81958" lon="7.06377">
        <ele>1105</ele>
        <time>2021-08-21T16:37:21.000Z</time>
      </trkpt>
      <trkpt lat="43.81956" lon="7.06372">
        <ele>1104.7</ele>
        <time>2021-08-21T16:37:29.000Z</time>
      </trkpt>
      <trkpt lat="43.81955" lon="7.06366">
        <ele>1105.1</ele>
        <time>2021-08-21T16:37:36.000Z</time>
      </trkpt>
      <trkpt lat="43.81954" lon="7.06358">
        <ele>1105.6</ele>
        <time>2021-08-21T16:37:44.000Z</time>
      </trkpt>
      <trkpt lat="43.81953" lon="7.06355">
        <ele>1105.5</ele>
        <time>2021-08-21T16:37:49.000Z</time>
      </trkpt>
      <trkpt lat="43.81954" lon="7.06345">
        <ele>1106.9</ele>
        <time>2021-08-21T16:38:02.000Z</time>
      </trkpt>
      <trkpt lat="43.81954" lon="7.06342">
        <ele>1107.2</ele>
        <time>2021-08-21T16:38:07.000Z</time>
      </trkpt>
      <trkpt lat="43.81953" lon="7.06334">
        <ele>1107.7</ele>
        <time>2021-08-21T16:38:13.000Z</time>
      </trkpt>
      <trkpt lat="43.81952" lon="7.06325">
        <ele>1108.4</ele>
        <time>2021-08-21T16:38:21.000Z</time>
      </trkpt>
      <trkpt lat="43.81949" lon="7.06317">
        <ele>1108.2</ele>
        <time>2021-08-21T16:38:28.000Z</time>
      </trkpt>
      <trkpt lat="43.81949" lon="7.06314">
        <ele>1108.4</ele>
        <time>2021-08-21T16:38:30.000Z</time>
      </trkpt>
      <trkpt lat="43.8195" lon="7.06306">
        <ele>1109.7</ele>
        <time>2021-08-21T16:38:38.000Z</time>
      </trkpt>
      <trkpt lat="43.81951" lon="7.06293">
        <ele>1111.3</ele>
        <time>2021-08-21T16:38:48.000Z</time>
      </trkpt>
      <trkpt lat="43.81951" lon="7.06291">
        <ele>1111.6</ele>
        <time>2021-08-21T16:38:49.000Z</time>
      </trkpt>
      <trkpt lat="43.81951" lon="7.06285">
        <ele>1112</ele>
        <time>2021-08-21T16:38:54.000Z</time>
      </trkpt>
      <trkpt lat="43.8195" lon="7.0628">
        <ele>1112.3</ele>
        <time>2021-08-21T16:38:58.000Z</time>
      </trkpt>
      <trkpt lat="43.81948" lon="7.06275">
        <ele>1112.3</ele>
        <time>2021-08-21T16:39:04.000Z</time>
      </trkpt>
      <trkpt lat="43.81948" lon="7.06271">
        <ele>1112.7</ele>
        <time>2021-08-21T16:39:07.000Z</time>
      </trkpt>
      <trkpt lat="43.81948" lon="7.06264">
        <ele>1113.3</ele>
        <time>2021-08-21T16:39:14.000Z</time>
      </trkpt>
      <trkpt lat="43.81948" lon="7.06256">
        <ele>1114.1</ele>
        <time>2021-08-21T16:39:21.000Z</time>
      </trkpt>
      <trkpt lat="43.81947" lon="7.06251">
        <ele>1114.5</ele>
        <time>2021-08-21T16:39:27.000Z</time>
      </trkpt>
      <trkpt lat="43.81947" lon="7.06245">
        <ele>1114.9</ele>
        <time>2021-08-21T16:39:32.000Z</time>
      </trkpt>
      <trkpt lat="43.81947" lon="7.06241">
        <ele>1115.3</ele>
        <time>2021-08-21T16:39:36.000Z</time>
      </trkpt>
      <trkpt lat="43.81948" lon="7.06235">
        <ele>1116</ele>
        <time>2021-08-21T16:39:41.000Z</time>
      </trkpt>
      <trkpt lat="43.81948" lon="7.06232">
        <ele>1116.2</ele>
        <time>2021-08-21T16:39:44.000Z</time>
      </trkpt>
      <trkpt lat="43.81948" lon="7.06227">
        <ele>1116.7</ele>
        <time>2021-08-21T16:39:51.000Z</time>
      </trkpt>
      <trkpt lat="43.81946" lon="7.06221">
        <ele>1116.6</ele>
        <time>2021-08-21T16:40:31.000Z</time>
      </trkpt>
      <trkpt lat="43.81949" lon="7.06217">
        <ele>1117.8</ele>
        <time>2021-08-21T16:40:37.000Z</time>
      </trkpt>
      <trkpt lat="43.81953" lon="7.06216">
        <ele>1118.8</ele>
        <time>2021-08-21T16:40:42.000Z</time>
      </trkpt>
      <trkpt lat="43.81954" lon="7.06213">
        <ele>1119.4</ele>
        <time>2021-08-21T16:40:46.000Z</time>
      </trkpt>
      <trkpt lat="43.81956" lon="7.06209">
        <ele>1120.3</ele>
        <time>2021-08-21T16:40:52.000Z</time>
      </trkpt>
      <trkpt lat="43.81957" lon="7.06202">
        <ele>1121.1</ele>
        <time>2021-08-21T16:41:00.000Z</time>
      </trkpt>
      <trkpt lat="43.81958" lon="7.06196">
        <ele>1121.8</ele>
        <time>2021-08-21T16:41:05.000Z</time>
      </trkpt>
      <trkpt lat="43.81957" lon="7.06191">
        <ele>1121.8</ele>
        <time>2021-08-21T16:41:09.000Z</time>
      </trkpt>
      <trkpt lat="43.81955" lon="7.06186">
        <ele>1121.7</ele>
        <time>2021-08-21T16:41:14.000Z</time>
      </trkpt>
      <trkpt lat="43.81953" lon="7.0618">
        <ele>1121.6</ele>
        <time>2021-08-21T16:41:20.000Z</time>
      </trkpt>
      <trkpt lat="43.81955" lon="7.0617">
        <ele>1123</ele>
        <time>2021-08-21T16:41:28.000Z</time>
      </trkpt>
      <trkpt lat="43.81957" lon="7.06165">
        <ele>1123.8</ele>
        <time>2021-08-21T16:41:32.000Z</time>
      </trkpt>
      <trkpt lat="43.81958" lon="7.06159">
        <ele>1124.5</ele>
        <time>2021-08-21T16:41:36.000Z</time>
      </trkpt>
      <trkpt lat="43.8196" lon="7.06152">
        <ele>1125.5</ele>
        <time>2021-08-21T16:41:41.000Z</time>
      </trkpt>
      <trkpt lat="43.81963" lon="7.06144">
        <ele>1126.7</ele>
        <time>2021-08-21T16:41:46.000Z</time>
      </trkpt>
      <trkpt lat="43.81962" lon="7.06141">
        <ele>1126.8</ele>
        <time>2021-08-21T16:41:48.000Z</time>
      </trkpt>
      <trkpt lat="43.81965" lon="7.06134">
        <ele>1127.8</ele>
        <time>2021-08-21T16:41:54.000Z</time>
      </trkpt>
      <trkpt lat="43.81965" lon="7.06132">
        <ele>1128</ele>
        <time>2021-08-21T16:41:56.000Z</time>
      </trkpt>
      <trkpt lat="43.81966" lon="7.06123">
        <ele>1129</ele>
        <time>2021-08-21T16:42:02.000Z</time>
      </trkpt>
      <trkpt lat="43.81965" lon="7.06115">
        <ele>1129.3</ele>
        <time>2021-08-21T16:42:07.000Z</time>
      </trkpt>
      <trkpt lat="43.81964" lon="7.06111">
        <ele>1129.1</ele>
        <time>2021-08-21T16:42:11.000Z</time>
      </trkpt>
      <trkpt lat="43.81965" lon="7.06104">
        <ele>1129.9</ele>
        <time>2021-08-21T16:42:17.000Z</time>
      </trkpt>
      <trkpt lat="43.81965" lon="7.06101">
        <ele>1130</ele>
        <time>2021-08-21T16:42:19.000Z</time>
      </trkpt>
      <trkpt lat="43.81964" lon="7.06096">
        <ele>1130.3</ele>
        <time>2021-08-21T16:42:24.000Z</time>
      </trkpt>
      <trkpt lat="43.81965" lon="7.06094">
        <ele>1130.5</ele>
        <time>2021-08-21T16:42:26.000Z</time>
      </trkpt>
      <trkpt lat="43.81965" lon="7.06088">
        <ele>1131</ele>
        <time>2021-08-21T16:42:31.000Z</time>
      </trkpt>
      <trkpt lat="43.81965" lon="7.0608">
        <ele>1131.8</ele>
        <time>2021-08-21T16:42:38.000Z</time>
      </trkpt>
      <trkpt lat="43.81965" lon="7.06072">
        <ele>1132.6</ele>
        <time>2021-08-21T16:42:44.000Z</time>
      </trkpt>
      <trkpt lat="43.81964" lon="7.06064">
        <ele>1133</ele>
        <time>2021-08-21T16:42:52.000Z</time>
      </trkpt>
      <trkpt lat="43.81964" lon="7.06063">
        <ele>1133.1</ele>
        <time>2021-08-21T16:42:53.000Z</time>
      </trkpt>
      <trkpt lat="43.81964" lon="7.06048">
        <ele>1134.8</ele>
        <time>2021-08-21T16:43:04.000Z</time>
      </trkpt>
      <trkpt lat="43.81965" lon="7.06034">
        <ele>1136.4</ele>
        <time>2021-08-21T16:43:14.000Z</time>
      </trkpt>
      <trkpt lat="43.81965" lon="7.06022">
        <ele>1137.7</ele>
        <time>2021-08-21T16:43:25.000Z</time>
      </trkpt>
      <trkpt lat="43.81964" lon="7.06011">
        <ele>1138.4</ele>
        <time>2021-08-21T16:43:33.000Z</time>
      </trkpt>
      <trkpt lat="43.81963" lon="7.06007">
        <ele>1138.7</ele>
        <time>2021-08-21T16:43:36.000Z</time>
      </trkpt>
      <trkpt lat="43.81963" lon="7.05999">
        <ele>1139.5</ele>
        <time>2021-08-21T16:43:44.000Z</time>
      </trkpt>
      <trkpt lat="43.81962" lon="7.05988">
        <ele>1140.2</ele>
        <time>2021-08-21T16:43:54.000Z</time>
      </trkpt>
      <trkpt lat="43.81961" lon="7.05985">
        <ele>1140.2</ele>
        <time>2021-08-21T16:43:56.000Z</time>
      </trkpt>
      <trkpt lat="43.81959" lon="7.05978">
        <ele>1140.5</ele>
        <time>2021-08-21T16:44:04.000Z</time>
      </trkpt>
      <trkpt lat="43.81959" lon="7.05973">
        <ele>1140.8</ele>
        <time>2021-08-21T16:44:08.000Z</time>
      </trkpt>
      <trkpt lat="43.81957" lon="7.05966">
        <ele>1141</ele>
        <time>2021-08-21T16:44:17.000Z</time>
      </trkpt>
      <trkpt lat="43.81954" lon="7.05955">
        <ele>1141.6</ele>
        <time>2021-08-21T16:44:26.000Z</time>
      </trkpt>
      <trkpt lat="43.81953" lon="7.05944">
        <ele>1142.5</ele>
        <time>2021-08-21T16:44:34.000Z</time>
      </trkpt>
      <trkpt lat="43.81954" lon="7.05942">
        <ele>1143</ele>
        <time>2021-08-21T16:44:36.000Z</time>
      </trkpt>
      <trkpt lat="43.81957" lon="7.05932">
        <ele>1144.7</ele>
        <time>2021-08-21T16:44:43.000Z</time>
      </trkpt>
      <trkpt lat="43.81956" lon="7.05918">
        <ele>1145.9</ele>
        <time>2021-08-21T16:44:51.000Z</time>
      </trkpt>
      <trkpt lat="43.81957" lon="7.05911">
        <ele>1146.4</ele>
        <time>2021-08-21T16:44:56.000Z</time>
      </trkpt>
      <trkpt lat="43.81957" lon="7.05906">
        <ele>1146.6</ele>
        <time>2021-08-21T16:45:00.000Z</time>
      </trkpt>
      <trkpt lat="43.81958" lon="7.05903">
        <ele>1147</ele>
        <time>2021-08-21T16:45:03.000Z</time>
      </trkpt>
      <trkpt lat="43.8196" lon="7.05894">
        <ele>1147.6</ele>
        <time>2021-08-21T16:45:09.000Z</time>
      </trkpt>
      <trkpt lat="43.81961" lon="7.05892">
        <ele>1147.9</ele>
        <time>2021-08-21T16:45:11.000Z</time>
      </trkpt>
      <trkpt lat="43.81963" lon="7.05877">
        <ele>1148.7</ele>
        <time>2021-08-21T16:45:20.000Z</time>
      </trkpt>
      <trkpt lat="43.81966" lon="7.05864">
        <ele>1149.4</ele>
        <time>2021-08-21T16:45:29.000Z</time>
      </trkpt>
      <trkpt lat="43.8197" lon="7.0585">
        <ele>1150.2</ele>
        <time>2021-08-21T16:45:39.000Z</time>
      </trkpt>
      <trkpt lat="43.8197" lon="7.05848">
        <ele>1150.3</ele>
        <time>2021-08-21T16:45:41.000Z</time>
      </trkpt>
      <trkpt lat="43.81973" lon="7.05841">
        <ele>1150.6</ele>
        <time>2021-08-21T16:45:46.000Z</time>
      </trkpt>
      <trkpt lat="43.81977" lon="7.05835">
        <ele>1151.1</ele>
        <time>2021-08-21T16:45:52.000Z</time>
      </trkpt>
      <trkpt lat="43.81978" lon="7.05832">
        <ele>1151.2</ele>
        <time>2021-08-21T16:45:54.000Z</time>
      </trkpt>
      <trkpt lat="43.81983" lon="7.05821">
        <ele>1151.5</ele>
        <time>2021-08-21T16:46:03.000Z</time>
      </trkpt>
      <trkpt lat="43.81988" lon="7.05807">
        <ele>1151.7</ele>
        <time>2021-08-21T16:46:11.000Z</time>
      </trkpt>
      <trkpt lat="43.81991" lon="7.05799">
        <ele>1151.8</ele>
        <time>2021-08-21T16:46:18.000Z</time>
      </trkpt>
      <trkpt lat="43.81998" lon="7.05789">
        <ele>1151.9</ele>
        <time>2021-08-21T16:46:27.000Z</time>
      </trkpt>
      <trkpt lat="43.82001" lon="7.05778">
        <ele>1151.8</ele>
        <time>2021-08-21T16:46:35.000Z</time>
      </trkpt>
      <trkpt lat="43.82" lon="7.05768">
        <ele>1151.4</ele>
        <time>2021-08-21T16:46:42.000Z</time>
      </trkpt>
      <trkpt lat="43.82002" lon="7.05752">
        <ele>1151.3</ele>
        <time>2021-08-21T16:46:52.000Z</time>
      </trkpt>
      <trkpt lat="43.82002" lon="7.05752">
        <ele>1151.3</ele>
        <time>2021-08-21T16:46:52.000Z</time>
      </trkpt>
      <trkpt lat="43.82002" lon="7.05743">
        <ele>1151.5</ele>
        <time>2021-08-21T16:46:59.000Z</time>
      </trkpt>
      <trkpt lat="43.82003" lon="7.05741">
        <ele>1151.6</ele>
        <time>2021-08-21T16:47:01.000Z</time>
      </trkpt>
      <trkpt lat="43.82005" lon="7.05732">
        <ele>1152.2</ele>
        <time>2021-08-21T16:47:07.000Z</time>
      </trkpt>
      <trkpt lat="43.82006" lon="7.0573">
        <ele>1152.3</ele>
        <time>2021-08-21T16:47:08.000Z</time>
      </trkpt>
      <trkpt lat="43.82008" lon="7.05724">
        <ele>1152.7</ele>
        <time>2021-08-21T16:47:11.000Z</time>
      </trkpt>
      <trkpt lat="43.82008" lon="7.05723">
        <ele>1152.8</ele>
        <time>2021-08-21T16:47:13.000Z</time>
      </trkpt>
      <trkpt lat="43.8201" lon="7.05719">
        <ele>1153.1</ele>
        <time>2021-08-21T16:47:17.000Z</time>
      </trkpt>
      <trkpt lat="43.82006" lon="7.0571">
        <ele>1153</ele>
        <time>2021-08-21T16:47:24.000Z</time>
      </trkpt>
      <trkpt lat="43.82002" lon="7.05706">
        <ele>1152.8</ele>
        <time>2021-08-21T16:47:28.000Z</time>
      </trkpt>
      <trkpt lat="43.81997" lon="7.05699">
        <ele>1152.9</ele>
        <time>2021-08-21T16:47:33.000Z</time>
      </trkpt>
      <trkpt lat="43.81995" lon="7.05698">
        <ele>1152.9</ele>
        <time>2021-08-21T16:47:34.000Z</time>
      </trkpt>
      <trkpt lat="43.81993" lon="7.05693">
        <ele>1153.2</ele>
        <time>2021-08-21T16:47:41.000Z</time>
      </trkpt>
      <trkpt lat="43.81991" lon="7.05687">
        <ele>1153.4</ele>
        <time>2021-08-21T16:47:47.000Z</time>
      </trkpt>
      <trkpt lat="43.8199" lon="7.05684">
        <ele>1153.6</ele>
        <time>2021-08-21T16:47:49.000Z</time>
      </trkpt>
      <trkpt lat="43.81985" lon="7.05675">
        <ele>1154</ele>
        <time>2021-08-21T16:47:57.000Z</time>
      </trkpt>
      <trkpt lat="43.81978" lon="7.05664">
        <ele>1154.7</ele>
        <time>2021-08-21T16:48:05.000Z</time>
      </trkpt>
      <trkpt lat="43.81976" lon="7.05658">
        <ele>1155.4</ele>
        <time>2021-08-21T16:48:10.000Z</time>
      </trkpt>
      <trkpt lat="43.81965" lon="7.05647">
        <ele>1156.5</ele>
        <time>2021-08-21T16:48:20.000Z</time>
      </trkpt>
      <trkpt lat="43.81961" lon="7.05642">
        <ele>1156.9</ele>
        <time>2021-08-21T16:48:24.000Z</time>
      </trkpt>
      <trkpt lat="43.81957" lon="7.05637">
        <ele>1157.3</ele>
        <time>2021-08-21T16:48:29.000Z</time>
      </trkpt>
      <trkpt lat="43.81955" lon="7.05634">
        <ele>1157.6</ele>
        <time>2021-08-21T16:48:34.000Z</time>
      </trkpt>
      <trkpt lat="43.81951" lon="7.05633">
        <ele>1157.6</ele>
        <time>2021-08-21T16:48:36.000Z</time>
      </trkpt>
      <trkpt lat="43.81945" lon="7.0563">
        <ele>1157.9</ele>
        <time>2021-08-21T16:48:41.000Z</time>
      </trkpt>
      <trkpt lat="43.81942" lon="7.05626">
        <ele>1158.1</ele>
        <time>2021-08-21T16:48:45.000Z</time>
      </trkpt>
      <trkpt lat="43.81937" lon="7.05619">
        <ele>1158.5</ele>
        <time>2021-08-21T16:48:54.000Z</time>
      </trkpt>
      <trkpt lat="43.81934" lon="7.05616">
        <ele>1158.7</ele>
        <time>2021-08-21T16:48:59.000Z</time>
      </trkpt>
      <trkpt lat="43.81928" lon="7.05607">
        <ele>1159.1</ele>
        <time>2021-08-21T16:49:09.000Z</time>
      </trkpt>
      <trkpt lat="43.81923" lon="7.05598">
        <ele>1159.4</ele>
        <time>2021-08-21T16:49:18.000Z</time>
      </trkpt>
      <trkpt lat="43.81921" lon="7.05595">
        <ele>1159.6</ele>
        <time>2021-08-21T16:49:22.000Z</time>
      </trkpt>
      <trkpt lat="43.81917" lon="7.0559">
        <ele>1159.7</ele>
        <time>2021-08-21T16:49:27.000Z</time>
      </trkpt>
      <trkpt lat="43.81909" lon="7.05582">
        <ele>1160.1</ele>
        <time>2021-08-21T16:49:36.000Z</time>
      </trkpt>
      <trkpt lat="43.81907" lon="7.0558">
        <ele>1160.2</ele>
        <time>2021-08-21T16:49:39.000Z</time>
      </trkpt>
      <trkpt lat="43.81899" lon="7.05573">
        <ele>1160.6</ele>
        <time>2021-08-21T16:49:49.000Z</time>
      </trkpt>
      <trkpt lat="43.81892" lon="7.05566">
        <ele>1161</ele>
        <time>2021-08-21T16:49:58.000Z</time>
      </trkpt>
      <trkpt lat="43.81884" lon="7.0556">
        <ele>1161.3</ele>
        <time>2021-08-21T16:50:05.000Z</time>
      </trkpt>
      <trkpt lat="43.81878" lon="7.05553">
        <ele>1161.7</ele>
        <time>2021-08-21T16:50:12.000Z</time>
      </trkpt>
      <trkpt lat="43.81874" lon="7.05546">
        <ele>1162.1</ele>
        <time>2021-08-21T16:50:19.000Z</time>
      </trkpt>
      <trkpt lat="43.81869" lon="7.05538">
        <ele>1162.5</ele>
        <time>2021-08-21T16:50:26.000Z</time>
      </trkpt>
      <trkpt lat="43.81863" lon="7.05526">
        <ele>1163.1</ele>
        <time>2021-08-21T16:50:36.000Z</time>
      </trkpt>
      <trkpt lat="43.81861" lon="7.05521">
        <ele>1163.4</ele>
        <time>2021-08-21T16:50:40.000Z</time>
      </trkpt>
      <trkpt lat="43.81857" lon="7.05515">
        <ele>1163.8</ele>
        <time>2021-08-21T16:50:48.000Z</time>
      </trkpt>
      <trkpt lat="43.81854" lon="7.05512">
        <ele>1164</ele>
        <time>2021-08-21T16:50:52.000Z</time>
      </trkpt>
      <trkpt lat="43.81852" lon="7.05509">
        <ele>1164.2</ele>
        <time>2021-08-21T16:50:54.000Z</time>
      </trkpt>
      <trkpt lat="43.81846" lon="7.05502">
        <ele>1164.6</ele>
        <time>2021-08-21T16:51:01.000Z</time>
      </trkpt>
      <trkpt lat="43.81845" lon="7.05501">
        <ele>1164.7</ele>
        <time>2021-08-21T16:51:02.000Z</time>
      </trkpt>
      <trkpt lat="43.81838" lon="7.05496">
        <ele>1165.2</ele>
        <time>2021-08-21T16:51:09.000Z</time>
      </trkpt>
      <trkpt lat="43.81834" lon="7.05492">
        <ele>1165.6</ele>
        <time>2021-08-21T16:51:15.000Z</time>
      </trkpt>
      <trkpt lat="43.81832" lon="7.0549">
        <ele>1165.9</ele>
        <time>2021-08-21T16:51:18.000Z</time>
      </trkpt>
      <trkpt lat="43.81829" lon="7.05487">
        <ele>1166.4</ele>
        <time>2021-08-21T16:51:22.000Z</time>
      </trkpt>
      <trkpt lat="43.81828" lon="7.05485">
        <ele>1166.6</ele>
        <time>2021-08-21T16:51:25.000Z</time>
      </trkpt>
      <trkpt lat="43.81825" lon="7.05479">
        <ele>1167.3</ele>
        <time>2021-08-21T16:51:32.000Z</time>
      </trkpt>
      <trkpt lat="43.81823" lon="7.05474">
        <ele>1167.8</ele>
        <time>2021-08-21T16:51:36.000Z</time>
      </trkpt>
      <trkpt lat="43.8182" lon="7.0547">
        <ele>1168.3</ele>
        <time>2021-08-21T16:51:41.000Z</time>
      </trkpt>
      <trkpt lat="43.8182" lon="7.05466">
        <ele>1168.6</ele>
        <time>2021-08-21T16:51:46.000Z</time>
      </trkpt>
      <trkpt lat="43.81817" lon="7.0546">
        <ele>1169.3</ele>
        <time>2021-08-21T16:51:52.000Z</time>
      </trkpt>
      <trkpt lat="43.81816" lon="7.05458">
        <ele>1169.5</ele>
        <time>2021-08-21T16:51:54.000Z</time>
      </trkpt>
      <trkpt lat="43.81811" lon="7.05457">
        <ele>1169.8</ele>
        <time>2021-08-21T16:52:00.000Z</time>
      </trkpt>
      <trkpt lat="43.81809" lon="7.05457">
        <ele>1170</ele>
        <time>2021-08-21T16:52:03.000Z</time>
      </trkpt>
      <trkpt lat="43.81807" lon="7.05456">
        <ele>1170.1</ele>
        <time>2021-08-21T16:52:06.000Z</time>
      </trkpt>
      <trkpt lat="43.818" lon="7.05456">
        <ele>1170.5</ele>
        <time>2021-08-21T16:52:13.000Z</time>
      </trkpt>
      <trkpt lat="43.81796" lon="7.05455">
        <ele>1170.7</ele>
        <time>2021-08-21T16:52:17.000Z</time>
      </trkpt>
      <trkpt lat="43.8179" lon="7.05449">
        <ele>1171.5</ele>
        <time>2021-08-21T16:52:26.000Z</time>
      </trkpt>
      <trkpt lat="43.81784" lon="7.05446">
        <ele>1171.9</ele>
        <time>2021-08-21T16:52:32.000Z</time>
      </trkpt>
      <trkpt lat="43.81777" lon="7.05446">
        <ele>1172.3</ele>
        <time>2021-08-21T16:52:39.000Z</time>
      </trkpt>
      <trkpt lat="43.8177" lon="7.0544">
        <ele>1172.9</ele>
        <time>2021-08-21T16:52:47.000Z</time>
      </trkpt>
      <trkpt lat="43.81765" lon="7.05431">
        <ele>1173.7</ele>
        <time>2021-08-21T16:52:54.000Z</time>
      </trkpt>
      <trkpt lat="43.81762" lon="7.05429">
        <ele>1173.9</ele>
        <time>2021-08-21T16:52:58.000Z</time>
      </trkpt>
      <trkpt lat="43.81753" lon="7.05428">
        <ele>1174.3</ele>
        <time>2021-08-21T16:53:07.000Z</time>
      </trkpt>
      <trkpt lat="43.81751" lon="7.05429">
        <ele>1174.4</ele>
        <time>2021-08-21T16:53:09.000Z</time>
      </trkpt>
      <trkpt lat="43.81749" lon="7.05429">
        <ele>1174.4</ele>
        <time>2021-08-21T16:53:11.000Z</time>
      </trkpt>
      <trkpt lat="43.81744" lon="7.05429">
        <ele>1174.5</ele>
        <time>2021-08-21T16:53:16.000Z</time>
      </trkpt>
      <trkpt lat="43.81738" lon="7.05428">
        <ele>1174.6</ele>
        <time>2021-08-21T16:53:21.000Z</time>
      </trkpt>
      <trkpt lat="43.8173" lon="7.05428">
        <ele>1174.6</ele>
        <time>2021-08-21T16:53:27.000Z</time>
      </trkpt>
      <trkpt lat="43.81724" lon="7.05428">
        <ele>1174.7</ele>
        <time>2021-08-21T16:53:31.000Z</time>
      </trkpt>
      <trkpt lat="43.81717" lon="7.0543">
        <ele>1174.6</ele>
        <time>2021-08-21T16:53:38.000Z</time>
      </trkpt>
      <trkpt lat="43.81711" lon="7.05434">
        <ele>1174.4</ele>
        <time>2021-08-21T16:53:44.000Z</time>
      </trkpt>
      <trkpt lat="43.81707" lon="7.05438">
        <ele>1174.2</ele>
        <time>2021-08-21T16:53:49.000Z</time>
      </trkpt>
      <trkpt lat="43.81706" lon="7.05439">
        <ele>1174.2</ele>
        <time>2021-08-21T16:53:50.000Z</time>
      </trkpt>
      <trkpt lat="43.817" lon="7.05446">
        <ele>1173.8</ele>
        <time>2021-08-21T16:53:57.000Z</time>
      </trkpt>
      <trkpt lat="43.81696" lon="7.05447">
        <ele>1173.7</ele>
        <time>2021-08-21T16:54:01.000Z</time>
      </trkpt>
      <trkpt lat="43.81691" lon="7.05448">
        <ele>1173.6</ele>
        <time>2021-08-21T16:54:05.000Z</time>
      </trkpt>
      <trkpt lat="43.81683" lon="7.05448">
        <ele>1173.7</ele>
        <time>2021-08-21T16:54:13.000Z</time>
      </trkpt>
      <trkpt lat="43.81678" lon="7.05444">
        <ele>1174</ele>
        <time>2021-08-21T16:54:18.000Z</time>
      </trkpt>
      <trkpt lat="43.81678" lon="7.05443">
        <ele>1174</ele>
        <time>2021-08-21T16:54:20.000Z</time>
      </trkpt>
      <trkpt lat="43.81675" lon="7.05443">
        <ele>1174.1</ele>
        <time>2021-08-21T16:54:23.000Z</time>
      </trkpt>
      <trkpt lat="43.81671" lon="7.05438">
        <ele>1174.4</ele>
        <time>2021-08-21T16:54:29.000Z</time>
      </trkpt>
      <trkpt lat="43.81669" lon="7.05434">
        <ele>1174.8</ele>
        <time>2021-08-21T16:54:34.000Z</time>
      </trkpt>
      <trkpt lat="43.81668" lon="7.05432">
        <ele>1174.9</ele>
        <time>2021-08-21T16:54:35.000Z</time>
      </trkpt>
      <trkpt lat="43.81667" lon="7.05423">
        <ele>1175.5</ele>
        <time>2021-08-21T16:54:43.000Z</time>
      </trkpt>
      <trkpt lat="43.81666" lon="7.05414">
        <ele>1176</ele>
        <time>2021-08-21T16:54:51.000Z</time>
      </trkpt>
      <trkpt lat="43.81666" lon="7.05412">
        <ele>1176.2</ele>
        <time>2021-08-21T16:54:53.000Z</time>
      </trkpt>
      <trkpt lat="43.81664" lon="7.05403">
        <ele>1176.5</ele>
        <time>2021-08-21T16:55:00.000Z</time>
      </trkpt>
      <trkpt lat="43.81662" lon="7.05395">
        <ele>1176.6</ele>
        <time>2021-08-21T16:55:06.000Z</time>
      </trkpt>
      <trkpt lat="43.81659" lon="7.05388">
        <ele>1176.7</ele>
        <time>2021-08-21T16:55:12.000Z</time>
      </trkpt>
      <trkpt lat="43.81656" lon="7.0538">
        <ele>1176.7</ele>
        <time>2021-08-21T16:55:19.000Z</time>
      </trkpt>
      <trkpt lat="43.81585" lon="7.05332">
        <ele>1167.3</ele>
        <time>2021-08-21T16:59:08.000Z</time>
      </trkpt>
      <trkpt lat="43.8158" lon="7.05327">
        <ele>1166.2</ele>
        <time>2021-08-21T16:59:14.000Z</time>
      </trkpt>
      <trkpt lat="43.81575" lon="7.05326">
        <ele>1164.9</ele>
        <time>2021-08-21T16:59:19.000Z</time>
      </trkpt>
      <trkpt lat="43.81567" lon="7.05327">
        <ele>1162.7</ele>
        <time>2021-08-21T16:59:28.000Z</time>
      </trkpt>
      <trkpt lat="43.81612" lon="7.05327">
        <ele>1172.1</ele>
        <time>2021-08-21T17:00:41.000Z</time>
      </trkpt>
      <trkpt lat="43.81601" lon="7.0532">
        <ele>1170.6</ele>
        <time>2021-08-21T17:00:52.000Z</time>
      </trkpt>
      <trkpt lat="43.81596" lon="7.05311">
        <ele>1169.9</ele>
        <time>2021-08-21T17:00:59.000Z</time>
      </trkpt>
      <trkpt lat="43.81594" lon="7.05304">
        <ele>1169.8</ele>
        <time>2021-08-21T17:01:04.000Z</time>
      </trkpt>
      <trkpt lat="43.81591" lon="7.05294">
        <ele>1169.5</ele>
        <time>2021-08-21T17:01:11.000Z</time>
      </trkpt>
      <trkpt lat="43.81589" lon="7.0529">
        <ele>1169.3</ele>
        <time>2021-08-21T17:01:14.000Z</time>
      </trkpt>
      <trkpt lat="43.81589" lon="7.0528">
        <ele>1169.4</ele>
        <time>2021-08-21T17:01:21.000Z</time>
      </trkpt>
      <trkpt lat="43.81588" lon="7.05277">
        <ele>1169.3</ele>
        <time>2021-08-21T17:01:23.000Z</time>
      </trkpt>
      <trkpt lat="43.81588" lon="7.05266">
        <ele>1169.6</ele>
        <time>2021-08-21T17:01:32.000Z</time>
      </trkpt>
      <trkpt lat="43.81587" lon="7.05257">
        <ele>1169.8</ele>
        <time>2021-08-21T17:01:40.000Z</time>
      </trkpt>
      <trkpt lat="43.81582" lon="7.05253">
        <ele>1168.4</ele>
        <time>2021-08-21T17:01:47.000Z</time>
      </trkpt>
      <trkpt lat="43.81579" lon="7.05251">
        <ele>1167.5</ele>
        <time>2021-08-21T17:01:52.000Z</time>
      </trkpt>
      <trkpt lat="43.81575" lon="7.05243">
        <ele>1166.5</ele>
        <time>2021-08-21T17:01:58.000Z</time>
      </trkpt>
      <trkpt lat="43.81572" lon="7.05236">
        <ele>1165.8</ele>
        <time>2021-08-21T17:02:03.000Z</time>
      </trkpt>
      <trkpt lat="43.81569" lon="7.05229">
        <ele>1164.9</ele>
        <time>2021-08-21T17:02:09.000Z</time>
      </trkpt>
      <trkpt lat="43.81567" lon="7.05224">
        <ele>1164.7</ele>
        <time>2021-08-21T17:02:13.000Z</time>
      </trkpt>
      <trkpt lat="43.81562" lon="7.05218">
        <ele>1163.1</ele>
        <time>2021-08-21T17:02:21.000Z</time>
      </trkpt>
      <trkpt lat="43.8156" lon="7.05212">
        <ele>1162.3</ele>
        <time>2021-08-21T17:02:25.000Z</time>
      </trkpt>
      <trkpt lat="43.81558" lon="7.05199">
        <ele>1162.4</ele>
        <time>2021-08-21T17:02:33.000Z</time>
      </trkpt>
      <trkpt lat="43.81557" lon="7.05188">
        <ele>1162.9</ele>
        <time>2021-08-21T17:02:41.000Z</time>
      </trkpt>
      <trkpt lat="43.81555" lon="7.05181">
        <ele>1161.9</ele>
        <time>2021-08-21T17:02:47.000Z</time>
      </trkpt>
      <trkpt lat="43.8155" lon="7.05167">
        <ele>1160.6</ele>
        <time>2021-08-21T17:02:57.000Z</time>
      </trkpt>
      <trkpt lat="43.81548" lon="7.05158">
        <ele>1160.7</ele>
        <time>2021-08-21T17:03:05.000Z</time>
      </trkpt>
      <trkpt lat="43.81547" lon="7.05148">
        <ele>1161.1</ele>
        <time>2021-08-21T17:03:13.000Z</time>
      </trkpt>
      <trkpt lat="43.81546" lon="7.05146">
        <ele>1161.1</ele>
        <time>2021-08-21T17:03:14.000Z</time>
      </trkpt>
      <trkpt lat="43.81545" lon="7.05142">
        <ele>1161.2</ele>
        <time>2021-08-21T17:03:18.000Z</time>
      </trkpt>
      <trkpt lat="43.81545" lon="7.05136">
        <ele>1161.6</ele>
        <time>2021-08-21T17:03:26.000Z</time>
      </trkpt>
      <trkpt lat="43.81545" lon="7.05137">
        <ele>1161.5</ele>
        <time>2021-08-21T17:03:34.000Z</time>
      </trkpt>
      <trkpt lat="43.81545" lon="7.05137">
        <ele>1161.7</ele>
        <time>2021-08-21T17:04:01.000Z</time>
      </trkpt>
      <trkpt lat="43.81541" lon="7.05126">
        <ele>1161.2</ele>
        <time>2021-08-21T17:04:10.000Z</time>
      </trkpt>
      <trkpt lat="43.81538" lon="7.05115">
        <ele>1161</ele>
        <time>2021-08-21T17:04:18.000Z</time>
      </trkpt>
      <trkpt lat="43.81537" lon="7.05111">
        <ele>1161.1</ele>
        <time>2021-08-21T17:04:21.000Z</time>
      </trkpt>
      <trkpt lat="43.81529" lon="7.05033">
        <ele>1168.1</ele>
        <time>2021-08-21T17:06:52.000Z</time>
      </trkpt>
      <trkpt lat="43.81527" lon="7.0502">
        <ele>1169.3</ele>
        <time>2021-08-21T17:07:02.000Z</time>
      </trkpt>
      <trkpt lat="43.81527" lon="7.05011">
        <ele>1170.7</ele>
        <time>2021-08-21T17:07:10.000Z</time>
      </trkpt>
      <trkpt lat="43.81525" lon="7.05008">
        <ele>1170.3</ele>
        <time>2021-08-21T17:07:14.000Z</time>
      </trkpt>
      <trkpt lat="43.81524" lon="7.04998">
        <ele>1171.7</ele>
        <time>2021-08-21T17:07:23.000Z</time>
      </trkpt>
      <trkpt lat="43.81522" lon="7.0499">
        <ele>1172.1</ele>
        <time>2021-08-21T17:07:30.000Z</time>
      </trkpt>
      <trkpt lat="43.81522" lon="7.04985">
        <ele>1172.7</ele>
        <time>2021-08-21T17:07:34.000Z</time>
      </trkpt>
      <trkpt lat="43.81523" lon="7.04977">
        <ele>1174.4</ele>
        <time>2021-08-21T17:07:43.000Z</time>
      </trkpt>
      <trkpt lat="43.81522" lon="7.0497">
        <ele>1175.1</ele>
        <time>2021-08-21T17:07:49.000Z</time>
      </trkpt>
      <trkpt lat="43.81521" lon="7.04962">
        <ele>1176.1</ele>
        <time>2021-08-21T17:07:57.000Z</time>
      </trkpt>
      <trkpt lat="43.81519" lon="7.04957">
        <ele>1176.3</ele>
        <time>2021-08-21T17:08:05.000Z</time>
      </trkpt>
      <trkpt lat="43.81517" lon="7.04949">
        <ele>1176.3</ele>
        <time>2021-08-21T17:08:11.000Z</time>
      </trkpt>
      <trkpt lat="43.81516" lon="7.04948">
        <ele>1176.3</ele>
        <time>2021-08-21T17:08:12.000Z</time>
      </trkpt>
      <trkpt lat="43.81512" lon="7.04939">
        <ele>1175.9</ele>
        <time>2021-08-21T17:08:21.000Z</time>
      </trkpt>
      <trkpt lat="43.81507" lon="7.04933">
        <ele>1175.2</ele>
        <time>2021-08-21T17:08:28.000Z</time>
      </trkpt>
      <trkpt lat="43.81504" lon="7.04925">
        <ele>1175.1</ele>
        <time>2021-08-21T17:08:37.000Z</time>
      </trkpt>
      <trkpt lat="43.815" lon="7.04919">
        <ele>1174.5</ele>
        <time>2021-08-21T17:08:45.000Z</time>
      </trkpt>
      <trkpt lat="43.81496" lon="7.04912">
        <ele>1174.7</ele>
        <time>2021-08-21T17:08:52.000Z</time>
      </trkpt>
      <trkpt lat="43.81494" lon="7.04908">
        <ele>1174.8</ele>
        <time>2021-08-21T17:08:56.000Z</time>
      </trkpt>
      <trkpt lat="43.8149" lon="7.04895">
        <ele>1176</ele>
        <time>2021-08-21T17:09:07.000Z</time>
      </trkpt>
      <trkpt lat="43.81488" lon="7.04882">
        <ele>1177.4</ele>
        <time>2021-08-21T17:09:18.000Z</time>
      </trkpt>
      <trkpt lat="43.81487" lon="7.04873">
        <ele>1178.4</ele>
        <time>2021-08-21T17:09:27.000Z</time>
      </trkpt>
      <trkpt lat="43.81483" lon="7.04864">
        <ele>1178.9</ele>
        <time>2021-08-21T17:09:35.000Z</time>
      </trkpt>
      <trkpt lat="43.8148" lon="7.04853">
        <ele>1179.5</ele>
        <time>2021-08-21T17:09:44.000Z</time>
      </trkpt>
      <trkpt lat="43.81476" lon="7.0484">
        <ele>1180.6</ele>
        <time>2021-08-21T17:09:54.000Z</time>
      </trkpt>
      <trkpt lat="43.81471" lon="7.04824">
        <ele>1180.8</ele>
        <time>2021-08-21T17:10:06.000Z</time>
      </trkpt>
      <trkpt lat="43.81468" lon="7.04811">
        <ele>1181.1</ele>
        <time>2021-08-21T17:10:15.000Z</time>
      </trkpt>
      <trkpt lat="43.81468" lon="7.04811">
        <ele>1181.1</ele>
        <time>2021-08-21T17:10:15.000Z</time>
      </trkpt>
      <trkpt lat="43.81468" lon="7.0481">
        <ele>1181.1</ele>
        <time>2021-08-21T17:10:16.000Z</time>
      </trkpt>
      <trkpt lat="43.81465" lon="7.04794">
        <ele>1181.4</ele>
        <time>2021-08-21T17:10:27.000Z</time>
      </trkpt>
      <trkpt lat="43.81462" lon="7.04784">
        <ele>1181.3</ele>
        <time>2021-08-21T17:10:36.000Z</time>
      </trkpt>
      <trkpt lat="43.81456" lon="7.04776">
        <ele>1180.4</ele>
        <time>2021-08-21T17:10:45.000Z</time>
      </trkpt>
      <trkpt lat="43.81455" lon="7.04772">
        <ele>1180.2</ele>
        <time>2021-08-21T17:10:50.000Z</time>
      </trkpt>
      <trkpt lat="43.81453" lon="7.04765">
        <ele>1180.2</ele>
        <time>2021-08-21T17:10:57.000Z</time>
      </trkpt>
      <trkpt lat="43.8145" lon="7.04751">
        <ele>1180.2</ele>
        <time>2021-08-21T17:11:08.000Z</time>
      </trkpt>
      <trkpt lat="43.81447" lon="7.04739">
        <ele>1180.2</ele>
        <time>2021-08-21T17:11:18.000Z</time>
      </trkpt>
      <trkpt lat="43.81443" lon="7.04726">
        <ele>1180</ele>
        <time>2021-08-21T17:11:28.000Z</time>
      </trkpt>
      <trkpt lat="43.8144" lon="7.04713">
        <ele>1180</ele>
        <time>2021-08-21T17:11:39.000Z</time>
      </trkpt>
      <trkpt lat="43.81437" lon="7.047">
        <ele>1179.9</ele>
        <time>2021-08-21T17:11:50.000Z</time>
      </trkpt>
      <trkpt lat="43.81437" lon="7.047">
        <ele>1179.9</ele>
        <time>2021-08-21T17:17:13.000Z</time>
      </trkpt>
      <trkpt lat="43.81437" lon="7.04696">
        <ele>1180</ele>
        <time>2021-08-21T17:17:16.000Z</time>
      </trkpt>
      <trkpt lat="43.81435" lon="7.04686">
        <ele>1180.2</ele>
        <time>2021-08-21T17:17:24.000Z</time>
      </trkpt>
      <trkpt lat="43.81433" lon="7.04672">
        <ele>1180.6</ele>
        <time>2021-08-21T17:17:36.000Z</time>
      </trkpt>
      <trkpt lat="43.8143" lon="7.04672">
        <ele>1179.5</ele>
        <time>2021-08-21T17:17:43.000Z</time>
      </trkpt>
      <trkpt lat="43.81427" lon="7.04667">
        <ele>1179.1</ele>
        <time>2021-08-21T17:17:48.000Z</time>
      </trkpt>
      <trkpt lat="43.81427" lon="7.04666">
        <ele>1179</ele>
        <time>2021-08-21T17:17:49.000Z</time>
      </trkpt>
      <trkpt lat="43.81424" lon="7.04658">
        <ele>1178.4</ele>
        <time>2021-08-21T17:17:54.000Z</time>
      </trkpt>
      <trkpt lat="43.81421" lon="7.04653">
        <ele>1177.6</ele>
        <time>2021-08-21T17:18:00.000Z</time>
      </trkpt>
      <trkpt lat="43.81419" lon="7.04652">
        <ele>1176.9</ele>
        <time>2021-08-21T17:18:03.000Z</time>
      </trkpt>
      <trkpt lat="43.81415" lon="7.0465">
        <ele>1176.3</ele>
        <time>2021-08-21T17:18:08.000Z</time>
      </trkpt>
      <trkpt lat="43.81409" lon="7.04646">
        <ele>1175.8</ele>
        <time>2021-08-21T17:18:17.000Z</time>
      </trkpt>
      <trkpt lat="43.81409" lon="7.04645">
        <ele>1175.8</ele>
        <time>2021-08-21T17:18:18.000Z</time>
      </trkpt>
      <trkpt lat="43.81404" lon="7.04646">
        <ele>1175.4</ele>
        <time>2021-08-21T17:18:23.000Z</time>
      </trkpt>
      <trkpt lat="43.81398" lon="7.04636">
        <ele>1175</ele>
        <time>2021-08-21T17:18:55.000Z</time>
      </trkpt>
      <trkpt lat="43.81392" lon="7.04641">
        <ele>1174.3</ele>
        <time>2021-08-21T17:19:02.000Z</time>
      </trkpt>
      <trkpt lat="43.8139" lon="7.04639">
        <ele>1174.2</ele>
        <time>2021-08-21T17:19:08.000Z</time>
      </trkpt>
      <trkpt lat="43.8139" lon="7.04638">
        <ele>1174.2</ele>
        <time>2021-08-21T17:19:13.000Z</time>
      </trkpt>
      <trkpt lat="43.81389" lon="7.04635">
        <ele>1174.2</ele>
        <time>2021-08-21T17:19:17.000Z</time>
      </trkpt>
      <trkpt lat="43.81388" lon="7.04631">
        <ele>1174.2</ele>
        <time>2021-08-21T17:19:22.000Z</time>
      </trkpt>
      <trkpt lat="43.81384" lon="7.04629">
        <ele>1173.9</ele>
        <time>2021-08-21T17:19:28.000Z</time>
      </trkpt>
      <trkpt lat="43.8138" lon="7.04628">
        <ele>1173.6</ele>
        <time>2021-08-21T17:19:34.000Z</time>
      </trkpt>
      <trkpt lat="43.81375" lon="7.04628">
        <ele>1173.1</ele>
        <time>2021-08-21T17:19:43.000Z</time>
      </trkpt>
      <trkpt lat="43.81372" lon="7.04627">
        <ele>1172.9</ele>
        <time>2021-08-21T17:19:50.000Z</time>
      </trkpt>
      <trkpt lat="43.81365" lon="7.04621">
        <ele>1172.5</ele>
        <time>2021-08-21T17:19:58.000Z</time>
      </trkpt>
      <trkpt lat="43.81358" lon="7.04615">
        <ele>1172</ele>
        <time>2021-08-21T17:20:07.000Z</time>
      </trkpt>
      <trkpt lat="43.81355" lon="7.04606">
        <ele>1172.1</ele>
        <time>2021-08-21T17:20:14.000Z</time>
      </trkpt>
      <trkpt lat="43.81354" lon="7.04603">
        <ele>1172.1</ele>
        <time>2021-08-21T17:20:16.000Z</time>
      </trkpt>
      <trkpt lat="43.81351" lon="7.04594">
        <ele>1172.1</ele>
        <time>2021-08-21T17:20:23.000Z</time>
      </trkpt>
      <trkpt lat="43.8135" lon="7.04584">
        <ele>1172.4</ele>
        <time>2021-08-21T17:20:31.000Z</time>
      </trkpt>
      <trkpt lat="43.81348" lon="7.04573">
        <ele>1172.5</ele>
        <time>2021-08-21T17:20:39.000Z</time>
      </trkpt>
      <trkpt lat="43.81348" lon="7.0457">
        <ele>1172.6</ele>
        <time>2021-08-21T17:20:41.000Z</time>
      </trkpt>
      <trkpt lat="43.81348" lon="7.04565">
        <ele>1172.7</ele>
        <time>2021-08-21T17:20:45.000Z</time>
      </trkpt>
      <trkpt lat="43.81347" lon="7.04557">
        <ele>1172.9</ele>
        <time>2021-08-21T17:20:51.000Z</time>
      </trkpt>
      <trkpt lat="43.81346" lon="7.04551">
        <ele>1172.9</ele>
        <time>2021-08-21T17:20:55.000Z</time>
      </trkpt>
      <trkpt lat="43.81348" lon="7.04547">
        <ele>1173.3</ele>
        <time>2021-08-21T17:21:00.000Z</time>
      </trkpt>
      <trkpt lat="43.81347" lon="7.0454">
        <ele>1173.3</ele>
        <time>2021-08-21T17:21:06.000Z</time>
      </trkpt>
      <trkpt lat="43.81343" lon="7.04535">
        <ele>1172.9</ele>
        <time>2021-08-21T17:21:11.000Z</time>
      </trkpt>
      <trkpt lat="43.81341" lon="7.04522">
        <ele>1172.9</ele>
        <time>2021-08-21T17:21:21.000Z</time>
      </trkpt>
      <trkpt lat="43.8134" lon="7.0452">
        <ele>1172.8</ele>
        <time>2021-08-21T17:21:22.000Z</time>
      </trkpt>
      <trkpt lat="43.81341" lon="7.04512">
        <ele>1173.2</ele>
        <time>2021-08-21T17:21:29.000Z</time>
      </trkpt>
      <trkpt lat="43.81343" lon="7.04507">
        <ele>1173.6</ele>
        <time>2021-08-21T17:21:34.000Z</time>
      </trkpt>
      <trkpt lat="43.81344" lon="7.04502">
        <ele>1173.9</ele>
        <time>2021-08-21T17:21:40.000Z</time>
      </trkpt>
      <trkpt lat="43.81345" lon="7.04495">
        <ele>1173.6</ele>
        <time>2021-08-21T17:21:45.000Z</time>
      </trkpt>
      <trkpt lat="43.81345" lon="7.04493">
        <ele>1173.3</ele>
        <time>2021-08-21T17:21:47.000Z</time>
      </trkpt>
      <trkpt lat="43.81341" lon="7.04485">
        <ele>1171.7</ele>
        <time>2021-08-21T17:21:53.000Z</time>
      </trkpt>
      <trkpt lat="43.8134" lon="7.04483">
        <ele>1171.1</ele>
        <time>2021-08-21T17:21:57.000Z</time>
      </trkpt>
      <trkpt lat="43.81339" lon="7.04475">
        <ele>1170.2</ele>
        <time>2021-08-21T17:23:39.000Z</time>
      </trkpt>
      <trkpt lat="43.81338" lon="7.04474">
        <ele>1169.6</ele>
        <time>2021-08-21T17:23:45.000Z</time>
      </trkpt>
      <trkpt lat="43.81335" lon="7.04468">
        <ele>1168.2</ele>
        <time>2021-08-21T17:23:51.000Z</time>
      </trkpt>
      <trkpt lat="43.81334" lon="7.04465">
        <ele>1167.6</ele>
        <time>2021-08-21T17:23:53.000Z</time>
      </trkpt>
      <trkpt lat="43.81334" lon="7.04462">
        <ele>1167.2</ele>
        <time>2021-08-21T17:23:55.000Z</time>
      </trkpt>
      <trkpt lat="43.81335" lon="7.04454">
        <ele>1166.4</ele>
        <time>2021-08-21T17:24:02.000Z</time>
      </trkpt>
      <trkpt lat="43.81335" lon="7.04449">
        <ele>1165.8</ele>
        <time>2021-08-21T17:24:06.000Z</time>
      </trkpt>
      <trkpt lat="43.81335" lon="7.04443">
        <ele>1165.1</ele>
        <time>2021-08-21T17:24:11.000Z</time>
      </trkpt>
      <trkpt lat="43.81334" lon="7.04436">
        <ele>1163.7</ele>
        <time>2021-08-21T17:24:16.000Z</time>
      </trkpt>
      <trkpt lat="43.81338" lon="7.04429">
        <ele>1164.2</ele>
        <time>2021-08-21T17:24:22.000Z</time>
      </trkpt>
      <trkpt lat="43.8134" lon="7.04424">
        <ele>1164.3</ele>
        <time>2021-08-21T17:24:26.000Z</time>
      </trkpt>
      <trkpt lat="43.81344" lon="7.04419">
        <ele>1164.9</ele>
        <time>2021-08-21T17:24:30.000Z</time>
      </trkpt>
      <trkpt lat="43.81346" lon="7.04414">
        <ele>1165.1</ele>
        <time>2021-08-21T17:24:34.000Z</time>
      </trkpt>
      <trkpt lat="43.81349" lon="7.04408">
        <ele>1165.5</ele>
        <time>2021-08-21T17:24:38.000Z</time>
      </trkpt>
      <trkpt lat="43.81352" lon="7.044">
        <ele>1165.5</ele>
        <time>2021-08-21T17:24:44.000Z</time>
      </trkpt>
      <trkpt lat="43.81354" lon="7.04394">
        <ele>1165.6</ele>
        <time>2021-08-21T17:24:48.000Z</time>
      </trkpt>
      <trkpt lat="43.81354" lon="7.04392">
        <ele>1165.5</ele>
        <time>2021-08-21T17:24:50.000Z</time>
      </trkpt>
      <trkpt lat="43.81356" lon="7.04387">
        <ele>1165.8</ele>
        <time>2021-08-21T17:24:55.000Z</time>
      </trkpt>
      <trkpt lat="43.81358" lon="7.04376">
        <ele>1165.5</ele>
        <time>2021-08-21T17:25:03.000Z</time>
      </trkpt>
      <trkpt lat="43.8136" lon="7.04364">
        <ele>1165</ele>
        <time>2021-08-21T17:25:10.000Z</time>
      </trkpt>
      <trkpt lat="43.81362" lon="7.04356">
        <ele>1164.8</ele>
        <time>2021-08-21T17:25:16.000Z</time>
      </trkpt>
      <trkpt lat="43.81365" lon="7.04346">
        <ele>1165.1</ele>
        <time>2021-08-21T17:25:23.000Z</time>
      </trkpt>
      <trkpt lat="43.81366" lon="7.04336">
        <ele>1164.6</ele>
        <time>2021-08-21T17:25:30.000Z</time>
      </trkpt>
      <trkpt lat="43.81367" lon="7.04323">
        <ele>1165.3</ele>
        <time>2021-08-21T17:25:38.000Z</time>
      </trkpt>
      <trkpt lat="43.81367" lon="7.04312">
        <ele>1165.9</ele>
        <time>2021-08-21T17:25:46.000Z</time>
      </trkpt>
      <trkpt lat="43.81367" lon="7.04306">
        <ele>1166.2</ele>
        <time>2021-08-21T17:25:50.000Z</time>
      </trkpt>
      <trkpt lat="43.81367" lon="7.04293">
        <ele>1166.7</ele>
        <time>2021-08-21T17:25:58.000Z</time>
      </trkpt>
      <trkpt lat="43.81366" lon="7.04281">
        <ele>1167.2</ele>
        <time>2021-08-21T17:26:05.000Z</time>
      </trkpt>
      <trkpt lat="43.81365" lon="7.04273">
        <ele>1167</ele>
        <time>2021-08-21T17:26:11.000Z</time>
      </trkpt>
      <trkpt lat="43.81362" lon="7.04263">
        <ele>1166.3</ele>
        <time>2021-08-21T17:26:18.000Z</time>
      </trkpt>
      <trkpt lat="43.81357" lon="7.04255">
        <ele>1164.7</ele>
        <time>2021-08-21T17:26:27.000Z</time>
      </trkpt>
      <trkpt lat="43.81352" lon="7.0425">
        <ele>1162.7</ele>
        <time>2021-08-21T17:26:47.000Z</time>
      </trkpt>
      <trkpt lat="43.81351" lon="7.04249">
        <ele>1162.5</ele>
        <time>2021-08-21T17:26:48.000Z</time>
      </trkpt>
      <trkpt lat="43.81349" lon="7.04242">
        <ele>1162.2</ele>
        <time>2021-08-21T17:26:54.000Z</time>
      </trkpt>
      <trkpt lat="43.81344" lon="7.0423">
        <ele>1161.4</ele>
        <time>2021-08-21T17:27:04.000Z</time>
      </trkpt>
      <trkpt lat="43.81338" lon="7.04217">
        <ele>1160.2</ele>
        <time>2021-08-21T17:27:15.000Z</time>
      </trkpt>
      <trkpt lat="43.81334" lon="7.04207">
        <ele>1159.4</ele>
        <time>2021-08-21T17:27:24.000Z</time>
      </trkpt>
      <trkpt lat="43.8133" lon="7.042">
        <ele>1158.5</ele>
        <time>2021-08-21T17:27:31.000Z</time>
      </trkpt>
      <trkpt lat="43.8132" lon="7.04194">
        <ele>1155.9</ele>
        <time>2021-08-21T17:27:41.000Z</time>
      </trkpt>
      <trkpt lat="43.8131" lon="7.04194">
        <ele>1152.4</ele>
        <time>2021-08-21T17:27:52.000Z</time>
      </trkpt>
      <trkpt lat="43.81308" lon="7.04193">
        <ele>1151.7</ele>
        <time>2021-08-21T17:27:54.000Z</time>
      </trkpt>
      <trkpt lat="43.81302" lon="7.04192">
        <ele>1149.8</ele>
        <time>2021-08-21T17:28:00.000Z</time>
      </trkpt>
      <trkpt lat="43.81298" lon="7.04192">
        <ele>1148.5</ele>
        <time>2021-08-21T17:28:03.000Z</time>
      </trkpt>
      <trkpt lat="43.81291" lon="7.04188">
        <ele>1146.2</ele>
        <time>2021-08-21T17:28:11.000Z</time>
      </trkpt>
      <trkpt lat="43.8129" lon="7.04187">
        <ele>1146</ele>
        <time>2021-08-21T17:28:12.000Z</time>
      </trkpt>
      <trkpt lat="43.81286" lon="7.04186">
        <ele>1144.8</ele>
        <time>2021-08-21T17:28:19.000Z</time>
      </trkpt>
      <trkpt lat="43.81282" lon="7.04181">
        <ele>1143.7</ele>
        <time>2021-08-21T17:28:27.000Z</time>
      </trkpt>
      <trkpt lat="43.8128" lon="7.0418">
        <ele>1142.8</ele>
        <time>2021-08-21T17:28:33.000Z</time>
      </trkpt>
      <trkpt lat="43.81277" lon="7.0418">
        <ele>1141.7</ele>
        <time>2021-08-21T17:29:10.000Z</time>
      </trkpt>
      <trkpt lat="43.81272" lon="7.0418">
        <ele>1140.3</ele>
        <time>2021-08-21T17:29:18.000Z</time>
      </trkpt>
      <trkpt lat="43.81268" lon="7.04177">
        <ele>1138.8</ele>
        <time>2021-08-21T17:29:28.000Z</time>
      </trkpt>
      <trkpt lat="43.81266" lon="7.04173">
        <ele>1138.3</ele>
        <time>2021-08-21T17:29:37.000Z</time>
      </trkpt>
      <trkpt lat="43.81263" lon="7.04169">
        <ele>1137.5</ele>
        <time>2021-08-21T17:29:43.000Z</time>
      </trkpt>
      <trkpt lat="43.81259" lon="7.04164">
        <ele>1135.7</ele>
        <time>2021-08-21T17:29:52.000Z</time>
      </trkpt>
      <trkpt lat="43.81255" lon="7.04159">
        <ele>1133.3</ele>
        <time>2021-08-21T17:30:00.000Z</time>
      </trkpt>
      <trkpt lat="43.81252" lon="7.0415">
        <ele>1130.9</ele>
        <time>2021-08-21T17:30:08.000Z</time>
      </trkpt>
      <trkpt lat="43.81252" lon="7.04142">
        <ele>1129.2</ele>
        <time>2021-08-21T17:30:16.000Z</time>
      </trkpt>
      <trkpt lat="43.81251" lon="7.04134">
        <ele>1127.6</ele>
        <time>2021-08-21T17:30:23.000Z</time>
      </trkpt>
      <trkpt lat="43.81251" lon="7.04126">
        <ele>1126</ele>
        <time>2021-08-21T17:30:30.000Z</time>
      </trkpt>
      <trkpt lat="43.81249" lon="7.04124">
        <ele>1125.2</ele>
        <time>2021-08-21T17:30:34.000Z</time>
      </trkpt>
      <trkpt lat="43.81249" lon="7.04124">
        <ele>1125.1</ele>
        <time>2021-08-21T17:31:03.000Z</time>
      </trkpt>
      <trkpt lat="43.81251" lon="7.04118">
        <ele>1124.4</ele>
        <time>2021-08-21T17:31:10.000Z</time>
      </trkpt>
      <trkpt lat="43.81251" lon="7.04113">
        <ele>1123.8</ele>
        <time>2021-08-21T17:31:16.000Z</time>
      </trkpt>
      <trkpt lat="43.81249" lon="7.04114">
        <ele>1123.3</ele>
        <time>2021-08-21T17:31:18.000Z</time>
      </trkpt>
      <trkpt lat="43.81245" lon="7.04112">
        <ele>1121.9</ele>
        <time>2021-08-21T17:31:23.000Z</time>
      </trkpt>
      <trkpt lat="43.81244" lon="7.04112">
        <ele>1121.8</ele>
        <time>2021-08-21T17:31:24.000Z</time>
      </trkpt>
      <trkpt lat="43.81241" lon="7.04112">
        <ele>1121.2</ele>
        <time>2021-08-21T17:31:27.000Z</time>
      </trkpt>
      <trkpt lat="43.81239" lon="7.04112">
        <ele>1120.6</ele>
        <time>2021-08-21T17:31:32.000Z</time>
      </trkpt>
      <trkpt lat="43.81236" lon="7.04114">
        <ele>1120.2</ele>
        <time>2021-08-21T17:31:40.000Z</time>
      </trkpt>
      <trkpt lat="43.81233" lon="7.04115">
        <ele>1119.7</ele>
        <time>2021-08-21T17:31:46.000Z</time>
      </trkpt>
      <trkpt lat="43.8123" lon="7.04115">
        <ele>1119</ele>
        <time>2021-08-21T17:31:52.000Z</time>
      </trkpt>
      <trkpt lat="43.81228" lon="7.04115">
        <ele>1118.5</ele>
        <time>2021-08-21T17:31:58.000Z</time>
      </trkpt>
      <trkpt lat="43.81226" lon="7.04115">
        <ele>1118</ele>
        <time>2021-08-21T17:32:04.000Z</time>
      </trkpt>
      <trkpt lat="43.81225" lon="7.04111">
        <ele>1117.4</ele>
        <time>2021-08-21T17:32:09.000Z</time>
      </trkpt>
      <trkpt lat="43.81225" lon="7.04106">
        <ele>1116.8</ele>
        <time>2021-08-21T17:32:14.000Z</time>
      </trkpt>
      <trkpt lat="43.81222" lon="7.04113">
        <ele>1116.9</ele>
        <time>2021-08-21T17:33:00.000Z</time>
      </trkpt>
      <trkpt lat="43.8122" lon="7.04115">
        <ele>1116.6</ele>
        <time>2021-08-21T17:33:06.000Z</time>
      </trkpt>
      <trkpt lat="43.81214" lon="7.04119">
        <ele>1115.6</ele>
        <time>2021-08-21T17:33:15.000Z</time>
      </trkpt>
      <trkpt lat="43.81211" lon="7.04119">
        <ele>1114.7</ele>
        <time>2021-08-21T17:33:21.000Z</time>
      </trkpt>
      <trkpt lat="43.81208" lon="7.0412">
        <ele>1114.1</ele>
        <time>2021-08-21T17:33:27.000Z</time>
      </trkpt>
      <trkpt lat="43.81205" lon="7.04122">
        <ele>1113.4</ele>
        <time>2021-08-21T17:33:32.000Z</time>
      </trkpt>
      <trkpt lat="43.81202" lon="7.0412">
        <ele>1112.6</ele>
        <time>2021-08-21T17:33:38.000Z</time>
      </trkpt>
      <trkpt lat="43.81201" lon="7.04116">
        <ele>1112.2</ele>
        <time>2021-08-21T17:33:43.000Z</time>
      </trkpt>
      <trkpt lat="43.812" lon="7.0411">
        <ele>1111.8</ele>
        <time>2021-08-21T17:33:47.000Z</time>
      </trkpt>
      <trkpt lat="43.812" lon="7.04104">
        <ele>1111.5</ele>
        <time>2021-08-21T17:33:51.000Z</time>
      </trkpt>
      <trkpt lat="43.81204" lon="7.04095">
        <ele>1111.9</ele>
        <time>2021-08-21T17:33:59.000Z</time>
      </trkpt>
      <trkpt lat="43.81205" lon="7.04093">
        <ele>1111.9</ele>
        <time>2021-08-21T17:34:01.000Z</time>
      </trkpt>
      <trkpt lat="43.81209" lon="7.04086">
        <ele>1112.2</ele>
        <time>2021-08-21T17:34:09.000Z</time>
      </trkpt>
      <trkpt lat="43.81209" lon="7.04077">
        <ele>1112.5</ele>
        <time>2021-08-21T17:34:36.000Z</time>
      </trkpt>
      <trkpt lat="43.81211" lon="7.04072">
        <ele>1112.9</ele>
        <time>2021-08-21T17:34:44.000Z</time>
      </trkpt>
      <trkpt lat="43.81212" lon="7.04066">
        <ele>1113.2</ele>
        <time>2021-08-21T17:34:51.000Z</time>
      </trkpt>
      <trkpt lat="43.81214" lon="7.04063">
        <ele>1113.5</ele>
        <time>2021-08-21T17:34:57.000Z</time>
      </trkpt>
      <trkpt lat="43.81213" lon="7.04057">
        <ele>1113.7</ele>
        <time>2021-08-21T17:35:03.000Z</time>
      </trkpt>
      <trkpt lat="43.81213" lon="7.04054">
        <ele>1113.8</ele>
        <time>2021-08-21T17:35:08.000Z</time>
      </trkpt>
      <trkpt lat="43.81214" lon="7.04049">
        <ele>1114</ele>
        <time>2021-08-21T17:35:15.000Z</time>
      </trkpt>
      <trkpt lat="43.81216" lon="7.04047">
        <ele>1114.1</ele>
        <time>2021-08-21T17:35:20.000Z</time>
      </trkpt>
      <trkpt lat="43.81216" lon="7.04045">
        <ele>1114.1</ele>
        <time>2021-08-21T17:35:26.000Z</time>
      </trkpt>
      <trkpt lat="43.81216" lon="7.04044">
        <ele>1114.2</ele>
        <time>2021-08-21T17:35:35.000Z</time>
      </trkpt>
      <trkpt lat="43.81216" lon="7.04042">
        <ele>1114.2</ele>
        <time>2021-08-21T17:35:39.000Z</time>
      </trkpt>
      <trkpt lat="43.81216" lon="7.0404">
        <ele>1114.2</ele>
        <time>2021-08-21T17:35:46.000Z</time>
      </trkpt>
      <trkpt lat="43.81218" lon="7.0404">
        <ele>1114.2</ele>
        <time>2021-08-21T17:35:50.000Z</time>
      </trkpt>
      <trkpt lat="43.8122" lon="7.04039">
        <ele>1114.2</ele>
        <time>2021-08-21T17:35:57.000Z</time>
      </trkpt>
      <trkpt lat="43.81223" lon="7.04035">
        <ele>1114.2</ele>
        <time>2021-08-21T17:36:03.000Z</time>
      </trkpt>
      <trkpt lat="43.81223" lon="7.04033">
        <ele>1114.2</ele>
        <time>2021-08-21T17:36:08.000Z</time>
      </trkpt>
      <trkpt lat="43.81225" lon="7.04031">
        <ele>1114.1</ele>
        <time>2021-08-21T17:36:13.000Z</time>
      </trkpt>
      <trkpt lat="43.81226" lon="7.04029">
        <ele>1114</ele>
        <time>2021-08-21T17:36:18.000Z</time>
      </trkpt>
      <trkpt lat="43.81227" lon="7.04027">
        <ele>1113.9</ele>
        <time>2021-08-21T17:36:23.000Z</time>
      </trkpt>
      <trkpt lat="43.81229" lon="7.04025">
        <ele>1113.8</ele>
        <time>2021-08-21T17:36:31.000Z</time>
      </trkpt>
      <trkpt lat="43.81233" lon="7.04022">
        <ele>1113.5</ele>
        <time>2021-08-21T17:36:37.000Z</time>
      </trkpt>
      <trkpt lat="43.81232" lon="7.04019">
        <ele>1113.4</ele>
        <time>2021-08-21T17:36:43.000Z</time>
      </trkpt>
      <trkpt lat="43.81231" lon="7.04016">
        <ele>1113.5</ele>
        <time>2021-08-21T17:36:49.000Z</time>
      </trkpt>
      <trkpt lat="43.81226" lon="7.04014">
        <ele>1113.9</ele>
        <time>2021-08-21T17:37:02.000Z</time>
      </trkpt>
      <trkpt lat="43.81222" lon="7.0401">
        <ele>1114.3</ele>
        <time>2021-08-21T17:37:25.000Z</time>
      </trkpt>
      <trkpt lat="43.81222" lon="7.04005">
        <ele>1114.3</ele>
        <time>2021-08-21T17:37:36.000Z</time>
      </trkpt>
      <trkpt lat="43.81221" lon="7.03998">
        <ele>1114.8</ele>
        <time>2021-08-21T17:37:48.000Z</time>
      </trkpt>
      <trkpt lat="43.81219" lon="7.03995">
        <ele>1115.7</ele>
        <time>2021-08-21T17:37:54.000Z</time>
      </trkpt>
      <trkpt lat="43.81219" lon="7.03993">
        <ele>1116</ele>
        <time>2021-08-21T17:37:55.000Z</time>
      </trkpt>
      <trkpt lat="43.81217" lon="7.03992">
        <ele>1116.5</ele>
        <time>2021-08-21T17:37:58.000Z</time>
      </trkpt>
      <trkpt lat="43.81213" lon="7.03996">
        <ele>1116.5</ele>
        <time>2021-08-21T17:38:05.000Z</time>
      </trkpt>
      <trkpt lat="43.81207" lon="7.04001">
        <ele>1116.7</ele>
        <time>2021-08-21T17:38:15.000Z</time>
      </trkpt>
      <trkpt lat="43.81203" lon="7.04004">
        <ele>1117.1</ele>
        <time>2021-08-21T17:38:22.000Z</time>
      </trkpt>
      <trkpt lat="43.81198" lon="7.04006">
        <ele>1117.6</ele>
        <time>2021-08-21T17:38:31.000Z</time>
      </trkpt>
      <trkpt lat="43.81193" lon="7.04008">
        <ele>1118</ele>
        <time>2021-08-21T17:38:38.000Z</time>
      </trkpt>
      <trkpt lat="43.81187" lon="7.04012">
        <ele>1118.2</ele>
        <time>2021-08-21T17:38:49.000Z</time>
      </trkpt>
      <trkpt lat="43.81182" lon="7.04016">
        <ele>1118.2</ele>
        <time>2021-08-21T17:38:59.000Z</time>
      </trkpt>
      <trkpt lat="43.81178" lon="7.04019">
        <ele>1118.2</ele>
        <time>2021-08-21T17:39:07.000Z</time>
      </trkpt>
      <trkpt lat="43.81176" lon="7.04019">
        <ele>1118.3</ele>
        <time>2021-08-21T17:39:12.000Z</time>
      </trkpt>
      <trkpt lat="43.81172" lon="7.0402">
        <ele>1118.5</ele>
        <time>2021-08-21T17:39:21.000Z</time>
      </trkpt>
      <trkpt lat="43.81166" lon="7.04024">
        <ele>1118.3</ele>
        <time>2021-08-21T17:39:31.000Z</time>
      </trkpt>
      <trkpt lat="43.81161" lon="7.04028">
        <ele>1119.3</ele>
        <time>2021-08-21T17:39:40.000Z</time>
      </trkpt>
      <trkpt lat="43.81156" lon="7.0403">
        <ele>1120.7</ele>
        <time>2021-08-21T17:39:49.000Z</time>
      </trkpt>
      <trkpt lat="43.81154" lon="7.04031">
        <ele>1121.3</ele>
        <time>2021-08-21T17:39:54.000Z</time>
      </trkpt>
      <trkpt lat="43.81151" lon="7.04035">
        <ele>1121.6</ele>
        <time>2021-08-21T17:40:00.000Z</time>
      </trkpt>
      <trkpt lat="43.81145" lon="7.04036">
        <ele>1123.5</ele>
        <time>2021-08-21T17:40:09.000Z</time>
      </trkpt>
      <trkpt lat="43.81142" lon="7.04037">
        <ele>1124.6</ele>
        <time>2021-08-21T17:40:15.000Z</time>
      </trkpt>
      <trkpt lat="43.81137" lon="7.04037">
        <ele>1126.4</ele>
        <time>2021-08-21T17:40:23.000Z</time>
      </trkpt>
      <trkpt lat="43.81135" lon="7.04038">
        <ele>1126.8</ele>
        <time>2021-08-21T17:40:28.000Z</time>
      </trkpt>
      <trkpt lat="43.81134" lon="7.04039">
        <ele>1126.9</ele>
        <time>2021-08-21T17:40:29.000Z</time>
      </trkpt>
      <trkpt lat="43.81129" lon="7.04043">
        <ele>1127.8</ele>
        <time>2021-08-21T17:40:37.000Z</time>
      </trkpt>
      <trkpt lat="43.81125" lon="7.04046">
        <ele>1128.5</ele>
        <time>2021-08-21T17:40:46.000Z</time>
      </trkpt>
      <trkpt lat="43.81121" lon="7.04047">
        <ele>1129.6</ele>
        <time>2021-08-21T17:40:52.000Z</time>
      </trkpt>
      <trkpt lat="43.81116" lon="7.04049">
        <ele>1130.7</ele>
        <time>2021-08-21T17:41:00.000Z</time>
      </trkpt>
      <trkpt lat="43.8111" lon="7.04052">
        <ele>1132.1</ele>
        <time>2021-08-21T17:41:11.000Z</time>
      </trkpt>
      <trkpt lat="43.81108" lon="7.04056">
        <ele>1131.9</ele>
        <time>2021-08-21T17:41:18.000Z</time>
      </trkpt>
      <trkpt lat="43.81104" lon="7.04059">
        <ele>1132.4</ele>
        <time>2021-08-21T17:41:23.000Z</time>
      </trkpt>
      <trkpt lat="43.81099" lon="7.04058">
        <ele>1134.4</ele>
        <time>2021-08-21T17:41:31.000Z</time>
      </trkpt>
      <trkpt lat="43.81096" lon="7.04059">
        <ele>1135.1</ele>
        <time>2021-08-21T17:41:37.000Z</time>
      </trkpt>
      <trkpt lat="43.81094" lon="7.04063">
        <ele>1135.1</ele>
        <time>2021-08-21T17:41:43.000Z</time>
      </trkpt>
      <trkpt lat="43.81093" lon="7.04068">
        <ele>1134</ele>
        <time>2021-08-21T17:41:49.000Z</time>
      </trkpt>
      <trkpt lat="43.81091" lon="7.04073">
        <ele>1133.6</ele>
        <time>2021-08-21T17:41:56.000Z</time>
      </trkpt>
      <trkpt lat="43.81088" lon="7.04076">
        <ele>1133.5</ele>
        <time>2021-08-21T17:42:01.000Z</time>
      </trkpt>
      <trkpt lat="43.81084" lon="7.04082">
        <ele>1133</ele>
        <time>2021-08-21T17:42:11.000Z</time>
      </trkpt>
      <trkpt lat="43.81083" lon="7.04084">
        <ele>1133.2</ele>
        <time>2021-08-21T17:42:13.000Z</time>
      </trkpt>
      <trkpt lat="43.81082" lon="7.04086">
        <ele>1133.2</ele>
        <time>2021-08-21T17:42:16.000Z</time>
      </trkpt>
      <trkpt lat="43.8108" lon="7.0409">
        <ele>1133.4</ele>
        <time>2021-08-21T17:42:21.000Z</time>
      </trkpt>
      <trkpt lat="43.81078" lon="7.04093">
        <ele>1133.8</ele>
        <time>2021-08-21T17:42:25.000Z</time>
      </trkpt>
      <trkpt lat="43.81075" lon="7.04096">
        <ele>1134.6</ele>
        <time>2021-08-21T17:42:31.000Z</time>
      </trkpt>
      <trkpt lat="43.81071" lon="7.04101">
        <ele>1135.3</ele>
        <time>2021-08-21T17:42:37.000Z</time>
      </trkpt>
      <trkpt lat="43.81069" lon="7.04105">
        <ele>1135.7</ele>
        <time>2021-08-21T17:42:42.000Z</time>
      </trkpt>
      <trkpt lat="43.81067" lon="7.04108">
        <ele>1136.2</ele>
        <time>2021-08-21T17:42:46.000Z</time>
      </trkpt>
      <trkpt lat="43.81064" lon="7.04111">
        <ele>1136.7</ele>
        <time>2021-08-21T17:42:51.000Z</time>
      </trkpt>
      <trkpt lat="43.81061" lon="7.04113">
        <ele>1137.6</ele>
        <time>2021-08-21T17:42:56.000Z</time>
      </trkpt>
      <trkpt lat="43.81058" lon="7.04116">
        <ele>1138.3</ele>
        <time>2021-08-21T17:43:02.000Z</time>
      </trkpt>
      <trkpt lat="43.81058" lon="7.04118">
        <ele>1138.4</ele>
        <time>2021-08-21T17:43:04.000Z</time>
      </trkpt>
      <trkpt lat="43.81055" lon="7.0412">
        <ele>1139.4</ele>
        <time>2021-08-21T17:43:09.000Z</time>
      </trkpt>
      <trkpt lat="43.81046" lon="7.04124">
        <ele>1143</ele>
        <time>2021-08-21T17:43:23.000Z</time>
      </trkpt>
      <trkpt lat="43.81041" lon="7.04129">
        <ele>1144.3</ele>
        <time>2021-08-21T17:43:32.000Z</time>
      </trkpt>
      <trkpt lat="43.81036" lon="7.04133">
        <ele>1145.5</ele>
        <time>2021-08-21T17:43:39.000Z</time>
      </trkpt>
      <trkpt lat="43.81033" lon="7.04138">
        <ele>1146.1</ele>
        <time>2021-08-21T17:43:46.000Z</time>
      </trkpt>
      <trkpt lat="43.8103" lon="7.04142">
        <ele>1146.8</ele>
        <time>2021-08-21T17:43:53.000Z</time>
      </trkpt>
      <trkpt lat="43.81027" lon="7.04145">
        <ele>1147.2</ele>
        <time>2021-08-21T17:43:58.000Z</time>
      </trkpt>
      <trkpt lat="43.81025" lon="7.04148">
        <ele>1147.4</ele>
        <time>2021-08-21T17:44:03.000Z</time>
      </trkpt>
      <trkpt lat="43.81022" lon="7.04158">
        <ele>1146.5</ele>
        <time>2021-08-21T17:44:13.000Z</time>
      </trkpt>
      <trkpt lat="43.81019" lon="7.04162">
        <ele>1147.2</ele>
        <time>2021-08-21T17:44:20.000Z</time>
      </trkpt>
      <trkpt lat="43.81015" lon="7.04166">
        <ele>1147.9</ele>
        <time>2021-08-21T17:44:26.000Z</time>
      </trkpt>
      <trkpt lat="43.81012" lon="7.04169">
        <ele>1148.7</ele>
        <time>2021-08-21T17:44:32.000Z</time>
      </trkpt>
      <trkpt lat="43.81009" lon="7.04174">
        <ele>1149</ele>
        <time>2021-08-21T17:44:38.000Z</time>
      </trkpt>
      <trkpt lat="43.81007" lon="7.04177">
        <ele>1149.2</ele>
        <time>2021-08-21T17:44:42.000Z</time>
      </trkpt>
      <trkpt lat="43.81005" lon="7.0418">
        <ele>1149.7</ele>
        <time>2021-08-21T17:44:49.000Z</time>
      </trkpt>
      <trkpt lat="43.81" lon="7.04188">
        <ele>1150.4</ele>
        <time>2021-08-21T17:44:58.000Z</time>
      </trkpt>
      <trkpt lat="43.80998" lon="7.0419">
        <ele>1150.9</ele>
        <time>2021-08-21T17:45:00.000Z</time>
      </trkpt>
      <trkpt lat="43.80994" lon="7.04196">
        <ele>1151.4</ele>
        <time>2021-08-21T17:45:09.000Z</time>
      </trkpt>
      <trkpt lat="43.80991" lon="7.04202">
        <ele>1151.8</ele>
        <time>2021-08-21T17:45:17.000Z</time>
      </trkpt>
      <trkpt lat="43.80987" lon="7.04207">
        <ele>1152.8</ele>
        <time>2021-08-21T17:45:24.000Z</time>
      </trkpt>
      <trkpt lat="43.80982" lon="7.04212">
        <ele>1154</ele>
        <time>2021-08-21T17:45:32.000Z</time>
      </trkpt>
      <trkpt lat="43.80979" lon="7.04215">
        <ele>1154.7</ele>
        <time>2021-08-21T17:45:38.000Z</time>
      </trkpt>
      <trkpt lat="43.80975" lon="7.04221">
        <ele>1155.9</ele>
        <time>2021-08-21T17:45:46.000Z</time>
      </trkpt>
      <trkpt lat="43.80974" lon="7.04223">
        <ele>1155.9</ele>
        <time>2021-08-21T17:45:48.000Z</time>
      </trkpt>
      <trkpt lat="43.8097" lon="7.0423">
        <ele>1156.5</ele>
        <time>2021-08-21T17:45:57.000Z</time>
      </trkpt>
      <trkpt lat="43.80966" lon="7.04231">
        <ele>1157.9</ele>
        <time>2021-08-21T17:46:03.000Z</time>
      </trkpt>
      <trkpt lat="43.80964" lon="7.0423">
        <ele>1159.5</ele>
        <time>2021-08-21T17:46:09.000Z</time>
      </trkpt>
      <trkpt lat="43.80961" lon="7.04233">
        <ele>1160.5</ele>
        <time>2021-08-21T17:46:14.000Z</time>
      </trkpt>
      <trkpt lat="43.80957" lon="7.04237">
        <ele>1161.3</ele>
        <time>2021-08-21T17:46:21.000Z</time>
      </trkpt>
      <trkpt lat="43.80954" lon="7.04239">
        <ele>1162.7</ele>
        <time>2021-08-21T17:46:28.000Z</time>
      </trkpt>
      <trkpt lat="43.80952" lon="7.04238">
        <ele>1164.3</ele>
        <time>2021-08-21T17:46:35.000Z</time>
      </trkpt>
      <trkpt lat="43.80949" lon="7.04239">
        <ele>1165.5</ele>
        <time>2021-08-21T17:46:42.000Z</time>
      </trkpt>
      <trkpt lat="43.80946" lon="7.04239">
        <ele>1167.1</ele>
        <time>2021-08-21T17:46:47.000Z</time>
      </trkpt>
      <trkpt lat="43.80942" lon="7.04239">
        <ele>1168.8</ele>
        <time>2021-08-21T17:46:53.000Z</time>
      </trkpt>
      <trkpt lat="43.80938" lon="7.0424">
        <ele>1170.9</ele>
        <time>2021-08-21T17:47:00.000Z</time>
      </trkpt>
      <trkpt lat="43.80935" lon="7.04241">
        <ele>1172</ele>
        <time>2021-08-21T17:47:05.000Z</time>
      </trkpt>
      <trkpt lat="43.80935" lon="7.04246">
        <ele>1171.1</ele>
        <time>2021-08-21T17:47:11.000Z</time>
      </trkpt>
      <trkpt lat="43.80937" lon="7.04251">
        <ele>1168.9</ele>
        <time>2021-08-21T17:47:17.000Z</time>
      </trkpt>
      <trkpt lat="43.80938" lon="7.04259">
        <ele>1167.6</ele>
        <time>2021-08-21T17:47:25.000Z</time>
      </trkpt>
      <trkpt lat="43.80936" lon="7.04264">
        <ele>1168.5</ele>
        <time>2021-08-21T17:47:32.000Z</time>
      </trkpt>
      <trkpt lat="43.80935" lon="7.04267">
        <ele>1168.8</ele>
        <time>2021-08-21T17:47:38.000Z</time>
      </trkpt>
      <trkpt lat="43.80932" lon="7.0427">
        <ele>1169.7</ele>
        <time>2021-08-21T17:47:44.000Z</time>
      </trkpt>
      <trkpt lat="43.8093" lon="7.04275">
        <ele>1170.6</ele>
        <time>2021-08-21T17:47:51.000Z</time>
      </trkpt>
      <trkpt lat="43.80925" lon="7.0428">
        <ele>1172.7</ele>
        <time>2021-08-21T17:48:00.000Z</time>
      </trkpt>
      <trkpt lat="43.80922" lon="7.0428">
        <ele>1174.7</ele>
        <time>2021-08-21T17:48:06.000Z</time>
      </trkpt>
      <trkpt lat="43.80918" lon="7.04282">
        <ele>1176.5</ele>
        <time>2021-08-21T17:48:10.000Z</time>
      </trkpt>
      <trkpt lat="43.80916" lon="7.04284">
        <ele>1177.7</ele>
        <time>2021-08-21T17:48:16.000Z</time>
      </trkpt>
      <trkpt lat="43.80915" lon="7.04293">
        <ele>1177.5</ele>
        <time>2021-08-21T17:48:28.000Z</time>
      </trkpt>
      <trkpt lat="43.80912" lon="7.04294">
        <ele>1179</ele>
        <time>2021-08-21T17:48:34.000Z</time>
      </trkpt>
      <trkpt lat="43.80911" lon="7.04297">
        <ele>1179.2</ele>
        <time>2021-08-21T17:48:39.000Z</time>
      </trkpt>
      <trkpt lat="43.8091" lon="7.04299">
        <ele>1179.5</ele>
        <time>2021-08-21T17:48:42.000Z</time>
      </trkpt>
      <trkpt lat="43.80908" lon="7.04306">
        <ele>1179.8</ele>
        <time>2021-08-21T17:48:49.000Z</time>
      </trkpt>
      <trkpt lat="43.80908" lon="7.04311">
        <ele>1179.6</ele>
        <time>2021-08-21T17:48:55.000Z</time>
      </trkpt>
      <trkpt lat="43.80907" lon="7.04314">
        <ele>1179.8</ele>
        <time>2021-08-21T17:48:57.000Z</time>
      </trkpt>
      <trkpt lat="43.80907" lon="7.04318">
        <ele>1179.4</ele>
        <time>2021-08-21T17:49:00.000Z</time>
      </trkpt>
      <trkpt lat="43.80907" lon="7.04324">
        <ele>1179.3</ele>
        <time>2021-08-21T17:49:07.000Z</time>
      </trkpt>
      <trkpt lat="43.80906" lon="7.04333">
        <ele>1179</ele>
        <time>2021-08-21T17:49:15.000Z</time>
      </trkpt>
      <trkpt lat="43.80905" lon="7.04335">
        <ele>1179.3</ele>
        <time>2021-08-21T17:49:17.000Z</time>
      </trkpt>
      <trkpt lat="43.80906" lon="7.04342">
        <ele>1179</ele>
        <time>2021-08-21T17:49:24.000Z</time>
      </trkpt>
      <trkpt lat="43.80906" lon="7.0435">
        <ele>1179.5</ele>
        <time>2021-08-21T17:49:33.000Z</time>
      </trkpt>
      <trkpt lat="43.80904" lon="7.04358">
        <ele>1180.6</ele>
        <time>2021-08-21T17:49:40.000Z</time>
      </trkpt>
      <trkpt lat="43.80902" lon="7.04362">
        <ele>1181.7</ele>
        <time>2021-08-21T17:49:45.000Z</time>
      </trkpt>
      <trkpt lat="43.80901" lon="7.0437">
        <ele>1182.3</ele>
        <time>2021-08-21T17:49:57.000Z</time>
      </trkpt>
      <trkpt lat="43.809" lon="7.04382">
        <ele>1183.2</ele>
        <time>2021-08-21T17:50:10.000Z</time>
      </trkpt>
      <trkpt lat="43.80902" lon="7.04388">
        <ele>1182.2</ele>
        <time>2021-08-21T17:50:17.000Z</time>
      </trkpt>
      <trkpt lat="43.80904" lon="7.04393">
        <ele>1181.1</ele>
        <time>2021-08-21T17:50:23.000Z</time>
      </trkpt>
      <trkpt lat="43.80905" lon="7.04394">
        <ele>1180.7</ele>
        <time>2021-08-21T17:50:24.000Z</time>
      </trkpt>
      <trkpt lat="43.8091" lon="7.04402">
        <ele>1178.5</ele>
        <time>2021-08-21T17:50:33.000Z</time>
      </trkpt>
      <trkpt lat="43.80911" lon="7.04407">
        <ele>1177.8</ele>
        <time>2021-08-21T17:50:40.000Z</time>
      </trkpt>
      <trkpt lat="43.80912" lon="7.04415">
        <ele>1177.5</ele>
        <time>2021-08-21T17:50:47.000Z</time>
      </trkpt>
      <trkpt lat="43.80912" lon="7.04418">
        <ele>1177.6</ele>
        <time>2021-08-21T17:50:51.000Z</time>
      </trkpt>
      <trkpt lat="43.80912" lon="7.04423">
        <ele>1176.9</ele>
        <time>2021-08-21T17:50:56.000Z</time>
      </trkpt>
      <trkpt lat="43.80913" lon="7.04429">
        <ele>1176</ele>
        <time>2021-08-21T17:51:01.000Z</time>
      </trkpt>
      <trkpt lat="43.80913" lon="7.04434">
        <ele>1175.9</ele>
        <time>2021-08-21T17:51:06.000Z</time>
      </trkpt>
      <trkpt lat="43.80912" lon="7.04442">
        <ele>1175.9</ele>
        <time>2021-08-21T17:51:13.000Z</time>
      </trkpt>
      <trkpt lat="43.80909" lon="7.04447">
        <ele>1176.9</ele>
        <time>2021-08-21T17:51:17.000Z</time>
      </trkpt>
      <trkpt lat="43.80907" lon="7.04452">
        <ele>1177.9</ele>
        <time>2021-08-21T17:51:21.000Z</time>
      </trkpt>
      <trkpt lat="43.80905" lon="7.04456">
        <ele>1178.4</ele>
        <time>2021-08-21T17:51:25.000Z</time>
      </trkpt>
      <trkpt lat="43.80902" lon="7.04462">
        <ele>1179.2</ele>
        <time>2021-08-21T17:51:32.000Z</time>
      </trkpt>
      <trkpt lat="43.80902" lon="7.04462">
        <ele>1179.5</ele>
        <time>2021-08-21T17:51:33.000Z</time>
      </trkpt>
      <trkpt lat="43.80899" lon="7.04472">
        <ele>1180.3</ele>
        <time>2021-08-21T17:51:43.000Z</time>
      </trkpt>
      <trkpt lat="43.80897" lon="7.04479">
        <ele>1180.5</ele>
        <time>2021-08-21T17:51:51.000Z</time>
      </trkpt>
      <trkpt lat="43.80894" lon="7.04479">
        <ele>1181.9</ele>
        <time>2021-08-21T18:10:31.000Z</time>
      </trkpt>
      <trkpt lat="43.80894" lon="7.04479">
        <ele>1182.1</ele>
        <time>2021-08-21T18:10:32.000Z</time>
      </trkpt>
      <trkpt lat="43.80892" lon="7.04481">
        <ele>1182.8</ele>
        <time>2021-08-21T18:10:35.000Z</time>
      </trkpt>
      <trkpt lat="43.80889" lon="7.04485">
        <ele>1183.8</ele>
        <time>2021-08-21T18:10:42.000Z</time>
      </trkpt>
      <trkpt lat="43.80886" lon="7.0449">
        <ele>1184.9</ele>
        <time>2021-08-21T18:10:50.000Z</time>
      </trkpt>
      <trkpt lat="43.80878" lon="7.04496">
        <ele>1187.9</ele>
        <time>2021-08-21T18:11:01.000Z</time>
      </trkpt>
      <trkpt lat="43.80875" lon="7.04498">
        <ele>1189.2</ele>
        <time>2021-08-21T18:11:05.000Z</time>
      </trkpt>
      <trkpt lat="43.8087" lon="7.04501">
        <ele>1191.1</ele>
        <time>2021-08-21T18:11:14.000Z</time>
      </trkpt>
      <trkpt lat="43.80866" lon="7.04503">
        <ele>1192.6</ele>
        <time>2021-08-21T18:11:21.000Z</time>
      </trkpt>
      <trkpt lat="43.80861" lon="7.04504">
        <ele>1194.4</ele>
        <time>2021-08-21T18:11:28.000Z</time>
      </trkpt>
      <trkpt lat="43.80857" lon="7.04508">
        <ele>1195.8</ele>
        <time>2021-08-21T18:11:37.000Z</time>
      </trkpt>
      <trkpt lat="43.80852" lon="7.0451">
        <ele>1197.4</ele>
        <time>2021-08-21T18:11:44.000Z</time>
      </trkpt>
      <trkpt lat="43.80846" lon="7.04512">
        <ele>1199.5</ele>
        <time>2021-08-21T18:11:51.000Z</time>
      </trkpt>
      <trkpt lat="43.80841" lon="7.04515">
        <ele>1201.1</ele>
        <time>2021-08-21T18:11:59.000Z</time>
      </trkpt>
      <trkpt lat="43.80837" lon="7.04518">
        <ele>1202.5</ele>
        <time>2021-08-21T18:12:06.000Z</time>
      </trkpt>
      <trkpt lat="43.80835" lon="7.04519">
        <ele>1203.2</ele>
        <time>2021-08-21T18:12:11.000Z</time>
      </trkpt>
      <trkpt lat="43.80828" lon="7.04524">
        <ele>1205.1</ele>
        <time>2021-08-21T18:12:20.000Z</time>
      </trkpt>
      <trkpt lat="43.80822" lon="7.04531">
        <ele>1206.7</ele>
        <time>2021-08-21T18:12:29.000Z</time>
      </trkpt>
      <trkpt lat="43.80816" lon="7.04535">
        <ele>1208.4</ele>
        <time>2021-08-21T18:12:37.000Z</time>
      </trkpt>
      <trkpt lat="43.80812" lon="7.04535">
        <ele>1210.2</ele>
        <time>2021-08-21T18:12:45.000Z</time>
      </trkpt>
      <trkpt lat="43.8081" lon="7.04536">
        <ele>1211.2</ele>
        <time>2021-08-21T18:12:50.000Z</time>
      </trkpt>
      <trkpt lat="43.80807" lon="7.0454">
        <ele>1211.7</ele>
        <time>2021-08-21T18:12:54.000Z</time>
      </trkpt>
      <trkpt lat="43.80806" lon="7.04544">
        <ele>1211.5</ele>
        <time>2021-08-21T18:12:58.000Z</time>
      </trkpt>
      <trkpt lat="43.80805" lon="7.04553">
        <ele>1209.9</ele>
        <time>2021-08-21T18:13:06.000Z</time>
      </trkpt>
      <trkpt lat="43.80806" lon="7.04554">
        <ele>1209.5</ele>
        <time>2021-08-21T18:13:07.000Z</time>
      </trkpt>
      <trkpt lat="43.80805" lon="7.04559">
        <ele>1208.7</ele>
        <time>2021-08-21T18:13:11.000Z</time>
      </trkpt>
      <trkpt lat="43.80802" lon="7.04568">
        <ele>1208.5</ele>
        <time>2021-08-21T18:13:21.000Z</time>
      </trkpt>
      <trkpt lat="43.80796" lon="7.04574">
        <ele>1210</ele>
        <time>2021-08-21T18:13:31.000Z</time>
      </trkpt>
      <trkpt lat="43.80792" lon="7.04582">
        <ele>1210.7</ele>
        <time>2021-08-21T18:13:41.000Z</time>
      </trkpt>
      <trkpt lat="43.80789" lon="7.04588">
        <ele>1210.9</ele>
        <time>2021-08-21T18:13:48.000Z</time>
      </trkpt>
      <trkpt lat="43.80785" lon="7.04594">
        <ele>1211.8</ele>
        <time>2021-08-21T18:13:55.000Z</time>
      </trkpt>
      <trkpt lat="43.80782" lon="7.04599">
        <ele>1212.6</ele>
        <time>2021-08-21T18:14:02.000Z</time>
      </trkpt>
      <trkpt lat="43.80779" lon="7.04602">
        <ele>1213.5</ele>
        <time>2021-08-21T18:14:07.000Z</time>
      </trkpt>
      <trkpt lat="43.80777" lon="7.04604">
        <ele>1214</ele>
        <time>2021-08-21T18:14:12.000Z</time>
      </trkpt>
      <trkpt lat="43.80776" lon="7.04609">
        <ele>1213.9</ele>
        <time>2021-08-21T18:14:20.000Z</time>
      </trkpt>
      <trkpt lat="43.80773" lon="7.04613">
        <ele>1214.7</ele>
        <time>2021-08-21T18:14:27.000Z</time>
      </trkpt>
      <trkpt lat="43.80769" lon="7.04616">
        <ele>1216.3</ele>
        <time>2021-08-21T18:14:34.000Z</time>
      </trkpt>
      <trkpt lat="43.80763" lon="7.04621">
        <ele>1218.2</ele>
        <time>2021-08-21T18:14:43.000Z</time>
      </trkpt>
      <trkpt lat="43.80761" lon="7.04626">
        <ele>1218.4</ele>
        <time>2021-08-21T18:14:51.000Z</time>
      </trkpt>
      <trkpt lat="43.80758" lon="7.04632">
        <ele>1218.7</ele>
        <time>2021-08-21T18:14:59.000Z</time>
      </trkpt>
      <trkpt lat="43.80754" lon="7.04636">
        <ele>1220</ele>
        <time>2021-08-21T18:15:07.000Z</time>
      </trkpt>
      <trkpt lat="43.80751" lon="7.04637">
        <ele>1221.2</ele>
        <time>2021-08-21T18:15:14.000Z</time>
      </trkpt>
      <trkpt lat="43.80747" lon="7.04641">
        <ele>1222.6</ele>
        <time>2021-08-21T18:15:25.000Z</time>
      </trkpt>
      <trkpt lat="43.80744" lon="7.04644">
        <ele>1223.5</ele>
        <time>2021-08-21T18:15:31.000Z</time>
      </trkpt>
      <trkpt lat="43.8074" lon="7.04647">
        <ele>1224.5</ele>
        <time>2021-08-21T18:15:39.000Z</time>
      </trkpt>
      <trkpt lat="43.80736" lon="7.04648">
        <ele>1225.6</ele>
        <time>2021-08-21T18:15:43.000Z</time>
      </trkpt>
      <trkpt lat="43.80733" lon="7.0465">
        <ele>1226.9</ele>
        <time>2021-08-21T18:15:47.000Z</time>
      </trkpt>
      <trkpt lat="43.80732" lon="7.04653">
        <ele>1226.6</ele>
        <time>2021-08-21T18:15:51.000Z</time>
      </trkpt>
      <trkpt lat="43.80732" lon="7.04655">
        <ele>1226.1</ele>
        <time>2021-08-21T18:15:53.000Z</time>
      </trkpt>
      <trkpt lat="43.80727" lon="7.0466">
        <ele>1227.4</ele>
        <time>2021-08-21T18:15:59.000Z</time>
      </trkpt>
      <trkpt lat="43.80727" lon="7.04661">
        <ele>1227.3</ele>
        <time>2021-08-21T18:16:00.000Z</time>
      </trkpt>
      <trkpt lat="43.80726" lon="7.04663">
        <ele>1227.5</ele>
        <time>2021-08-21T18:16:02.000Z</time>
      </trkpt>
      <trkpt lat="43.80721" lon="7.0467">
        <ele>1228</ele>
        <time>2021-08-21T18:16:11.000Z</time>
      </trkpt>
      <trkpt lat="43.80718" lon="7.04677">
        <ele>1227.4</ele>
        <time>2021-08-21T18:16:20.000Z</time>
      </trkpt>
      <trkpt lat="43.80714" lon="7.04683">
        <ele>1228</ele>
        <time>2021-08-21T18:16:27.000Z</time>
      </trkpt>
      <trkpt lat="43.8071" lon="7.04687">
        <ele>1228.6</ele>
        <time>2021-08-21T18:16:32.000Z</time>
      </trkpt>
      <trkpt lat="43.80707" lon="7.04688">
        <ele>1229.5</ele>
        <time>2021-08-21T18:16:36.000Z</time>
      </trkpt>
      <trkpt lat="43.80706" lon="7.04689">
        <ele>1229.9</ele>
        <time>2021-08-21T18:16:38.000Z</time>
      </trkpt>
      <trkpt lat="43.80699" lon="7.04697">
        <ele>1231.2</ele>
        <time>2021-08-21T18:16:49.000Z</time>
      </trkpt>
      <trkpt lat="43.80693" lon="7.04701">
        <ele>1232.7</ele>
        <time>2021-08-21T18:16:58.000Z</time>
      </trkpt>
      <trkpt lat="43.80688" lon="7.04705">
        <ele>1234</ele>
        <time>2021-08-21T18:17:06.000Z</time>
      </trkpt>
      <trkpt lat="43.80681" lon="7.04708">
        <ele>1236.3</ele>
        <time>2021-08-21T18:17:16.000Z</time>
      </trkpt>
      <trkpt lat="43.80677" lon="7.04713">
        <ele>1237.3</ele>
        <time>2021-08-21T18:17:24.000Z</time>
      </trkpt>
      <trkpt lat="43.80671" lon="7.04718">
        <ele>1238.6</ele>
        <time>2021-08-21T18:17:33.000Z</time>
      </trkpt>
      <trkpt lat="43.80666" lon="7.04722">
        <ele>1239.8</ele>
        <time>2021-08-21T18:17:41.000Z</time>
      </trkpt>
      <trkpt lat="43.8066" lon="7.04726">
        <ele>1241.2</ele>
        <time>2021-08-21T18:17:51.000Z</time>
      </trkpt>
      <trkpt lat="43.80656" lon="7.04727">
        <ele>1242.5</ele>
        <time>2021-08-21T18:18:00.000Z</time>
      </trkpt>
      <trkpt lat="43.80652" lon="7.04726">
        <ele>1243.7</ele>
        <time>2021-08-21T18:18:06.000Z</time>
      </trkpt>
      <trkpt lat="43.80648" lon="7.04728">
        <ele>1245</ele>
        <time>2021-08-21T18:18:15.000Z</time>
      </trkpt>
      <trkpt lat="43.80643" lon="7.0473">
        <ele>1246.2</ele>
        <time>2021-08-21T18:18:24.000Z</time>
      </trkpt>
      <trkpt lat="43.8064" lon="7.04734">
        <ele>1246.4</ele>
        <time>2021-08-21T18:18:32.000Z</time>
      </trkpt>
      <trkpt lat="43.80635" lon="7.04738">
        <ele>1247.4</ele>
        <time>2021-08-21T18:18:41.000Z</time>
      </trkpt>
      <trkpt lat="43.80632" lon="7.04744">
        <ele>1247.6</ele>
        <time>2021-08-21T18:18:49.000Z</time>
      </trkpt>
      <trkpt lat="43.80626" lon="7.0475">
        <ele>1248.6</ele>
        <time>2021-08-21T18:18:58.000Z</time>
      </trkpt>
      <trkpt lat="43.80621" lon="7.04753">
        <ele>1250</ele>
        <time>2021-08-21T18:19:05.000Z</time>
      </trkpt>
      <trkpt lat="43.80616" lon="7.04751">
        <ele>1252.1</ele>
        <time>2021-08-21T18:19:13.000Z</time>
      </trkpt>
      <trkpt lat="43.8061" lon="7.0475">
        <ele>1254.4</ele>
        <time>2021-08-21T18:19:21.000Z</time>
      </trkpt>
      <trkpt lat="43.80603" lon="7.04748">
        <ele>1257.1</ele>
        <time>2021-08-21T18:19:31.000Z</time>
      </trkpt>
      <trkpt lat="43.80597" lon="7.04747">
        <ele>1259.5</ele>
        <time>2021-08-21T18:19:40.000Z</time>
      </trkpt>
      <trkpt lat="43.8059" lon="7.04747">
        <ele>1261.9</ele>
        <time>2021-08-21T18:19:49.000Z</time>
      </trkpt>
      <trkpt lat="43.80586" lon="7.04748">
        <ele>1263.5</ele>
        <time>2021-08-21T18:19:55.000Z</time>
      </trkpt>
      <trkpt lat="43.80582" lon="7.04751">
        <ele>1264.3</ele>
        <time>2021-08-21T18:20:00.000Z</time>
      </trkpt>
      <trkpt lat="43.80579" lon="7.04759">
        <ele>1264.6</ele>
        <time>2021-08-21T18:20:09.000Z</time>
      </trkpt>
      <trkpt lat="43.80577" lon="7.04767">
        <ele>1264.3</ele>
        <time>2021-08-21T18:20:17.000Z</time>
      </trkpt>
      <trkpt lat="43.80574" lon="7.04773">
        <ele>1264.5</ele>
        <time>2021-08-21T18:20:25.000Z</time>
      </trkpt>
      <trkpt lat="43.8057" lon="7.04779">
        <ele>1265.6</ele>
        <time>2021-08-21T18:20:33.000Z</time>
      </trkpt>
      <trkpt lat="43.80566" lon="7.04785">
        <ele>1266.5</ele>
        <time>2021-08-21T18:20:41.000Z</time>
      </trkpt>
      <trkpt lat="43.80565" lon="7.04791">
        <ele>1266.2</ele>
        <time>2021-08-21T18:20:48.000Z</time>
      </trkpt>
      <trkpt lat="43.80562" lon="7.04799">
        <ele>1266.2</ele>
        <time>2021-08-21T18:20:56.000Z</time>
      </trkpt>
      <trkpt lat="43.80561" lon="7.04807">
        <ele>1265.6</ele>
        <time>2021-08-21T18:21:03.000Z</time>
      </trkpt>
      <trkpt lat="43.80559" lon="7.04815">
        <ele>1265.7</ele>
        <time>2021-08-21T18:21:11.000Z</time>
      </trkpt>
      <trkpt lat="43.80553" lon="7.04822">
        <ele>1267.1</ele>
        <time>2021-08-21T18:21:21.000Z</time>
      </trkpt>
      <trkpt lat="43.80549" lon="7.04827">
        <ele>1268.3</ele>
        <time>2021-08-21T18:21:30.000Z</time>
      </trkpt>
      <trkpt lat="43.80546" lon="7.04828">
        <ele>1269.4</ele>
        <time>2021-08-21T18:21:35.000Z</time>
      </trkpt>
      <trkpt lat="43.80543" lon="7.04833">
        <ele>1270.1</ele>
        <time>2021-08-21T18:21:42.000Z</time>
      </trkpt>
      <trkpt lat="43.80538" lon="7.04841">
        <ele>1271.7</ele>
        <time>2021-08-21T18:21:52.000Z</time>
      </trkpt>
      <trkpt lat="43.80532" lon="7.04849">
        <ele>1274.5</ele>
        <time>2021-08-21T18:22:04.000Z</time>
      </trkpt>
      <trkpt lat="43.80528" lon="7.04853">
        <ele>1276.1</ele>
        <time>2021-08-21T18:22:12.000Z</time>
      </trkpt>
      <trkpt lat="43.80526" lon="7.04863">
        <ele>1276.7</ele>
        <time>2021-08-21T18:22:21.000Z</time>
      </trkpt>
      <trkpt lat="43.80523" lon="7.04871">
        <ele>1277.8</ele>
        <time>2021-08-21T18:22:30.000Z</time>
      </trkpt>
      <trkpt lat="43.80523" lon="7.0488">
        <ele>1278</ele>
        <time>2021-08-21T18:22:40.000Z</time>
      </trkpt>
      <trkpt lat="43.80521" lon="7.04888">
        <ele>1278.5</ele>
        <time>2021-08-21T18:22:48.000Z</time>
      </trkpt>
      <trkpt lat="43.80518" lon="7.04897">
        <ele>1279.9</ele>
        <time>2021-08-21T18:22:58.000Z</time>
      </trkpt>
      <trkpt lat="43.80518" lon="7.04903">
        <ele>1279.9</ele>
        <time>2021-08-21T18:23:06.000Z</time>
      </trkpt>
      <trkpt lat="43.80515" lon="7.04911">
        <ele>1281</ele>
        <time>2021-08-21T18:23:14.000Z</time>
      </trkpt>
      <trkpt lat="43.80516" lon="7.04912">
        <ele>1280.9</ele>
        <time>2021-08-21T18:23:15.000Z</time>
      </trkpt>
      <trkpt lat="43.80514" lon="7.04922">
        <ele>1281.4</ele>
        <time>2021-08-21T18:23:24.000Z</time>
      </trkpt>
      <trkpt lat="43.80513" lon="7.04922">
        <ele>1281.7</ele>
        <time>2021-08-21T18:23:27.000Z</time>
      </trkpt>
      <trkpt lat="43.80513" lon="7.04933">
        <ele>1281.5</ele>
        <time>2021-08-21T18:23:35.000Z</time>
      </trkpt>
      <trkpt lat="43.80511" lon="7.04939">
        <ele>1282.5</ele>
        <time>2021-08-21T18:24:21.000Z</time>
      </trkpt>
      <trkpt lat="43.80506" lon="7.04946">
        <ele>1284.3</ele>
        <time>2021-08-21T18:24:29.000Z</time>
      </trkpt>
      <trkpt lat="43.80504" lon="7.0495">
        <ele>1285.4</ele>
        <time>2021-08-21T18:24:33.000Z</time>
      </trkpt>
      <trkpt lat="43.805" lon="7.04959">
        <ele>1287</ele>
        <time>2021-08-21T18:24:43.000Z</time>
      </trkpt>
      <trkpt lat="43.80496" lon="7.04965">
        <ele>1288.3</ele>
        <time>2021-08-21T18:24:51.000Z</time>
      </trkpt>
      <trkpt lat="43.80495" lon="7.04972">
        <ele>1288.8</ele>
        <time>2021-08-21T18:24:59.000Z</time>
      </trkpt>
      <trkpt lat="43.80492" lon="7.04977">
        <ele>1289.7</ele>
        <time>2021-08-21T18:25:07.000Z</time>
      </trkpt>
      <trkpt lat="43.8049" lon="7.04984">
        <ele>1290.4</ele>
        <time>2021-08-21T18:25:15.000Z</time>
      </trkpt>
      <trkpt lat="43.80488" lon="7.04988">
        <ele>1291.2</ele>
        <time>2021-08-21T18:25:20.000Z</time>
      </trkpt>
      <trkpt lat="43.80483" lon="7.04996">
        <ele>1292.7</ele>
        <time>2021-08-21T18:25:29.000Z</time>
      </trkpt>
      <trkpt lat="43.8048" lon="7.05004">
        <ele>1293.7</ele>
        <time>2021-08-21T18:25:38.000Z</time>
      </trkpt>
      <trkpt lat="43.80477" lon="7.05011">
        <ele>1294.3</ele>
        <time>2021-08-21T18:25:46.000Z</time>
      </trkpt>
      <trkpt lat="43.80475" lon="7.05015">
        <ele>1294.8</ele>
        <time>2021-08-21T18:25:53.000Z</time>
      </trkpt>
      <trkpt lat="43.80472" lon="7.05021">
        <ele>1295.5</ele>
        <time>2021-08-21T18:26:01.000Z</time>
      </trkpt>
      <trkpt lat="43.80467" lon="7.05027">
        <ele>1296.9</ele>
        <time>2021-08-21T18:26:10.000Z</time>
      </trkpt>
      <trkpt lat="43.80465" lon="7.05034">
        <ele>1297.2</ele>
        <time>2021-08-21T18:26:19.000Z</time>
      </trkpt>
      <trkpt lat="43.80461" lon="7.05037">
        <ele>1298.4</ele>
        <time>2021-08-21T18:26:28.000Z</time>
      </trkpt>
      <trkpt lat="43.80458" lon="7.05035">
        <ele>1300</ele>
        <time>2021-08-21T18:26:36.000Z</time>
      </trkpt>
      <trkpt lat="43.80454" lon="7.05037">
        <ele>1301.3</ele>
        <time>2021-08-21T18:26:43.000Z</time>
      </trkpt>
      <trkpt lat="43.80453" lon="7.05041">
        <ele>1301.3</ele>
        <time>2021-08-21T18:26:50.000Z</time>
      </trkpt>
      <trkpt lat="43.80452" lon="7.05047">
        <ele>1301.6</ele>
        <time>2021-08-21T18:26:58.000Z</time>
      </trkpt>
      <trkpt lat="43.80448" lon="7.05054">
        <ele>1302.4</ele>
        <time>2021-08-21T18:27:07.000Z</time>
      </trkpt>
      <trkpt lat="43.80445" lon="7.05059">
        <ele>1303.4</ele>
        <time>2021-08-21T18:27:16.000Z</time>
      </trkpt>
      <trkpt lat="43.80443" lon="7.05065">
        <ele>1303.5</ele>
        <time>2021-08-21T18:27:22.000Z</time>
      </trkpt>
      <trkpt lat="43.80441" lon="7.05067">
        <ele>1304.1</ele>
        <time>2021-08-21T18:27:28.000Z</time>
      </trkpt>
      <trkpt lat="43.80439" lon="7.05069">
        <ele>1305.1</ele>
        <time>2021-08-21T18:27:34.000Z</time>
      </trkpt>
      <trkpt lat="43.80434" lon="7.05069">
        <ele>1306.9</ele>
        <time>2021-08-21T18:27:41.000Z</time>
      </trkpt>
      <trkpt lat="43.8043" lon="7.05072">
        <ele>1308.3</ele>
        <time>2021-08-21T18:27:48.000Z</time>
      </trkpt>
      <trkpt lat="43.80426" lon="7.05074">
        <ele>1310.1</ele>
        <time>2021-08-21T18:27:56.000Z</time>
      </trkpt>
      <trkpt lat="43.80421" lon="7.05078">
        <ele>1311.7</ele>
        <time>2021-08-21T18:28:05.000Z</time>
      </trkpt>
      <trkpt lat="43.80416" lon="7.05081">
        <ele>1313.3</ele>
        <time>2021-08-21T18:28:13.000Z</time>
      </trkpt>
      <trkpt lat="43.80411" lon="7.05083">
        <ele>1314.3</ele>
        <time>2021-08-21T18:28:21.000Z</time>
      </trkpt>
      <trkpt lat="43.80408" lon="7.05085">
        <ele>1314.7</ele>
        <time>2021-08-21T18:28:27.000Z</time>
      </trkpt>
      <trkpt lat="43.80405" lon="7.05091">
        <ele>1314.1</ele>
        <time>2021-08-21T18:28:35.000Z</time>
      </trkpt>
      <trkpt lat="43.80403" lon="7.05096">
        <ele>1313.7</ele>
        <time>2021-08-21T18:28:40.000Z</time>
      </trkpt>
      <trkpt lat="43.80397" lon="7.05103">
        <ele>1313.8</ele>
        <time>2021-08-21T18:28:49.000Z</time>
      </trkpt>
      <trkpt lat="43.80394" lon="7.05105">
        <ele>1314</ele>
        <time>2021-08-21T18:28:53.000Z</time>
      </trkpt>
      <trkpt lat="43.80389" lon="7.05109">
        <ele>1314.7</ele>
        <time>2021-08-21T18:29:02.000Z</time>
      </trkpt>
      <trkpt lat="43.80383" lon="7.05112">
        <ele>1315.6</ele>
        <time>2021-08-21T18:29:10.000Z</time>
      </trkpt>
      <trkpt lat="43.80377" lon="7.05115">
        <ele>1316.4</ele>
        <time>2021-08-21T18:29:16.000Z</time>
      </trkpt>
      <trkpt lat="43.80373" lon="7.05122">
        <ele>1316.2</ele>
        <time>2021-08-21T18:29:24.000Z</time>
      </trkpt>
      <trkpt lat="43.80372" lon="7.05123">
        <ele>1316.3</ele>
        <time>2021-08-21T18:29:25.000Z</time>
      </trkpt>
      <trkpt lat="43.8037" lon="7.05125">
        <ele>1316.6</ele>
        <time>2021-08-21T18:29:29.000Z</time>
      </trkpt>
      <trkpt lat="43.80365" lon="7.05128">
        <ele>1317.5</ele>
        <time>2021-08-21T18:29:35.000Z</time>
      </trkpt>
      <trkpt lat="43.80362" lon="7.05131">
        <ele>1317.7</ele>
        <time>2021-08-21T18:29:40.000Z</time>
      </trkpt>
      <trkpt lat="43.80356" lon="7.05133">
        <ele>1319.1</ele>
        <time>2021-08-21T18:29:48.000Z</time>
      </trkpt>
      <trkpt lat="43.80355" lon="7.05136">
        <ele>1319.1</ele>
        <time>2021-08-21T18:29:51.000Z</time>
      </trkpt>
      <trkpt lat="43.80349" lon="7.05143">
        <ele>1319.6</ele>
        <time>2021-08-21T18:29:57.000Z</time>
      </trkpt>
      <trkpt lat="43.80343" lon="7.05147">
        <ele>1320.7</ele>
        <time>2021-08-21T18:30:02.000Z</time>
      </trkpt>
      <trkpt lat="43.80335" lon="7.05151">
        <ele>1322.5</ele>
        <time>2021-08-21T18:30:06.000Z</time>
      </trkpt>
      <trkpt lat="43.80332" lon="7.05151">
        <ele>1323.3</ele>
        <time>2021-08-21T18:30:11.000Z</time>
      </trkpt>
      <trkpt lat="43.80329" lon="7.05148">
        <ele>1323.9</ele>
        <time>2021-08-21T18:30:17.000Z</time>
      </trkpt>
      <trkpt lat="43.80327" lon="7.05143">
        <ele>1324.8</ele>
        <time>2021-08-21T18:30:26.000Z</time>
      </trkpt>
      <trkpt lat="43.80324" lon="7.05138">
        <ele>1325.6</ele>
        <time>2021-08-21T18:30:33.000Z</time>
      </trkpt>
      <trkpt lat="43.8032" lon="7.0514">
        <ele>1325.8</ele>
        <time>2021-08-21T18:30:37.000Z</time>
      </trkpt>
      <trkpt lat="43.80319" lon="7.0514">
        <ele>1325.8</ele>
        <time>2021-08-21T18:30:38.000Z</time>
      </trkpt>
      <trkpt lat="43.80314" lon="7.05143">
        <ele>1325.9</ele>
        <time>2021-08-21T18:30:44.000Z</time>
      </trkpt>
      <trkpt lat="43.8031" lon="7.05145">
        <ele>1326.2</ele>
        <time>2021-08-21T18:30:49.000Z</time>
      </trkpt>
      <trkpt lat="43.80308" lon="7.05148">
        <ele>1326.1</ele>
        <time>2021-08-21T18:30:53.000Z</time>
      </trkpt>
      <trkpt lat="43.80304" lon="7.05149">
        <ele>1326.3</ele>
        <time>2021-08-21T18:30:57.000Z</time>
      </trkpt>
      <trkpt lat="43.80295" lon="7.0515">
        <ele>1327.2</ele>
        <time>2021-08-21T18:31:32.000Z</time>
      </trkpt>
      <trkpt lat="43.80289" lon="7.0515">
        <ele>1327.8</ele>
        <time>2021-08-21T18:31:39.000Z</time>
      </trkpt>
      <trkpt lat="43.80288" lon="7.0515">
        <ele>1327.9</ele>
        <time>2021-08-21T18:31:40.000Z</time>
      </trkpt>
      <trkpt lat="43.80276" lon="7.05155">
        <ele>1328.7</ele>
        <time>2021-08-21T18:32:53.000Z</time>
      </trkpt>
      <trkpt lat="43.80274" lon="7.05156">
        <ele>1328.9</ele>
        <time>2021-08-21T18:32:55.000Z</time>
      </trkpt>
      <trkpt lat="43.80271" lon="7.05157">
        <ele>1329.1</ele>
        <time>2021-08-21T18:32:57.000Z</time>
      </trkpt>
      <trkpt lat="43.80266" lon="7.05159">
        <ele>1329.6</ele>
        <time>2021-08-21T18:33:04.000Z</time>
      </trkpt>
      <trkpt lat="43.80262" lon="7.05164">
        <ele>1329.7</ele>
        <time>2021-08-21T18:33:09.000Z</time>
      </trkpt>
      <trkpt lat="43.80261" lon="7.05166">
        <ele>1329.7</ele>
        <time>2021-08-21T18:33:12.000Z</time>
      </trkpt>
      <trkpt lat="43.80257" lon="7.05172">
        <ele>1330</ele>
        <time>2021-08-21T18:33:18.000Z</time>
      </trkpt>
      <trkpt lat="43.80255" lon="7.05176">
        <ele>1330.1</ele>
        <time>2021-08-21T18:33:23.000Z</time>
      </trkpt>
      <trkpt lat="43.80254" lon="7.0518">
        <ele>1330.2</ele>
        <time>2021-08-21T18:33:26.000Z</time>
      </trkpt>
      <trkpt lat="43.80251" lon="7.05185">
        <ele>1330.4</ele>
        <time>2021-08-21T18:33:32.000Z</time>
      </trkpt>
      <trkpt lat="43.80248" lon="7.05188">
        <ele>1330.7</ele>
        <time>2021-08-21T18:33:37.000Z</time>
      </trkpt>
      <trkpt lat="43.80244" lon="7.05191">
        <ele>1331.1</ele>
        <time>2021-08-21T18:33:43.000Z</time>
      </trkpt>
      <trkpt lat="43.80242" lon="7.052">
        <ele>1331</ele>
        <time>2021-08-21T18:33:51.000Z</time>
      </trkpt>
      <trkpt lat="43.80242" lon="7.0521">
        <ele>1330.8</ele>
        <time>2021-08-21T18:33:59.000Z</time>
      </trkpt>
      <trkpt lat="43.80242" lon="7.05212">
        <ele>1330.7</ele>
        <time>2021-08-21T18:34:01.000Z</time>
      </trkpt>
      <trkpt lat="43.8024" lon="7.05218">
        <ele>1330.8</ele>
        <time>2021-08-21T18:34:08.000Z</time>
      </trkpt>
      <trkpt lat="43.8024" lon="7.05225">
        <ele>1330.6</ele>
        <time>2021-08-21T18:34:15.000Z</time>
      </trkpt>
      <trkpt lat="43.80238" lon="7.05235">
        <ele>1330.7</ele>
        <time>2021-08-21T18:34:24.000Z</time>
      </trkpt>
      <trkpt lat="43.80237" lon="7.05242">
        <ele>1330.6</ele>
        <time>2021-08-21T18:34:30.000Z</time>
      </trkpt>
      <trkpt lat="43.80236" lon="7.05244">
        <ele>1330.7</ele>
        <time>2021-08-21T18:34:32.000Z</time>
      </trkpt>
      <trkpt lat="43.80238" lon="7.05252">
        <ele>1330.2</ele>
        <time>2021-08-21T18:34:39.000Z</time>
      </trkpt>
      <trkpt lat="43.80237" lon="7.05257">
        <ele>1330.2</ele>
        <time>2021-08-21T18:34:45.000Z</time>
      </trkpt>
      <trkpt lat="43.80233" lon="7.0526">
        <ele>1330.5</ele>
        <time>2021-08-21T18:34:49.000Z</time>
      </trkpt>
      <trkpt lat="43.80224" lon="7.05261">
        <ele>1331.4</ele>
        <time>2021-08-21T18:34:58.000Z</time>
      </trkpt>
      <trkpt lat="43.80222" lon="7.05261">
        <ele>1331.6</ele>
        <time>2021-08-21T18:35:00.000Z</time>
      </trkpt>
      <trkpt lat="43.80215" lon="7.05261">
        <ele>1332.4</ele>
        <time>2021-08-21T18:35:07.000Z</time>
      </trkpt>
      <trkpt lat="43.80205" lon="7.05261">
        <ele>1333.4</ele>
        <time>2021-08-21T18:35:17.000Z</time>
      </trkpt>
      <trkpt lat="43.80204" lon="7.05261">
        <ele>1333.5</ele>
        <time>2021-08-21T18:35:18.000Z</time>
      </trkpt>
      <trkpt lat="43.80196" lon="7.05259">
        <ele>1334.5</ele>
        <time>2021-08-21T18:35:28.000Z</time>
      </trkpt>
      <trkpt lat="43.80189" lon="7.0526">
        <ele>1335.1</ele>
        <time>2021-08-21T18:35:36.000Z</time>
      </trkpt>
      <trkpt lat="43.80182" lon="7.05262">
        <ele>1335.8</ele>
        <time>2021-08-21T18:35:45.000Z</time>
      </trkpt>
      <trkpt lat="43.80181" lon="7.05261">
        <ele>1335.9</ele>
        <time>2021-08-21T18:35:47.000Z</time>
      </trkpt>
      <trkpt lat="43.80179" lon="7.0526">
        <ele>1336.2</ele>
        <time>2021-08-21T18:35:54.000Z</time>
      </trkpt>
      <trkpt lat="43.80176" lon="7.05258">
        <ele>1336.6</ele>
        <time>2021-08-21T18:36:06.000Z</time>
      </trkpt>
      <trkpt lat="43.80173" lon="7.05256">
        <ele>1337</ele>
        <time>2021-08-21T18:36:51.000Z</time>
      </trkpt>
      <trkpt lat="43.80169" lon="7.05251">
        <ele>1337.7</ele>
        <time>2021-08-21T18:36:58.000Z</time>
      </trkpt>
      <trkpt lat="43.80165" lon="7.05247">
        <ele>1338.1</ele>
        <time>2021-08-21T18:37:05.000Z</time>
      </trkpt>
      <trkpt lat="43.80161" lon="7.05245">
        <ele>1338.3</ele>
        <time>2021-08-21T18:37:10.000Z</time>
      </trkpt>
      <trkpt lat="43.80153" lon="7.05242">
        <ele>1338.6</ele>
        <time>2021-08-21T18:37:20.000Z</time>
      </trkpt>
      <trkpt lat="43.80149" lon="7.0524">
        <ele>1338.8</ele>
        <time>2021-08-21T18:37:27.000Z</time>
      </trkpt>
      <trkpt lat="43.80145" lon="7.05239">
        <ele>1339</ele>
        <time>2021-08-21T18:37:34.000Z</time>
      </trkpt>
      <trkpt lat="43.8014" lon="7.05237">
        <ele>1339.2</ele>
        <time>2021-08-21T18:37:41.000Z</time>
      </trkpt>
      <trkpt lat="43.80134" lon="7.05237">
        <ele>1339.5</ele>
        <time>2021-08-21T18:37:50.000Z</time>
      </trkpt>
      <trkpt lat="43.80132" lon="7.05237">
        <ele>1339.5</ele>
        <time>2021-08-21T18:37:52.000Z</time>
      </trkpt>
      <trkpt lat="43.80127" lon="7.05239">
        <ele>1339.7</ele>
        <time>2021-08-21T18:37:57.000Z</time>
      </trkpt>
      <trkpt lat="43.80123" lon="7.05239">
        <ele>1339.8</ele>
        <time>2021-08-21T18:38:01.000Z</time>
      </trkpt>
      <trkpt lat="43.80122" lon="7.0524">
        <ele>1339.8</ele>
        <time>2021-08-21T18:38:03.000Z</time>
      </trkpt>
      <trkpt lat="43.80119" lon="7.05243">
        <ele>1339.9</ele>
        <time>2021-08-21T18:38:08.000Z</time>
      </trkpt>
      <trkpt lat="43.80115" lon="7.05248">
        <ele>1339.9</ele>
        <time>2021-08-21T18:38:16.000Z</time>
      </trkpt>
      <trkpt lat="43.80109" lon="7.0525">
        <ele>1340.1</ele>
        <time>2021-08-21T18:38:24.000Z</time>
      </trkpt>
      <trkpt lat="43.80108" lon="7.0525">
        <ele>1340.1</ele>
        <time>2021-08-21T18:38:25.000Z</time>
      </trkpt>
      <trkpt lat="43.80102" lon="7.0525">
        <ele>1340.3</ele>
        <time>2021-08-21T18:38:33.000Z</time>
      </trkpt>
      <trkpt lat="43.801" lon="7.05252">
        <ele>1340.3</ele>
        <time>2021-08-21T18:38:36.000Z</time>
      </trkpt>
      <trkpt lat="43.80094" lon="7.05255">
        <ele>1340.3</ele>
        <time>2021-08-21T18:38:44.000Z</time>
      </trkpt>
      <trkpt lat="43.80092" lon="7.05255">
        <ele>1340.3</ele>
        <time>2021-08-21T18:38:46.000Z</time>
      </trkpt>
      <trkpt lat="43.80088" lon="7.05256">
        <ele>1340.4</ele>
        <time>2021-08-21T18:38:50.000Z</time>
      </trkpt>
      <trkpt lat="43.80081" lon="7.05262">
        <ele>1340.4</ele>
        <time>2021-08-21T18:39:00.000Z</time>
      </trkpt>
      <trkpt lat="43.80078" lon="7.05264">
        <ele>1340.5</ele>
        <time>2021-08-21T18:39:04.000Z</time>
      </trkpt>
      <trkpt lat="43.80072" lon="7.05266">
        <ele>1341</ele>
        <time>2021-08-21T18:39:12.000Z</time>
      </trkpt>
      <trkpt lat="43.80069" lon="7.05267">
        <ele>1341.2</ele>
        <time>2021-08-21T18:39:15.000Z</time>
      </trkpt>
      <trkpt lat="43.80063" lon="7.0527">
        <ele>1341.7</ele>
        <time>2021-08-21T18:39:22.000Z</time>
      </trkpt>
      <trkpt lat="43.8006" lon="7.05272">
        <ele>1341.9</ele>
        <time>2021-08-21T18:39:27.000Z</time>
      </trkpt>
      <trkpt lat="43.80054" lon="7.05271">
        <ele>1342.6</ele>
        <time>2021-08-21T18:39:34.000Z</time>
      </trkpt>
      <trkpt lat="43.80051" lon="7.05273">
        <ele>1342.8</ele>
        <time>2021-08-21T18:40:45.000Z</time>
      </trkpt>
      <trkpt lat="43.80047" lon="7.05271">
        <ele>1343.4</ele>
        <time>2021-08-21T18:40:51.000Z</time>
      </trkpt>
      <trkpt lat="43.80042" lon="7.05274">
        <ele>1343.7</ele>
        <time>2021-08-21T18:40:57.000Z</time>
      </trkpt>
      <trkpt lat="43.80039" lon="7.05279">
        <ele>1343.9</ele>
        <time>2021-08-21T18:41:05.000Z</time>
      </trkpt>
      <trkpt lat="43.80035" lon="7.05283">
        <ele>1344.3</ele>
        <time>2021-08-21T18:41:13.000Z</time>
      </trkpt>
      <trkpt lat="43.80033" lon="7.05289">
        <ele>1344.4</ele>
        <time>2021-08-21T18:41:20.000Z</time>
      </trkpt>
      <trkpt lat="43.80033" lon="7.05294">
        <ele>1344.2</ele>
        <time>2021-08-21T18:41:24.000Z</time>
      </trkpt>
      <trkpt lat="43.80031" lon="7.05299">
        <ele>1344.4</ele>
        <time>2021-08-21T18:41:31.000Z</time>
      </trkpt>
      <trkpt lat="43.80029" lon="7.05296">
        <ele>1344.8</ele>
        <time>2021-08-21T18:41:37.000Z</time>
      </trkpt>
      <trkpt lat="43.80024" lon="7.05296">
        <ele>1345.4</ele>
        <time>2021-08-21T18:41:45.000Z</time>
      </trkpt>
      <trkpt lat="43.80023" lon="7.05301">
        <ele>1345.5</ele>
        <time>2021-08-21T18:41:53.000Z</time>
      </trkpt>
      <trkpt lat="43.80021" lon="7.053">
        <ele>1345.8</ele>
        <time>2021-08-21T18:41:59.000Z</time>
      </trkpt>
      <trkpt lat="43.8002" lon="7.05306">
        <ele>1345.9</ele>
        <time>2021-08-21T18:42:06.000Z</time>
      </trkpt>
      <trkpt lat="43.80017" lon="7.05305">
        <ele>1346.3</ele>
        <time>2021-08-21T18:42:12.000Z</time>
      </trkpt>
      <trkpt lat="43.80015" lon="7.0531">
        <ele>1346.6</ele>
        <time>2021-08-21T18:42:20.000Z</time>
      </trkpt>
      <trkpt lat="43.80013" lon="7.05312">
        <ele>1346.8</ele>
        <time>2021-08-21T18:42:25.000Z</time>
      </trkpt>
      <trkpt lat="43.80012" lon="7.05317">
        <ele>1347</ele>
        <time>2021-08-21T18:42:31.000Z</time>
      </trkpt>
      <trkpt lat="43.8001" lon="7.05322">
        <ele>1347.3</ele>
        <time>2021-08-21T18:42:39.000Z</time>
      </trkpt>
      <trkpt lat="43.80007" lon="7.0532">
        <ele>1347.8</ele>
        <time>2021-08-21T18:42:45.000Z</time>
      </trkpt>
      <trkpt lat="43.80005" lon="7.05327">
        <ele>1348.2</ele>
        <time>2021-08-21T18:42:54.000Z</time>
      </trkpt>
      <trkpt lat="43.80002" lon="7.05325">
        <ele>1348.6</ele>
        <time>2021-08-21T18:43:00.000Z</time>
      </trkpt>
      <trkpt lat="43.79999" lon="7.05325">
        <ele>1348.6</ele>
        <time>2021-08-21T18:43:06.000Z</time>
      </trkpt>
      <trkpt lat="43.79999" lon="7.05334">
        <ele>1348.7</ele>
        <time>2021-08-21T18:43:14.000Z</time>
      </trkpt>
      <trkpt lat="43.79998" lon="7.0534">
        <ele>1348.8</ele>
        <time>2021-08-21T18:43:21.000Z</time>
      </trkpt>
      <trkpt lat="43.79996" lon="7.05337">
        <ele>1348.2</ele>
        <time>2021-08-21T18:43:28.000Z</time>
      </trkpt>
      <trkpt lat="43.79992" lon="7.05339">
        <ele>1347.6</ele>
        <time>2021-08-21T18:43:34.000Z</time>
      </trkpt>
      <trkpt lat="43.79989" lon="7.05343">
        <ele>1347.1</ele>
        <time>2021-08-21T18:43:41.000Z</time>
      </trkpt>
      <trkpt lat="43.79986" lon="7.05348">
        <ele>1346.5</ele>
        <time>2021-08-21T18:43:49.000Z</time>
      </trkpt>
      <trkpt lat="43.79986" lon="7.05358">
        <ele>1346.7</ele>
        <time>2021-08-21T18:43:57.000Z</time>
      </trkpt>
      <trkpt lat="43.79981" lon="7.05364">
        <ele>1345.9</ele>
        <time>2021-08-21T18:44:02.000Z</time>
      </trkpt>
      <trkpt lat="43.79977" lon="7.05367">
        <ele>1345.2</ele>
        <time>2021-08-21T18:44:08.000Z</time>
      </trkpt>
      <trkpt lat="43.79974" lon="7.05406">
        <ele>1345.5</ele>
        <time>2021-08-21T18:49:14.000Z</time>
      </trkpt>
      <trkpt lat="43.79973" lon="7.05406">
        <ele>1345.2</ele>
        <time>2021-08-21T18:49:15.000Z</time>
      </trkpt>
      <trkpt lat="43.79973" lon="7.05413">
        <ele>1345.3</ele>
        <time>2021-08-21T18:49:22.000Z</time>
      </trkpt>
      <trkpt lat="43.79974" lon="7.0542">
        <ele>1345.9</ele>
        <time>2021-08-21T18:49:28.000Z</time>
      </trkpt>
      <trkpt lat="43.79974" lon="7.05435">
        <ele>1347.1</ele>
        <time>2021-08-21T18:49:39.000Z</time>
      </trkpt>
      <trkpt lat="43.79973" lon="7.05438">
        <ele>1347.2</ele>
        <time>2021-08-21T18:49:42.000Z</time>
      </trkpt>
      <trkpt lat="43.79974" lon="7.0545">
        <ele>1348.3</ele>
        <time>2021-08-21T18:49:52.000Z</time>
      </trkpt>
      <trkpt lat="43.79973" lon="7.05463">
        <ele>1349.2</ele>
        <time>2021-08-21T18:50:02.000Z</time>
      </trkpt>
      <trkpt lat="43.79972" lon="7.05473">
        <ele>1349.9</ele>
        <time>2021-08-21T18:50:11.000Z</time>
      </trkpt>
      <trkpt lat="43.79973" lon="7.05484">
        <ele>1350.8</ele>
        <time>2021-08-21T18:50:21.000Z</time>
      </trkpt>
      <trkpt lat="43.79973" lon="7.05493">
        <ele>1351.6</ele>
        <time>2021-08-21T18:50:28.000Z</time>
      </trkpt>
      <trkpt lat="43.79972" lon="7.05501">
        <ele>1352.1</ele>
        <time>2021-08-21T18:50:35.000Z</time>
      </trkpt>
      <trkpt lat="43.79974" lon="7.05509">
        <ele>1352.8</ele>
        <time>2021-08-21T18:50:44.000Z</time>
      </trkpt>
      <trkpt lat="43.79976" lon="7.05519">
        <ele>1353.8</ele>
        <time>2021-08-21T18:50:53.000Z</time>
      </trkpt>
      <trkpt lat="43.79978" lon="7.05528">
        <ele>1354.6</ele>
        <time>2021-08-21T18:51:01.000Z</time>
      </trkpt>
      <trkpt lat="43.79978" lon="7.05539">
        <ele>1355.1</ele>
        <time>2021-08-21T18:51:10.000Z</time>
      </trkpt>
      <trkpt lat="43.79979" lon="7.0555">
        <ele>1355.8</ele>
        <time>2021-08-21T18:51:19.000Z</time>
      </trkpt>
      <trkpt lat="43.7998" lon="7.05561">
        <ele>1356.5</ele>
        <time>2021-08-21T18:51:29.000Z</time>
      </trkpt>
      <trkpt lat="43.7998" lon="7.05569">
        <ele>1357</ele>
        <time>2021-08-21T18:51:37.000Z</time>
      </trkpt>
      <trkpt lat="43.7998" lon="7.05578">
        <ele>1357.4</ele>
        <time>2021-08-21T18:51:45.000Z</time>
      </trkpt>
      <trkpt lat="43.7998" lon="7.05585">
        <ele>1357.7</ele>
        <time>2021-08-21T18:51:52.000Z</time>
      </trkpt>
      <trkpt lat="43.79981" lon="7.05595">
        <ele>1358.6</ele>
        <time>2021-08-21T18:52:01.000Z</time>
      </trkpt>
      <trkpt lat="43.7998" lon="7.05608">
        <ele>1359.2</ele>
        <time>2021-08-21T18:52:12.000Z</time>
      </trkpt>
      <trkpt lat="43.79978" lon="7.05618">
        <ele>1359.4</ele>
        <time>2021-08-21T18:52:21.000Z</time>
      </trkpt>
      <trkpt lat="43.79976" lon="7.05628">
        <ele>1359.5</ele>
        <time>2021-08-21T18:52:30.000Z</time>
      </trkpt>
      <trkpt lat="43.79973" lon="7.05636">
        <ele>1359.5</ele>
        <time>2021-08-21T18:52:40.000Z</time>
      </trkpt>
      <trkpt lat="43.79973" lon="7.05639">
        <ele>1359.6</ele>
        <time>2021-08-21T18:52:45.000Z</time>
      </trkpt>
      <trkpt lat="43.79973" lon="7.05646">
        <ele>1360.1</ele>
        <time>2021-08-21T18:52:52.000Z</time>
      </trkpt>
      <trkpt lat="43.79971" lon="7.05653">
        <ele>1360.3</ele>
        <time>2021-08-21T18:52:58.000Z</time>
      </trkpt>
      <trkpt lat="43.79972" lon="7.05662">
        <ele>1360.9</ele>
        <time>2021-08-21T18:53:05.000Z</time>
      </trkpt>
      <trkpt lat="43.79971" lon="7.05672">
        <ele>1361.8</ele>
        <time>2021-08-21T18:53:14.000Z</time>
      </trkpt>
      <trkpt lat="43.79971" lon="7.05682">
        <ele>1362.7</ele>
        <time>2021-08-21T18:53:23.000Z</time>
      </trkpt>
      <trkpt lat="43.79971" lon="7.0569">
        <ele>1363.5</ele>
        <time>2021-08-21T18:53:30.000Z</time>
      </trkpt>
      <trkpt lat="43.79972" lon="7.05699">
        <ele>1364.6</ele>
        <time>2021-08-21T18:53:38.000Z</time>
      </trkpt>
      <trkpt lat="43.79972" lon="7.05701">
        <ele>1364.8</ele>
        <time>2021-08-21T18:53:40.000Z</time>
      </trkpt>
      <trkpt lat="43.79971" lon="7.05708">
        <ele>1365.3</ele>
        <time>2021-08-21T18:53:47.000Z</time>
      </trkpt>
      <trkpt lat="43.79969" lon="7.05714">
        <ele>1365.7</ele>
        <time>2021-08-21T18:53:54.000Z</time>
      </trkpt>
      <trkpt lat="43.79971" lon="7.0572">
        <ele>1366.5</ele>
        <time>2021-08-21T18:54:00.000Z</time>
      </trkpt>
      <trkpt lat="43.79971" lon="7.05723">
        <ele>1366.8</ele>
        <time>2021-08-21T18:54:03.000Z</time>
      </trkpt>
      <trkpt lat="43.79972" lon="7.0573">
        <ele>1367.7</ele>
        <time>2021-08-21T18:54:11.000Z</time>
      </trkpt>
      <trkpt lat="43.79972" lon="7.05739">
        <ele>1368.5</ele>
        <time>2021-08-21T18:54:19.000Z</time>
      </trkpt>
      <trkpt lat="43.7997" lon="7.05747">
        <ele>1369.3</ele>
        <time>2021-08-21T18:54:28.000Z</time>
      </trkpt>
      <trkpt lat="43.79965" lon="7.0578">
        <ele>1371.7</ele>
        <time>2021-08-21T18:58:01.000Z</time>
      </trkpt>
      <trkpt lat="43.79975" lon="7.05789">
        <ele>1373.2</ele>
        <time>2021-08-22T07:11:31.000Z</time>
      </trkpt>
      <trkpt lat="43.79973" lon="7.05794">
        <ele>1373.4</ele>
        <time>2021-08-22T07:11:37.000Z</time>
      </trkpt>
      <trkpt lat="43.79973" lon="7.058">
        <ele>1373.9</ele>
        <time>2021-08-22T07:11:43.000Z</time>
      </trkpt>
      <trkpt lat="43.79972" lon="7.05804">
        <ele>1374.2</ele>
        <time>2021-08-22T07:11:47.000Z</time>
      </trkpt>
      <trkpt lat="43.79971" lon="7.05806">
        <ele>1374.3</ele>
        <time>2021-08-22T07:11:49.000Z</time>
      </trkpt>
      <trkpt lat="43.79971" lon="7.05815">
        <ele>1375</ele>
        <time>2021-08-22T07:11:55.000Z</time>
      </trkpt>
      <trkpt lat="43.7997" lon="7.05815">
        <ele>1375</ele>
        <time>2021-08-22T07:11:56.000Z</time>
      </trkpt>
      <trkpt lat="43.79971" lon="7.05823">
        <ele>1375.7</ele>
        <time>2021-08-22T07:12:02.000Z</time>
      </trkpt>
      <trkpt lat="43.79968" lon="7.05831">
        <ele>1376.2</ele>
        <time>2021-08-22T07:12:09.000Z</time>
      </trkpt>
      <trkpt lat="43.79967" lon="7.05837">
        <ele>1376.5</ele>
        <time>2021-08-22T07:12:14.000Z</time>
      </trkpt>
      <trkpt lat="43.79967" lon="7.05842">
        <ele>1376.6</ele>
        <time>2021-08-22T07:12:18.000Z</time>
      </trkpt>
      <trkpt lat="43.79968" lon="7.05852">
        <ele>1376.8</ele>
        <time>2021-08-22T07:12:25.000Z</time>
      </trkpt>
      <trkpt lat="43.79967" lon="7.05862">
        <ele>1377.1</ele>
        <time>2021-08-22T07:12:31.000Z</time>
      </trkpt>
      <trkpt lat="43.79967" lon="7.05865">
        <ele>1377.1</ele>
        <time>2021-08-22T07:12:33.000Z</time>
      </trkpt>
      <trkpt lat="43.79968" lon="7.0588">
        <ele>1377.4</ele>
        <time>2021-08-22T07:12:42.000Z</time>
      </trkpt>
      <trkpt lat="43.79969" lon="7.05891">
        <ele>1377.7</ele>
        <time>2021-08-22T07:12:49.000Z</time>
      </trkpt>
      <trkpt lat="43.79969" lon="7.05894">
        <ele>1377.8</ele>
        <time>2021-08-22T07:12:51.000Z</time>
      </trkpt>
      <trkpt lat="43.79969" lon="7.05904">
        <ele>1378</ele>
        <time>2021-08-22T07:12:58.000Z</time>
      </trkpt>
      <trkpt lat="43.7997" lon="7.05912">
        <ele>1378.2</ele>
        <time>2021-08-22T07:13:03.000Z</time>
      </trkpt>
      <trkpt lat="43.79968" lon="7.05919">
        <ele>1378.3</ele>
        <time>2021-08-22T07:13:09.000Z</time>
      </trkpt>
      <trkpt lat="43.79968" lon="7.05924">
        <ele>1378.4</ele>
        <time>2021-08-22T07:13:13.000Z</time>
      </trkpt>
      <trkpt lat="43.79968" lon="7.05936">
        <ele>1378.6</ele>
        <time>2021-08-22T07:14:37.000Z</time>
      </trkpt>
      <trkpt lat="43.79967" lon="7.05947">
        <ele>1378.8</ele>
        <time>2021-08-22T07:14:44.000Z</time>
      </trkpt>
      <trkpt lat="43.79967" lon="7.05954">
        <ele>1378.9</ele>
        <time>2021-08-22T07:14:48.000Z</time>
      </trkpt>
      <trkpt lat="43.79966" lon="7.05959">
        <ele>1379</ele>
        <time>2021-08-22T07:14:52.000Z</time>
      </trkpt>
      <trkpt lat="43.79965" lon="7.05961">
        <ele>1379</ele>
        <time>2021-08-22T07:14:54.000Z</time>
      </trkpt>
      <trkpt lat="43.79964" lon="7.05972">
        <ele>1379.2</ele>
        <time>2021-08-22T07:15:01.000Z</time>
      </trkpt>
      <trkpt lat="43.79965" lon="7.05974">
        <ele>1379.2</ele>
        <time>2021-08-22T07:15:03.000Z</time>
      </trkpt>
      <trkpt lat="43.79965" lon="7.05975">
        <ele>1379.3</ele>
        <time>2021-08-22T07:15:06.000Z</time>
      </trkpt>
      <trkpt lat="43.79964" lon="7.05976">
        <ele>1379.3</ele>
        <time>2021-08-22T07:15:08.000Z</time>
      </trkpt>
      <trkpt lat="43.79963" lon="7.05987">
        <ele>1379.4</ele>
        <time>2021-08-22T07:15:15.000Z</time>
      </trkpt>
      <trkpt lat="43.79964" lon="7.05989">
        <ele>1379.5</ele>
        <time>2021-08-22T07:15:21.000Z</time>
      </trkpt>
      <trkpt lat="43.79966" lon="7.05994">
        <ele>1379.7</ele>
        <time>2021-08-22T07:15:27.000Z</time>
      </trkpt>
      <trkpt lat="43.79968" lon="7.06">
        <ele>1379.9</ele>
        <time>2021-08-22T07:15:32.000Z</time>
      </trkpt>
      <trkpt lat="43.79967" lon="7.06004">
        <ele>1379.5</ele>
        <time>2021-08-22T07:15:38.000Z</time>
      </trkpt>
      <trkpt lat="43.79968" lon="7.06009">
        <ele>1379.1</ele>
        <time>2021-08-22T07:15:43.000Z</time>
      </trkpt>
      <trkpt lat="43.79968" lon="7.06015">
        <ele>1378.6</ele>
        <time>2021-08-22T07:15:49.000Z</time>
      </trkpt>
      <trkpt lat="43.79968" lon="7.06016">
        <ele>1378.5</ele>
        <time>2021-08-22T07:15:50.000Z</time>
      </trkpt>
      <trkpt lat="43.79967" lon="7.06021">
        <ele>1378.1</ele>
        <time>2021-08-22T07:15:54.000Z</time>
      </trkpt>
      <trkpt lat="43.79967" lon="7.06024">
        <ele>1377.9</ele>
        <time>2021-08-22T07:15:56.000Z</time>
      </trkpt>
      <trkpt lat="43.79967" lon="7.06033">
        <ele>1377.1</ele>
        <time>2021-08-22T07:16:02.000Z</time>
      </trkpt>
      <trkpt lat="43.79967" lon="7.06043">
        <ele>1376.3</ele>
        <time>2021-08-22T07:16:09.000Z</time>
      </trkpt>
      <trkpt lat="43.79968" lon="7.06049">
        <ele>1375.8</ele>
        <time>2021-08-22T07:16:14.000Z</time>
      </trkpt>
      <trkpt lat="43.79967" lon="7.06051">
        <ele>1375.6</ele>
        <time>2021-08-22T07:16:16.000Z</time>
      </trkpt>
      <trkpt lat="43.79964" lon="7.06054">
        <ele>1375.3</ele>
        <time>2021-08-22T07:16:19.000Z</time>
      </trkpt>
      <trkpt lat="43.79963" lon="7.06059">
        <ele>1374.9</ele>
        <time>2021-08-22T07:16:24.000Z</time>
      </trkpt>
      <trkpt lat="43.79964" lon="7.06062">
        <ele>1374.7</ele>
        <time>2021-08-22T07:16:27.000Z</time>
      </trkpt>
      <trkpt lat="43.79962" lon="7.06073">
        <ele>1373.8</ele>
        <time>2021-08-22T07:16:34.000Z</time>
      </trkpt>
      <trkpt lat="43.79962" lon="7.06083">
        <ele>1373.1</ele>
        <time>2021-08-22T07:16:40.000Z</time>
      </trkpt>
      <trkpt lat="43.79962" lon="7.06085">
        <ele>1372.9</ele>
        <time>2021-08-22T07:16:42.000Z</time>
      </trkpt>
      <trkpt lat="43.79958" lon="7.06094">
        <ele>1372.3</ele>
        <time>2021-08-22T07:16:49.000Z</time>
      </trkpt>
      <trkpt lat="43.79958" lon="7.06097">
        <ele>1372.1</ele>
        <time>2021-08-22T07:16:51.000Z</time>
      </trkpt>
      <trkpt lat="43.79958" lon="7.06106">
        <ele>1371.5</ele>
        <time>2021-08-22T07:16:57.000Z</time>
      </trkpt>
      <trkpt lat="43.79954" lon="7.06115">
        <ele>1371</ele>
        <time>2021-08-22T07:17:03.000Z</time>
      </trkpt>
      <trkpt lat="43.79953" lon="7.06125">
        <ele>1370.4</ele>
        <time>2021-08-22T07:17:10.000Z</time>
      </trkpt>
      <trkpt lat="43.79953" lon="7.06128">
        <ele>1370.2</ele>
        <time>2021-08-22T07:17:12.000Z</time>
      </trkpt>
      <trkpt lat="43.7995" lon="7.06137">
        <ele>1369.8</ele>
        <time>2021-08-22T07:17:18.000Z</time>
      </trkpt>
      <trkpt lat="43.79955" lon="7.06143">
        <ele>1369.2</ele>
        <time>2021-08-22T07:17:23.000Z</time>
      </trkpt>
      <trkpt lat="43.79955" lon="7.06146">
        <ele>1369</ele>
        <time>2021-08-22T07:17:25.000Z</time>
      </trkpt>
      <trkpt lat="43.79955" lon="7.06153">
        <ele>1368.6</ele>
        <time>2021-08-22T07:17:30.000Z</time>
      </trkpt>
      <trkpt lat="43.79954" lon="7.06156">
        <ele>1368.4</ele>
        <time>2021-08-22T07:17:32.000Z</time>
      </trkpt>
      <trkpt lat="43.79955" lon="7.06163">
        <ele>1367.9</ele>
        <time>2021-08-22T07:17:39.000Z</time>
      </trkpt>
      <trkpt lat="43.79956" lon="7.0617">
        <ele>1367.3</ele>
        <time>2021-08-22T07:17:45.000Z</time>
      </trkpt>
      <trkpt lat="43.79957" lon="7.06181">
        <ele>1366.3</ele>
        <time>2021-08-22T07:17:52.000Z</time>
      </trkpt>
      <trkpt lat="43.79956" lon="7.06193">
        <ele>1365.3</ele>
        <time>2021-08-22T07:18:00.000Z</time>
      </trkpt>
      <trkpt lat="43.79956" lon="7.06203">
        <ele>1364.4</ele>
        <time>2021-08-22T07:18:07.000Z</time>
      </trkpt>
      <trkpt lat="43.79957" lon="7.0621">
        <ele>1363.7</ele>
        <time>2021-08-22T07:18:13.000Z</time>
      </trkpt>
      <trkpt lat="43.79955" lon="7.06217">
        <ele>1363.3</ele>
        <time>2021-08-22T07:18:18.000Z</time>
      </trkpt>
      <trkpt lat="43.79955" lon="7.06221">
        <ele>1362.9</ele>
        <time>2021-08-22T07:18:22.000Z</time>
      </trkpt>
      <trkpt lat="43.79955" lon="7.06227">
        <ele>1362.3</ele>
        <time>2021-08-22T07:18:28.000Z</time>
      </trkpt>
      <trkpt lat="43.79956" lon="7.06232">
        <ele>1361.8</ele>
        <time>2021-08-22T07:18:33.000Z</time>
      </trkpt>
      <trkpt lat="43.79954" lon="7.06236">
        <ele>1361.5</ele>
        <time>2021-08-22T07:18:38.000Z</time>
      </trkpt>
      <trkpt lat="43.79953" lon="7.06237">
        <ele>1361.5</ele>
        <time>2021-08-22T07:18:39.000Z</time>
      </trkpt>
      <trkpt lat="43.79954" lon="7.06243">
        <ele>1361</ele>
        <time>2021-08-22T07:18:43.000Z</time>
      </trkpt>
      <trkpt lat="43.79955" lon="7.06247">
        <ele>1360.5</ele>
        <time>2021-08-22T07:18:46.000Z</time>
      </trkpt>
      <trkpt lat="43.79954" lon="7.06251">
        <ele>1360.1</ele>
        <time>2021-08-22T07:18:50.000Z</time>
      </trkpt>
      <trkpt lat="43.79953" lon="7.06254">
        <ele>1359.8</ele>
        <time>2021-08-22T07:18:52.000Z</time>
      </trkpt>
      <trkpt lat="43.79956" lon="7.06263">
        <ele>1358.6</ele>
        <time>2021-08-22T07:18:56.000Z</time>
      </trkpt>
      <trkpt lat="43.79955" lon="7.06268">
        <ele>1358.1</ele>
        <time>2021-08-22T07:18:59.000Z</time>
      </trkpt>
      <trkpt lat="43.79952" lon="7.06271">
        <ele>1358</ele>
        <time>2021-08-22T07:19:02.000Z</time>
      </trkpt>
      <trkpt lat="43.79953" lon="7.06277">
        <ele>1357.1</ele>
        <time>2021-08-22T07:19:07.000Z</time>
      </trkpt>
      <trkpt lat="43.79954" lon="7.06285">
        <ele>1356</ele>
        <time>2021-08-22T07:19:12.000Z</time>
      </trkpt>
      <trkpt lat="43.79953" lon="7.06292">
        <ele>1355.3</ele>
        <time>2021-08-22T07:19:17.000Z</time>
      </trkpt>
      <trkpt lat="43.79952" lon="7.06299">
        <ele>1354.5</ele>
        <time>2021-08-22T07:19:22.000Z</time>
      </trkpt>
      <trkpt lat="43.79953" lon="7.06303">
        <ele>1353.9</ele>
        <time>2021-08-22T07:19:26.000Z</time>
      </trkpt>
      <trkpt lat="43.79952" lon="7.06309">
        <ele>1353.2</ele>
        <time>2021-08-22T07:19:30.000Z</time>
      </trkpt>
      <trkpt lat="43.79951" lon="7.06316">
        <ele>1352.5</ele>
        <time>2021-08-22T07:19:35.000Z</time>
      </trkpt>
      <trkpt lat="43.7995" lon="7.06321">
        <ele>1352.1</ele>
        <time>2021-08-22T07:19:39.000Z</time>
      </trkpt>
      <trkpt lat="43.7995" lon="7.06327">
        <ele>1351.4</ele>
        <time>2021-08-22T07:19:44.000Z</time>
      </trkpt>
      <trkpt lat="43.7995" lon="7.0633">
        <ele>1351.1</ele>
        <time>2021-08-22T07:19:46.000Z</time>
      </trkpt>
      <trkpt lat="43.7995" lon="7.06336">
        <ele>1350.3</ele>
        <time>2021-08-22T07:19:51.000Z</time>
      </trkpt>
      <trkpt lat="43.79949" lon="7.06345">
        <ele>1349.6</ele>
        <time>2021-08-22T07:19:58.000Z</time>
      </trkpt>
      <trkpt lat="43.79947" lon="7.06356">
        <ele>1348.7</ele>
        <time>2021-08-22T07:20:06.000Z</time>
      </trkpt>
      <trkpt lat="43.79944" lon="7.06366">
        <ele>1347.9</ele>
        <time>2021-08-22T07:20:12.000Z</time>
      </trkpt>
      <trkpt lat="43.79942" lon="7.06372">
        <ele>1347.5</ele>
        <time>2021-08-22T07:20:17.000Z</time>
      </trkpt>
      <trkpt lat="43.79942" lon="7.06384">
        <ele>1346.2</ele>
        <time>2021-08-22T07:20:24.000Z</time>
      </trkpt>
      <trkpt lat="43.79942" lon="7.0639">
        <ele>1345.6</ele>
        <time>2021-08-22T07:20:28.000Z</time>
      </trkpt>
      <trkpt lat="43.79944" lon="7.06399">
        <ele>1344.2</ele>
        <time>2021-08-22T07:20:34.000Z</time>
      </trkpt>
      <trkpt lat="43.79948" lon="7.06413">
        <ele>1342.3</ele>
        <time>2021-08-22T07:20:42.000Z</time>
      </trkpt>
      <trkpt lat="43.79948" lon="7.06423">
        <ele>1341.4</ele>
        <time>2021-08-22T07:20:49.000Z</time>
      </trkpt>
      <trkpt lat="43.79948" lon="7.06426">
        <ele>1341.2</ele>
        <time>2021-08-22T07:20:53.000Z</time>
      </trkpt>
      <trkpt lat="43.79948" lon="7.06427">
        <ele>1341.1</ele>
        <time>2021-08-22T07:20:54.000Z</time>
      </trkpt>
      <trkpt lat="43.79942" lon="7.06436">
        <ele>1341</ele>
        <time>2021-08-22T07:21:01.000Z</time>
      </trkpt>
      <trkpt lat="43.79939" lon="7.06443">
        <ele>1340.8</ele>
        <time>2021-08-22T07:21:06.000Z</time>
      </trkpt>
      <trkpt lat="43.79938" lon="7.06449">
        <ele>1340.4</ele>
        <time>2021-08-22T07:21:10.000Z</time>
      </trkpt>
      <trkpt lat="43.7994" lon="7.0646">
        <ele>1339.1</ele>
        <time>2021-08-22T07:21:17.000Z</time>
      </trkpt>
      <trkpt lat="43.79941" lon="7.06474">
        <ele>1337.9</ele>
        <time>2021-08-22T07:21:25.000Z</time>
      </trkpt>
      <trkpt lat="43.79943" lon="7.06482">
        <ele>1336.9</ele>
        <time>2021-08-22T07:21:31.000Z</time>
      </trkpt>
      <trkpt lat="43.79946" lon="7.06493">
        <ele>1335.8</ele>
        <time>2021-08-22T07:21:38.000Z</time>
      </trkpt>
      <trkpt lat="43.79949" lon="7.065">
        <ele>1334.9</ele>
        <time>2021-08-22T07:21:44.000Z</time>
      </trkpt>
      <trkpt lat="43.79949" lon="7.06506">
        <ele>1334.2</ele>
        <time>2021-08-22T07:21:51.000Z</time>
      </trkpt>
      <trkpt lat="43.7995" lon="7.0651">
        <ele>1333.7</ele>
        <time>2021-08-22T07:21:54.000Z</time>
      </trkpt>
      <trkpt lat="43.79951" lon="7.06519">
        <ele>1332.7</ele>
        <time>2021-08-22T07:22:00.000Z</time>
      </trkpt>
      <trkpt lat="43.79953" lon="7.06531">
        <ele>1331.2</ele>
        <time>2021-08-22T07:22:08.000Z</time>
      </trkpt>
      <trkpt lat="43.79955" lon="7.06542">
        <ele>1329.9</ele>
        <time>2021-08-22T07:22:15.000Z</time>
      </trkpt>
      <trkpt lat="43.79958" lon="7.06547">
        <ele>1329.3</ele>
        <time>2021-08-22T07:22:21.000Z</time>
      </trkpt>
      <trkpt lat="43.79959" lon="7.06548">
        <ele>1329.1</ele>
        <time>2021-08-22T07:22:22.000Z</time>
      </trkpt>
      <trkpt lat="43.79958" lon="7.06558">
        <ele>1328.1</ele>
        <time>2021-08-22T07:22:29.000Z</time>
      </trkpt>
      <trkpt lat="43.79955" lon="7.06562">
        <ele>1327.8</ele>
        <time>2021-08-22T07:22:33.000Z</time>
      </trkpt>
      <trkpt lat="43.79956" lon="7.06573">
        <ele>1326.6</ele>
        <time>2021-08-22T07:22:40.000Z</time>
      </trkpt>
      <trkpt lat="43.79959" lon="7.06584">
        <ele>1325.3</ele>
        <time>2021-08-22T07:22:47.000Z</time>
      </trkpt>
      <trkpt lat="43.7996" lon="7.06599">
        <ele>1322.9</ele>
        <time>2021-08-22T07:22:56.000Z</time>
      </trkpt>
      <trkpt lat="43.79963" lon="7.06607">
        <ele>1321.5</ele>
        <time>2021-08-22T07:23:02.000Z</time>
      </trkpt>
      <trkpt lat="43.79966" lon="7.06612">
        <ele>1320.7</ele>
        <time>2021-08-22T07:23:07.000Z</time>
      </trkpt>
      <trkpt lat="43.7997" lon="7.06613">
        <ele>1320.5</ele>
        <time>2021-08-22T07:23:50.000Z</time>
      </trkpt>
      <trkpt lat="43.79972" lon="7.06617">
        <ele>1319.8</ele>
        <time>2021-08-22T07:23:53.000Z</time>
      </trkpt>
      <trkpt lat="43.79975" lon="7.06624">
        <ele>1318.7</ele>
        <time>2021-08-22T07:24:00.000Z</time>
      </trkpt>
      <trkpt lat="43.79978" lon="7.06629">
        <ele>1317.8</ele>
        <time>2021-08-22T07:24:05.000Z</time>
      </trkpt>
      <trkpt lat="43.79981" lon="7.06635">
        <ele>1316.9</ele>
        <time>2021-08-22T07:24:13.000Z</time>
      </trkpt>
      <trkpt lat="43.79983" lon="7.06639">
        <ele>1316.2</ele>
        <time>2021-08-22T07:24:21.000Z</time>
      </trkpt>
      <trkpt lat="43.79985" lon="7.06643">
        <ele>1315.5</ele>
        <time>2021-08-22T07:24:26.000Z</time>
      </trkpt>
      <trkpt lat="43.79987" lon="7.06649">
        <ele>1314.6</ele>
        <time>2021-08-22T07:24:32.000Z</time>
      </trkpt>
      <trkpt lat="43.79987" lon="7.06654">
        <ele>1313.9</ele>
        <time>2021-08-22T07:24:38.000Z</time>
      </trkpt>
      <trkpt lat="43.79987" lon="7.06659">
        <ele>1313.1</ele>
        <time>2021-08-22T07:24:43.000Z</time>
      </trkpt>
      <trkpt lat="43.79987" lon="7.06663">
        <ele>1312.5</ele>
        <time>2021-08-22T07:24:48.000Z</time>
      </trkpt>
      <trkpt lat="43.79987" lon="7.06671">
        <ele>1311.2</ele>
        <time>2021-08-22T07:24:54.000Z</time>
      </trkpt>
      <trkpt lat="43.79988" lon="7.06675">
        <ele>1310.5</ele>
        <time>2021-08-22T07:24:57.000Z</time>
      </trkpt>
      <trkpt lat="43.79991" lon="7.06679">
        <ele>1309.6</ele>
        <time>2021-08-22T07:25:02.000Z</time>
      </trkpt>
      <trkpt lat="43.79991" lon="7.06686">
        <ele>1308.3</ele>
        <time>2021-08-22T07:25:10.000Z</time>
      </trkpt>
      <trkpt lat="43.79995" lon="7.06693">
        <ele>1307.1</ele>
        <time>2021-08-22T07:25:19.000Z</time>
      </trkpt>
      <trkpt lat="43.79996" lon="7.06699">
        <ele>1306</ele>
        <time>2021-08-22T07:25:25.000Z</time>
      </trkpt>
      <trkpt lat="43.79996" lon="7.06705">
        <ele>1305</ele>
        <time>2021-08-22T07:25:29.000Z</time>
      </trkpt>
      <trkpt lat="43.79995" lon="7.06714">
        <ele>1303.3</ele>
        <time>2021-08-22T07:25:36.000Z</time>
      </trkpt>
      <trkpt lat="43.79994" lon="7.06717">
        <ele>1302.7</ele>
        <time>2021-08-22T07:25:38.000Z</time>
      </trkpt>
      <trkpt lat="43.79992" lon="7.06722">
        <ele>1301.5</ele>
        <time>2021-08-22T07:25:43.000Z</time>
      </trkpt>
      <trkpt lat="43.79992" lon="7.06727">
        <ele>1300.6</ele>
        <time>2021-08-22T07:25:48.000Z</time>
      </trkpt>
      <trkpt lat="43.79992" lon="7.06729">
        <ele>1300.4</ele>
        <time>2021-08-22T07:25:49.000Z</time>
      </trkpt>
      <trkpt lat="43.79993" lon="7.06736">
        <ele>1299</ele>
        <time>2021-08-22T07:25:55.000Z</time>
      </trkpt>
      <trkpt lat="43.79997" lon="7.06742">
        <ele>1298.2</ele>
        <time>2021-08-22T07:26:01.000Z</time>
      </trkpt>
      <trkpt lat="43.80001" lon="7.06749">
        <ele>1296.8</ele>
        <time>2021-08-22T07:26:09.000Z</time>
      </trkpt>
      <trkpt lat="43.80002" lon="7.0675">
        <ele>1296.4</ele>
        <time>2021-08-22T07:26:10.000Z</time>
      </trkpt>
      <trkpt lat="43.80006" lon="7.06755">
        <ele>1294.3</ele>
        <time>2021-08-22T07:26:17.000Z</time>
      </trkpt>
      <trkpt lat="43.80007" lon="7.0676">
        <ele>1293.1</ele>
        <time>2021-08-22T07:26:21.000Z</time>
      </trkpt>
      <trkpt lat="43.80007" lon="7.06763">
        <ele>1292.6</ele>
        <time>2021-08-22T07:26:26.000Z</time>
      </trkpt>
      <trkpt lat="43.80008" lon="7.06772">
        <ele>1290.8</ele>
        <time>2021-08-22T07:26:32.000Z</time>
      </trkpt>
      <trkpt lat="43.8001" lon="7.06781">
        <ele>1288.6</ele>
        <time>2021-08-22T07:26:38.000Z</time>
      </trkpt>
      <trkpt lat="43.80009" lon="7.06785">
        <ele>1287.9</ele>
        <time>2021-08-22T07:26:42.000Z</time>
      </trkpt>
      <trkpt lat="43.80008" lon="7.06789">
        <ele>1287.5</ele>
        <time>2021-08-22T07:26:47.000Z</time>
      </trkpt>
      <trkpt lat="43.80008" lon="7.06798">
        <ele>1285.7</ele>
        <time>2021-08-22T07:26:53.000Z</time>
      </trkpt>
      <trkpt lat="43.80008" lon="7.06799">
        <ele>1285.7</ele>
        <time>2021-08-22T07:26:54.000Z</time>
      </trkpt>
      <trkpt lat="43.80006" lon="7.06809">
        <ele>1284.1</ele>
        <time>2021-08-22T07:27:01.000Z</time>
      </trkpt>
      <trkpt lat="43.80008" lon="7.06818">
        <ele>1282.1</ele>
        <time>2021-08-22T07:27:07.000Z</time>
      </trkpt>
      <trkpt lat="43.8001" lon="7.06826">
        <ele>1280.2</ele>
        <time>2021-08-22T07:27:12.000Z</time>
      </trkpt>
      <trkpt lat="43.80011" lon="7.06828">
        <ele>1279.6</ele>
        <time>2021-08-22T07:27:14.000Z</time>
      </trkpt>
      <trkpt lat="43.8001" lon="7.06836">
        <ele>1278.3</ele>
        <time>2021-08-22T07:27:21.000Z</time>
      </trkpt>
      <trkpt lat="43.8001" lon="7.06837">
        <ele>1277.9</ele>
        <time>2021-08-22T07:27:22.000Z</time>
      </trkpt>
      <trkpt lat="43.80012" lon="7.06845">
        <ele>1275.5</ele>
        <time>2021-08-22T07:27:29.000Z</time>
      </trkpt>
      <trkpt lat="43.80013" lon="7.06851">
        <ele>1274</ele>
        <time>2021-08-22T07:27:34.000Z</time>
      </trkpt>
      <trkpt lat="43.80017" lon="7.06855">
        <ele>1272.4</ele>
        <time>2021-08-22T07:27:39.000Z</time>
      </trkpt>
      <trkpt lat="43.80022" lon="7.06861">
        <ele>1270</ele>
        <time>2021-08-22T07:27:47.000Z</time>
      </trkpt>
      <trkpt lat="43.80024" lon="7.06861">
        <ele>1269.8</ele>
        <time>2021-08-22T07:27:49.000Z</time>
      </trkpt>
      <trkpt lat="43.80026" lon="7.06862">
        <ele>1269.3</ele>
        <time>2021-08-22T07:27:52.000Z</time>
      </trkpt>
      <trkpt lat="43.80031" lon="7.06864">
        <ele>1268</ele>
        <time>2021-08-22T07:27:58.000Z</time>
      </trkpt>
      <trkpt lat="43.80033" lon="7.06867">
        <ele>1267.1</ele>
        <time>2021-08-22T07:28:03.000Z</time>
      </trkpt>
      <trkpt lat="43.80034" lon="7.06872">
        <ele>1265.8</ele>
        <time>2021-08-22T07:28:09.000Z</time>
      </trkpt>
      <trkpt lat="43.80035" lon="7.06873">
        <ele>1265.4</ele>
        <time>2021-08-22T07:28:14.000Z</time>
      </trkpt>
      <trkpt lat="43.80038" lon="7.06876">
        <ele>1264.4</ele>
        <time>2021-08-22T07:28:20.000Z</time>
      </trkpt>
      <trkpt lat="43.8004" lon="7.0688">
        <ele>1263.3</ele>
        <time>2021-08-22T07:28:25.000Z</time>
      </trkpt>
      <trkpt lat="43.80043" lon="7.06884">
        <ele>1262</ele>
        <time>2021-08-22T07:28:32.000Z</time>
      </trkpt>
      <trkpt lat="43.80047" lon="7.06887">
        <ele>1260.9</ele>
        <time>2021-08-22T07:28:38.000Z</time>
      </trkpt>
      <trkpt lat="43.8005" lon="7.06892">
        <ele>1259.7</ele>
        <time>2021-08-22T07:28:44.000Z</time>
      </trkpt>
      <trkpt lat="43.80054" lon="7.069">
        <ele>1257.8</ele>
        <time>2021-08-22T07:28:54.000Z</time>
      </trkpt>
      <trkpt lat="43.80054" lon="7.069">
        <ele>1257.7</ele>
        <time>2021-08-22T07:28:58.000Z</time>
      </trkpt>
      <trkpt lat="43.80056" lon="7.06907">
        <ele>1256.4</ele>
        <time>2021-08-22T07:29:03.000Z</time>
      </trkpt>
      <trkpt lat="43.80056" lon="7.06915">
        <ele>1254.9</ele>
        <time>2021-08-22T07:29:08.000Z</time>
      </trkpt>
      <trkpt lat="43.80057" lon="7.06917">
        <ele>1254.4</ele>
        <time>2021-08-22T07:29:10.000Z</time>
      </trkpt>
      <trkpt lat="43.80059" lon="7.0692">
        <ele>1253.6</ele>
        <time>2021-08-22T07:29:16.000Z</time>
      </trkpt>
      <trkpt lat="43.80059" lon="7.06925">
        <ele>1252.6</ele>
        <time>2021-08-22T07:29:21.000Z</time>
      </trkpt>
      <trkpt lat="43.80063" lon="7.06928">
        <ele>1251.8</ele>
        <time>2021-08-22T07:29:26.000Z</time>
      </trkpt>
      <trkpt lat="43.80063" lon="7.06931">
        <ele>1251.2</ele>
        <time>2021-08-22T07:29:29.000Z</time>
      </trkpt>
      <trkpt lat="43.80063" lon="7.06931">
        <ele>1251.2</ele>
        <time>2021-08-22T07:29:29.000Z</time>
      </trkpt>
      <trkpt lat="43.80063" lon="7.06932">
        <ele>1250.9</ele>
        <time>2021-08-22T07:29:32.000Z</time>
      </trkpt>
      <trkpt lat="43.80063" lon="7.06933">
        <ele>1250.9</ele>
        <time>2021-08-22T07:29:37.000Z</time>
      </trkpt>
      <trkpt lat="43.80065" lon="7.06937">
        <ele>1250</ele>
        <time>2021-08-22T07:29:41.000Z</time>
      </trkpt>
      <trkpt lat="43.80067" lon="7.06939">
        <ele>1249.5</ele>
        <time>2021-08-22T07:29:43.000Z</time>
      </trkpt>
      <trkpt lat="43.80066" lon="7.06944">
        <ele>1248.6</ele>
        <time>2021-08-22T07:29:47.000Z</time>
      </trkpt>
      <trkpt lat="43.80066" lon="7.06948">
        <ele>1247.8</ele>
        <time>2021-08-22T07:29:50.000Z</time>
      </trkpt>
      <trkpt lat="43.80064" lon="7.06956">
        <ele>1246.5</ele>
        <time>2021-08-22T07:29:54.000Z</time>
      </trkpt>
      <trkpt lat="43.80061" lon="7.06963">
        <ele>1245.1</ele>
        <time>2021-08-22T07:30:00.000Z</time>
      </trkpt>
      <trkpt lat="43.80061" lon="7.06968">
        <ele>1244.1</ele>
        <time>2021-08-22T07:30:05.000Z</time>
      </trkpt>
      <trkpt lat="43.80061" lon="7.06969">
        <ele>1243.9</ele>
        <time>2021-08-22T07:30:06.000Z</time>
      </trkpt>
      <trkpt lat="43.80063" lon="7.06974">
        <ele>1243</ele>
        <time>2021-08-22T07:30:11.000Z</time>
      </trkpt>
      <trkpt lat="43.80065" lon="7.06984">
        <ele>1241</ele>
        <time>2021-08-22T07:30:21.000Z</time>
      </trkpt>
      <trkpt lat="43.80065" lon="7.06985">
        <ele>1240.9</ele>
        <time>2021-08-22T07:30:22.000Z</time>
      </trkpt>
      <trkpt lat="43.80069" lon="7.06994">
        <ele>1239.5</ele>
        <time>2021-08-22T07:30:29.000Z</time>
      </trkpt>
      <trkpt lat="43.80075" lon="7.07002">
        <ele>1238.2</ele>
        <time>2021-08-22T07:30:36.000Z</time>
      </trkpt>
      <trkpt lat="43.80076" lon="7.07007">
        <ele>1237.6</ele>
        <time>2021-08-22T07:30:39.000Z</time>
      </trkpt>
      <trkpt lat="43.80076" lon="7.07013">
        <ele>1236.6</ele>
        <time>2021-08-22T07:30:44.000Z</time>
      </trkpt>
      <trkpt lat="43.80077" lon="7.07017">
        <ele>1236</ele>
        <time>2021-08-22T07:30:47.000Z</time>
      </trkpt>
      <trkpt lat="43.80076" lon="7.07022">
        <ele>1235.1</ele>
        <time>2021-08-22T07:30:52.000Z</time>
      </trkpt>
      <trkpt lat="43.80073" lon="7.07026">
        <ele>1234.2</ele>
        <time>2021-08-22T07:30:56.000Z</time>
      </trkpt>
      <trkpt lat="43.80071" lon="7.07035">
        <ele>1232.6</ele>
        <time>2021-08-22T07:31:03.000Z</time>
      </trkpt>
      <trkpt lat="43.80071" lon="7.07041">
        <ele>1231.6</ele>
        <time>2021-08-22T07:31:07.000Z</time>
      </trkpt>
      <trkpt lat="43.80074" lon="7.07049">
        <ele>1230.5</ele>
        <time>2021-08-22T07:31:13.000Z</time>
      </trkpt>
      <trkpt lat="43.80076" lon="7.07054">
        <ele>1229.9</ele>
        <time>2021-08-22T07:31:18.000Z</time>
      </trkpt>
      <trkpt lat="43.80079" lon="7.07062">
        <ele>1229</ele>
        <time>2021-08-22T07:31:23.000Z</time>
      </trkpt>
      <trkpt lat="43.80077" lon="7.07064">
        <ele>1228.4</ele>
        <time>2021-08-22T07:31:27.000Z</time>
      </trkpt>
      <trkpt lat="43.80073" lon="7.07075">
        <ele>1226.3</ele>
        <time>2021-08-22T07:31:36.000Z</time>
      </trkpt>
      <trkpt lat="43.80073" lon="7.07082">
        <ele>1225</ele>
        <time>2021-08-22T07:31:41.000Z</time>
      </trkpt>
      <trkpt lat="43.80072" lon="7.07085">
        <ele>1224.6</ele>
        <time>2021-08-22T07:31:43.000Z</time>
      </trkpt>
      <trkpt lat="43.80072" lon="7.0709">
        <ele>1223.8</ele>
        <time>2021-08-22T07:31:49.000Z</time>
      </trkpt>
      <trkpt lat="43.80072" lon="7.0709">
        <ele>1223.9</ele>
        <time>2021-08-22T07:31:53.000Z</time>
      </trkpt>
      <trkpt lat="43.80072" lon="7.07092">
        <ele>1223.7</ele>
        <time>2021-08-22T07:31:56.000Z</time>
      </trkpt>
      <trkpt lat="43.80073" lon="7.07098">
        <ele>1222.9</ele>
        <time>2021-08-22T07:32:03.000Z</time>
      </trkpt>
      <trkpt lat="43.80073" lon="7.07101">
        <ele>1222.4</ele>
        <time>2021-08-22T07:32:08.000Z</time>
      </trkpt>
      <trkpt lat="43.80073" lon="7.07104">
        <ele>1222</ele>
        <time>2021-08-22T07:32:13.000Z</time>
      </trkpt>
      <trkpt lat="43.80074" lon="7.07107">
        <ele>1221.6</ele>
        <time>2021-08-22T07:32:15.000Z</time>
      </trkpt>
      <trkpt lat="43.80073" lon="7.07114">
        <ele>1220.6</ele>
        <time>2021-08-22T07:32:21.000Z</time>
      </trkpt>
      <trkpt lat="43.80071" lon="7.07123">
        <ele>1219.3</ele>
        <time>2021-08-22T07:32:27.000Z</time>
      </trkpt>
      <trkpt lat="43.80072" lon="7.07128">
        <ele>1218.6</ele>
        <time>2021-08-22T07:32:31.000Z</time>
      </trkpt>
      <trkpt lat="43.80075" lon="7.07133">
        <ele>1218.1</ele>
        <time>2021-08-22T07:32:39.000Z</time>
      </trkpt>
      <trkpt lat="43.80076" lon="7.07134">
        <ele>1218.2</ele>
        <time>2021-08-22T07:32:44.000Z</time>
      </trkpt>
      <trkpt lat="43.80076" lon="7.07135">
        <ele>1217.9</ele>
        <time>2021-08-22T07:32:47.000Z</time>
      </trkpt>
      <trkpt lat="43.80076" lon="7.07142">
        <ele>1217</ele>
        <time>2021-08-22T07:32:51.000Z</time>
      </trkpt>
      <trkpt lat="43.80073" lon="7.07143">
        <ele>1216.6</ele>
        <time>2021-08-22T07:32:56.000Z</time>
      </trkpt>
      <trkpt lat="43.80073" lon="7.07147">
        <ele>1216.1</ele>
        <time>2021-08-22T07:32:59.000Z</time>
      </trkpt>
      <trkpt lat="43.80072" lon="7.07148">
        <ele>1215.9</ele>
        <time>2021-08-22T07:33:00.000Z</time>
      </trkpt>
      <trkpt lat="43.80072" lon="7.07157">
        <ele>1214.6</ele>
        <time>2021-08-22T07:33:06.000Z</time>
      </trkpt>
      <trkpt lat="43.80071" lon="7.07163">
        <ele>1213.7</ele>
        <time>2021-08-22T07:33:10.000Z</time>
      </trkpt>
      <trkpt lat="43.80071" lon="7.07169">
        <ele>1213</ele>
        <time>2021-08-22T07:33:14.000Z</time>
      </trkpt>
      <trkpt lat="43.80067" lon="7.07176">
        <ele>1212.1</ele>
        <time>2021-08-22T07:33:19.000Z</time>
      </trkpt>
      <trkpt lat="43.80067" lon="7.07182">
        <ele>1211.5</ele>
        <time>2021-08-22T07:33:23.000Z</time>
      </trkpt>
      <trkpt lat="43.80067" lon="7.07186">
        <ele>1211.2</ele>
        <time>2021-08-22T07:33:25.000Z</time>
      </trkpt>
      <trkpt lat="43.8007" lon="7.07192">
        <ele>1210.8</ele>
        <time>2021-08-22T07:33:29.000Z</time>
      </trkpt>
      <trkpt lat="43.80072" lon="7.07194">
        <ele>1210.7</ele>
        <time>2021-08-22T07:33:31.000Z</time>
      </trkpt>
      <trkpt lat="43.80073" lon="7.07201">
        <ele>1210.1</ele>
        <time>2021-08-22T07:33:36.000Z</time>
      </trkpt>
      <trkpt lat="43.80072" lon="7.07209">
        <ele>1209.4</ele>
        <time>2021-08-22T07:33:41.000Z</time>
      </trkpt>
      <trkpt lat="43.80071" lon="7.07214">
        <ele>1208.8</ele>
        <time>2021-08-22T07:33:46.000Z</time>
      </trkpt>
      <trkpt lat="43.8007" lon="7.07216">
        <ele>1208.5</ele>
        <time>2021-08-22T07:33:48.000Z</time>
      </trkpt>
      <trkpt lat="43.80071" lon="7.07222">
        <ele>1208</ele>
        <time>2021-08-22T07:33:52.000Z</time>
      </trkpt>
      <trkpt lat="43.8007" lon="7.07224">
        <ele>1207.8</ele>
        <time>2021-08-22T07:33:57.000Z</time>
      </trkpt>
      <trkpt lat="43.80071" lon="7.07232">
        <ele>1207.1</ele>
        <time>2021-08-22T07:34:03.000Z</time>
      </trkpt>
      <trkpt lat="43.80075" lon="7.07237">
        <ele>1207.1</ele>
        <time>2021-08-22T07:34:08.000Z</time>
      </trkpt>
      <trkpt lat="43.80079" lon="7.07239">
        <ele>1207.4</ele>
        <time>2021-08-22T07:34:12.000Z</time>
      </trkpt>
      <trkpt lat="43.80086" lon="7.0725">
        <ele>1206.5</ele>
        <time>2021-08-22T07:37:43.000Z</time>
      </trkpt>
      <trkpt lat="43.80087" lon="7.07255">
        <ele>1205.7</ele>
        <time>2021-08-22T07:37:47.000Z</time>
      </trkpt>
      <trkpt lat="43.80088" lon="7.07264">
        <ele>1204.4</ele>
        <time>2021-08-22T07:37:52.000Z</time>
      </trkpt>
      <trkpt lat="43.80087" lon="7.07271">
        <ele>1203.7</ele>
        <time>2021-08-22T07:37:57.000Z</time>
      </trkpt>
      <trkpt lat="43.80086" lon="7.0728">
        <ele>1202.8</ele>
        <time>2021-08-22T07:38:03.000Z</time>
      </trkpt>
      <trkpt lat="43.80086" lon="7.07288">
        <ele>1201.5</ele>
        <time>2021-08-22T07:38:08.000Z</time>
      </trkpt>
      <trkpt lat="43.80086" lon="7.07289">
        <ele>1201.4</ele>
        <time>2021-08-22T07:38:09.000Z</time>
      </trkpt>
      <trkpt lat="43.80093" lon="7.07303">
        <ele>1198.7</ele>
        <time>2021-08-22T07:38:18.000Z</time>
      </trkpt>
      <trkpt lat="43.80093" lon="7.07304">
        <ele>1198.5</ele>
        <time>2021-08-22T07:38:19.000Z</time>
      </trkpt>
      <trkpt lat="43.80094" lon="7.07312">
        <ele>1197.4</ele>
        <time>2021-08-22T07:38:24.000Z</time>
      </trkpt>
      <trkpt lat="43.80096" lon="7.07324">
        <ele>1195.7</ele>
        <time>2021-08-22T07:38:31.000Z</time>
      </trkpt>
      <trkpt lat="43.80097" lon="7.07329">
        <ele>1194.8</ele>
        <time>2021-08-22T07:38:35.000Z</time>
      </trkpt>
      <trkpt lat="43.80098" lon="7.07332">
        <ele>1194.4</ele>
        <time>2021-08-22T07:38:38.000Z</time>
      </trkpt>
      <trkpt lat="43.80099" lon="7.0734">
        <ele>1193.1</ele>
        <time>2021-08-22T07:38:43.000Z</time>
      </trkpt>
      <trkpt lat="43.80099" lon="7.07341">
        <ele>1192.9</ele>
        <time>2021-08-22T07:38:44.000Z</time>
      </trkpt>
      <trkpt lat="43.80099" lon="7.07344">
        <ele>1192.5</ele>
        <time>2021-08-22T07:38:46.000Z</time>
      </trkpt>
      <trkpt lat="43.80095" lon="7.0735">
        <ele>1192</ele>
        <time>2021-08-22T07:38:51.000Z</time>
      </trkpt>
      <trkpt lat="43.80095" lon="7.0736">
        <ele>1190.5</ele>
        <time>2021-08-22T07:38:57.000Z</time>
      </trkpt>
      <trkpt lat="43.80096" lon="7.07366">
        <ele>1189.4</ele>
        <time>2021-08-22T07:39:02.000Z</time>
      </trkpt>
      <trkpt lat="43.80095" lon="7.07369">
        <ele>1189.1</ele>
        <time>2021-08-22T07:39:05.000Z</time>
      </trkpt>
      <trkpt lat="43.80097" lon="7.07375">
        <ele>1188.1</ele>
        <time>2021-08-22T07:39:11.000Z</time>
      </trkpt>
      <trkpt lat="43.80095" lon="7.0738">
        <ele>1187.3</ele>
        <time>2021-08-22T07:39:15.000Z</time>
      </trkpt>
      <trkpt lat="43.80096" lon="7.07388">
        <ele>1186</ele>
        <time>2021-08-22T07:39:22.000Z</time>
      </trkpt>
      <trkpt lat="43.80096" lon="7.0739">
        <ele>1185.8</ele>
        <time>2021-08-22T07:39:27.000Z</time>
      </trkpt>
      <trkpt lat="43.80098" lon="7.07394">
        <ele>1185</ele>
        <time>2021-08-22T07:39:32.000Z</time>
      </trkpt>
      <trkpt lat="43.80098" lon="7.07396">
        <ele>1184.8</ele>
        <time>2021-08-22T07:39:37.000Z</time>
      </trkpt>
      <trkpt lat="43.80097" lon="7.07398">
        <ele>1184.5</ele>
        <time>2021-08-22T07:39:41.000Z</time>
      </trkpt>
      <trkpt lat="43.80098" lon="7.07401">
        <ele>1183.9</ele>
        <time>2021-08-22T07:39:48.000Z</time>
      </trkpt>
      <trkpt lat="43.80099" lon="7.07402">
        <ele>1183.8</ele>
        <time>2021-08-22T07:39:51.000Z</time>
      </trkpt>
      <trkpt lat="43.80099" lon="7.07408">
        <ele>1182.9</ele>
        <time>2021-08-22T07:39:57.000Z</time>
      </trkpt>
      <trkpt lat="43.801" lon="7.07413">
        <ele>1182.1</ele>
        <time>2021-08-22T07:40:02.000Z</time>
      </trkpt>
      <trkpt lat="43.80101" lon="7.07414">
        <ele>1182</ele>
        <time>2021-08-22T07:40:08.000Z</time>
      </trkpt>
      <trkpt lat="43.80101" lon="7.07418">
        <ele>1181.4</ele>
        <time>2021-08-22T07:40:12.000Z</time>
      </trkpt>
      <trkpt lat="43.80102" lon="7.07425">
        <ele>1180.7</ele>
        <time>2021-08-22T07:40:19.000Z</time>
      </trkpt>
      <trkpt lat="43.80103" lon="7.07431">
        <ele>1180.2</ele>
        <time>2021-08-22T07:40:24.000Z</time>
      </trkpt>
      <trkpt lat="43.80104" lon="7.07433">
        <ele>1180</ele>
        <time>2021-08-22T07:40:26.000Z</time>
      </trkpt>
      <trkpt lat="43.80104" lon="7.07435">
        <ele>1179.8</ele>
        <time>2021-08-22T07:40:32.000Z</time>
      </trkpt>
      <trkpt lat="43.80106" lon="7.07437">
        <ele>1179.6</ele>
        <time>2021-08-22T07:40:34.000Z</time>
      </trkpt>
      <trkpt lat="43.80108" lon="7.07444">
        <ele>1178.9</ele>
        <time>2021-08-22T07:40:41.000Z</time>
      </trkpt>
      <trkpt lat="43.80109" lon="7.07446">
        <ele>1178.7</ele>
        <time>2021-08-22T07:40:47.000Z</time>
      </trkpt>
      <trkpt lat="43.80106" lon="7.07449">
        <ele>1178.5</ele>
        <time>2021-08-22T07:40:51.000Z</time>
      </trkpt>
      <trkpt lat="43.80106" lon="7.0745">
        <ele>1178.4</ele>
        <time>2021-08-22T07:40:52.000Z</time>
      </trkpt>
      <trkpt lat="43.80102" lon="7.07455">
        <ele>1178</ele>
        <time>2021-08-22T07:40:58.000Z</time>
      </trkpt>
      <trkpt lat="43.80102" lon="7.07459">
        <ele>1177.6</ele>
        <time>2021-08-22T07:41:04.000Z</time>
      </trkpt>
      <trkpt lat="43.80102" lon="7.07461">
        <ele>1177.4</ele>
        <time>2021-08-22T07:41:07.000Z</time>
      </trkpt>
      <trkpt lat="43.80102" lon="7.07466">
        <ele>1176.9</ele>
        <time>2021-08-22T07:41:12.000Z</time>
      </trkpt>
      <trkpt lat="43.80103" lon="7.0747">
        <ele>1176.6</ele>
        <time>2021-08-22T07:41:16.000Z</time>
      </trkpt>
      <trkpt lat="43.80103" lon="7.07475">
        <ele>1176.1</ele>
        <time>2021-08-22T07:41:20.000Z</time>
      </trkpt>
      <trkpt lat="43.80107" lon="7.07482">
        <ele>1175.4</ele>
        <time>2021-08-22T07:41:27.000Z</time>
      </trkpt>
      <trkpt lat="43.80107" lon="7.07485">
        <ele>1175.1</ele>
        <time>2021-08-22T07:41:34.000Z</time>
      </trkpt>
      <trkpt lat="43.80108" lon="7.07489">
        <ele>1174.7</ele>
        <time>2021-08-22T07:41:38.000Z</time>
      </trkpt>
      <trkpt lat="43.80109" lon="7.07491">
        <ele>1174.6</ele>
        <time>2021-08-22T07:41:41.000Z</time>
      </trkpt>
      <trkpt lat="43.80106" lon="7.07498">
        <ele>1173.9</ele>
        <time>2021-08-22T07:41:47.000Z</time>
      </trkpt>
      <trkpt lat="43.80109" lon="7.07504">
        <ele>1173.1</ele>
        <time>2021-08-22T07:41:52.000Z</time>
      </trkpt>
      <trkpt lat="43.8011" lon="7.07506">
        <ele>1172.8</ele>
        <time>2021-08-22T07:41:56.000Z</time>
      </trkpt>
      <trkpt lat="43.8011" lon="7.07512">
        <ele>1171.9</ele>
        <time>2021-08-22T07:42:00.000Z</time>
      </trkpt>
      <trkpt lat="43.80109" lon="7.07523">
        <ele>1170.4</ele>
        <time>2021-08-22T07:42:07.000Z</time>
      </trkpt>
      <trkpt lat="43.80112" lon="7.07532">
        <ele>1168.8</ele>
        <time>2021-08-22T07:42:13.000Z</time>
      </trkpt>
      <trkpt lat="43.80113" lon="7.07539">
        <ele>1167.7</ele>
        <time>2021-08-22T07:42:17.000Z</time>
      </trkpt>
      <trkpt lat="43.80116" lon="7.07545">
        <ele>1166.6</ele>
        <time>2021-08-22T07:42:21.000Z</time>
      </trkpt>
      <trkpt lat="43.80119" lon="7.07554">
        <ele>1164.7</ele>
        <time>2021-08-22T07:42:28.000Z</time>
      </trkpt>
      <trkpt lat="43.80118" lon="7.07566">
        <ele>1162.9</ele>
        <time>2021-08-22T07:42:35.000Z</time>
      </trkpt>
      <trkpt lat="43.80119" lon="7.07572">
        <ele>1162</ele>
        <time>2021-08-22T07:42:39.000Z</time>
      </trkpt>
      <trkpt lat="43.8012" lon="7.07576">
        <ele>1160.9</ele>
        <time>2021-08-22T07:42:44.000Z</time>
      </trkpt>
      <trkpt lat="43.80117" lon="7.07581">
        <ele>1160.7</ele>
        <time>2021-08-22T07:42:50.000Z</time>
      </trkpt>
      <trkpt lat="43.80117" lon="7.07586">
        <ele>1159.9</ele>
        <time>2021-08-22T07:42:54.000Z</time>
      </trkpt>
      <trkpt lat="43.80116" lon="7.07592">
        <ele>1159</ele>
        <time>2021-08-22T07:42:59.000Z</time>
      </trkpt>
      <trkpt lat="43.80115" lon="7.07594">
        <ele>1158.7</ele>
        <time>2021-08-22T07:43:04.000Z</time>
      </trkpt>
      <trkpt lat="43.80115" lon="7.07598">
        <ele>1158.2</ele>
        <time>2021-08-22T07:43:10.000Z</time>
      </trkpt>
      <trkpt lat="43.80115" lon="7.07599">
        <ele>1158</ele>
        <time>2021-08-22T07:43:12.000Z</time>
      </trkpt>
      <trkpt lat="43.80114" lon="7.07604">
        <ele>1157.3</ele>
        <time>2021-08-22T07:43:16.000Z</time>
      </trkpt>
      <trkpt lat="43.80115" lon="7.07611">
        <ele>1155.9</ele>
        <time>2021-08-22T07:43:21.000Z</time>
      </trkpt>
      <trkpt lat="43.80113" lon="7.07614">
        <ele>1155.8</ele>
        <time>2021-08-22T07:43:28.000Z</time>
      </trkpt>
      <trkpt lat="43.80113" lon="7.07615">
        <ele>1155.5</ele>
        <time>2021-08-22T07:43:29.000Z</time>
      </trkpt>
      <trkpt lat="43.80112" lon="7.07625">
        <ele>1154.1</ele>
        <time>2021-08-22T07:43:35.000Z</time>
      </trkpt>
      <trkpt lat="43.80112" lon="7.07626">
        <ele>1154</ele>
        <time>2021-08-22T07:43:36.000Z</time>
      </trkpt>
      <trkpt lat="43.80114" lon="7.07632">
        <ele>1152.6</ele>
        <time>2021-08-22T07:43:41.000Z</time>
      </trkpt>
      <trkpt lat="43.80114" lon="7.07634">
        <ele>1152.1</ele>
        <time>2021-08-22T07:43:43.000Z</time>
      </trkpt>
      <trkpt lat="43.80115" lon="7.07639">
        <ele>1151.2</ele>
        <time>2021-08-22T07:43:48.000Z</time>
      </trkpt>
      <trkpt lat="43.80115" lon="7.07644">
        <ele>1150.2</ele>
        <time>2021-08-22T07:43:51.000Z</time>
      </trkpt>
      <trkpt lat="43.80114" lon="7.07652">
        <ele>1149.3</ele>
        <time>2021-08-22T07:43:57.000Z</time>
      </trkpt>
      <trkpt lat="43.80113" lon="7.07653">
        <ele>1149.1</ele>
        <time>2021-08-22T07:43:58.000Z</time>
      </trkpt>
      <trkpt lat="43.80112" lon="7.07661">
        <ele>1148.2</ele>
        <time>2021-08-22T07:44:04.000Z</time>
      </trkpt>
      <trkpt lat="43.80111" lon="7.07671">
        <ele>1146.3</ele>
        <time>2021-08-22T07:44:11.000Z</time>
      </trkpt>
      <trkpt lat="43.8011" lon="7.07677">
        <ele>1145.2</ele>
        <time>2021-08-22T07:44:16.000Z</time>
      </trkpt>
      <trkpt lat="43.8011" lon="7.07682">
        <ele>1144.1</ele>
        <time>2021-08-22T07:44:20.000Z</time>
      </trkpt>
      <trkpt lat="43.80109" lon="7.07689">
        <ele>1142.6</ele>
        <time>2021-08-22T07:44:27.000Z</time>
      </trkpt>
      <trkpt lat="43.80109" lon="7.07697">
        <ele>1140.8</ele>
        <time>2021-08-22T07:44:34.000Z</time>
      </trkpt>
      <trkpt lat="43.80109" lon="7.07705">
        <ele>1139.2</ele>
        <time>2021-08-22T07:44:42.000Z</time>
      </trkpt>
      <trkpt lat="43.8011" lon="7.07709">
        <ele>1138.1</ele>
        <time>2021-08-22T07:44:49.000Z</time>
      </trkpt>
      <trkpt lat="43.80112" lon="7.07707">
        <ele>1138.1</ele>
        <time>2021-08-22T07:44:55.000Z</time>
      </trkpt>
      <trkpt lat="43.80114" lon="7.0771">
        <ele>1136.9</ele>
        <time>2021-08-22T07:45:01.000Z</time>
      </trkpt>
      <trkpt lat="43.80111" lon="7.07719">
        <ele>1135.5</ele>
        <time>2021-08-22T07:45:09.000Z</time>
      </trkpt>
      <trkpt lat="43.80111" lon="7.0772">
        <ele>1135.3</ele>
        <time>2021-08-22T07:45:10.000Z</time>
      </trkpt>
      <trkpt lat="43.80109" lon="7.07728">
        <ele>1133.9</ele>
        <time>2021-08-22T07:45:17.000Z</time>
      </trkpt>
      <trkpt lat="43.80107" lon="7.07737">
        <ele>1132.3</ele>
        <time>2021-08-22T07:45:24.000Z</time>
      </trkpt>
      <trkpt lat="43.80106" lon="7.07747">
        <ele>1130.3</ele>
        <time>2021-08-22T07:45:31.000Z</time>
      </trkpt>
      <trkpt lat="43.80106" lon="7.07748">
        <ele>1130.1</ele>
        <time>2021-08-22T07:45:32.000Z</time>
      </trkpt>
      <trkpt lat="43.80106" lon="7.07753">
        <ele>1128.9</ele>
        <time>2021-08-22T07:45:40.000Z</time>
      </trkpt>
      <trkpt lat="43.80105" lon="7.07759">
        <ele>1128.2</ele>
        <time>2021-08-22T07:45:47.000Z</time>
      </trkpt>
      <trkpt lat="43.80102" lon="7.07766">
        <ele>1127.6</ele>
        <time>2021-08-22T07:45:55.000Z</time>
      </trkpt>
      <trkpt lat="43.801" lon="7.07768">
        <ele>1127.5</ele>
        <time>2021-08-22T07:46:36.000Z</time>
      </trkpt>
      <trkpt lat="43.801" lon="7.07773">
        <ele>1126.6</ele>
        <time>2021-08-22T07:46:42.000Z</time>
      </trkpt>
      <trkpt lat="43.80098" lon="7.07778">
        <ele>1126.3</ele>
        <time>2021-08-22T07:46:48.000Z</time>
      </trkpt>
      <trkpt lat="43.80098" lon="7.07783">
        <ele>1125.3</ele>
        <time>2021-08-22T07:46:53.000Z</time>
      </trkpt>
      <trkpt lat="43.80097" lon="7.07784">
        <ele>1125.2</ele>
        <time>2021-08-22T07:46:54.000Z</time>
      </trkpt>
      <trkpt lat="43.80092" lon="7.07797">
        <ele>1123.9</ele>
        <time>2021-08-22T07:47:05.000Z</time>
      </trkpt>
      <trkpt lat="43.80091" lon="7.07799">
        <ele>1123.7</ele>
        <time>2021-08-22T07:47:08.000Z</time>
      </trkpt>
      <trkpt lat="43.8009" lon="7.07805">
        <ele>1122.9</ele>
        <time>2021-08-22T07:47:14.000Z</time>
      </trkpt>
      <trkpt lat="43.80087" lon="7.07809">
        <ele>1122.7</ele>
        <time>2021-08-22T07:47:17.000Z</time>
      </trkpt>
      <trkpt lat="43.80086" lon="7.07813">
        <ele>1122.4</ele>
        <time>2021-08-22T07:47:22.000Z</time>
      </trkpt>
      <trkpt lat="43.80083" lon="7.07821">
        <ele>1121.1</ele>
        <time>2021-08-22T07:47:29.000Z</time>
      </trkpt>
      <trkpt lat="43.80082" lon="7.07829">
        <ele>1119.4</ele>
        <time>2021-08-22T07:47:35.000Z</time>
      </trkpt>
      <trkpt lat="43.80079" lon="7.07838">
        <ele>1116.5</ele>
        <time>2021-08-22T07:47:43.000Z</time>
      </trkpt>
      <trkpt lat="43.80078" lon="7.07845">
        <ele>1114.5</ele>
        <time>2021-08-22T07:47:50.000Z</time>
      </trkpt>
      <trkpt lat="43.80075" lon="7.07851">
        <ele>1112.6</ele>
        <time>2021-08-22T07:47:56.000Z</time>
      </trkpt>
      <trkpt lat="43.80075" lon="7.07857">
        <ele>1111</ele>
        <time>2021-08-22T07:48:02.000Z</time>
      </trkpt>
      <trkpt lat="43.80072" lon="7.07862">
        <ele>1108.8</ele>
        <time>2021-08-22T07:48:06.000Z</time>
      </trkpt>
      <trkpt lat="43.80071" lon="7.07868">
        <ele>1107</ele>
        <time>2021-08-22T07:48:39.000Z</time>
      </trkpt>
      <trkpt lat="43.80071" lon="7.07875">
        <ele>1105.5</ele>
        <time>2021-08-22T07:48:44.000Z</time>
      </trkpt>
      <trkpt lat="43.80072" lon="7.07878">
        <ele>1104.9</ele>
        <time>2021-08-22T07:48:46.000Z</time>
      </trkpt>
      <trkpt lat="43.80071" lon="7.07888">
        <ele>1102.2</ele>
        <time>2021-08-22T07:48:54.000Z</time>
      </trkpt>
      <trkpt lat="43.80072" lon="7.07899">
        <ele>1099.8</ele>
        <time>2021-08-22T07:49:04.000Z</time>
      </trkpt>
      <trkpt lat="43.80074" lon="7.07905">
        <ele>1099.2</ele>
        <time>2021-08-22T07:49:10.000Z</time>
      </trkpt>
      <trkpt lat="43.80073" lon="7.07914">
        <ele>1096.8</ele>
        <time>2021-08-22T07:49:17.000Z</time>
      </trkpt>
      <trkpt lat="43.80074" lon="7.0792">
        <ele>1095.7</ele>
        <time>2021-08-22T07:49:22.000Z</time>
      </trkpt>
      <trkpt lat="43.80074" lon="7.07927">
        <ele>1094.1</ele>
        <time>2021-08-22T07:49:28.000Z</time>
      </trkpt>
      <trkpt lat="43.80074" lon="7.07933">
        <ele>1092.8</ele>
        <time>2021-08-22T07:49:33.000Z</time>
      </trkpt>
      <trkpt lat="43.80078" lon="7.0794">
        <ele>1092.4</ele>
        <time>2021-08-22T07:49:40.000Z</time>
      </trkpt>
      <trkpt lat="43.80078" lon="7.07941">
        <ele>1092.2</ele>
        <time>2021-08-22T07:49:42.000Z</time>
      </trkpt>
      <trkpt lat="43.8008" lon="7.07951">
        <ele>1090.5</ele>
        <time>2021-08-22T07:49:51.000Z</time>
      </trkpt>
      <trkpt lat="43.80083" lon="7.07954">
        <ele>1090.8</ele>
        <time>2021-08-22T07:49:57.000Z</time>
      </trkpt>
      <trkpt lat="43.80084" lon="7.0796">
        <ele>1089.4</ele>
        <time>2021-08-22T07:50:03.000Z</time>
      </trkpt>
      <trkpt lat="43.80086" lon="7.07964">
        <ele>1088.3</ele>
        <time>2021-08-22T07:50:09.000Z</time>
      </trkpt>
      <trkpt lat="43.80089" lon="7.07967">
        <ele>1087.1</ele>
        <time>2021-08-22T07:50:14.000Z</time>
      </trkpt>
      <trkpt lat="43.8009" lon="7.07972">
        <ele>1086</ele>
        <time>2021-08-22T07:50:19.000Z</time>
      </trkpt>
      <trkpt lat="43.80089" lon="7.0798">
        <ele>1084.3</ele>
        <time>2021-08-22T07:50:26.000Z</time>
      </trkpt>
      <trkpt lat="43.8009" lon="7.07982">
        <ele>1083.7</ele>
        <time>2021-08-22T07:50:28.000Z</time>
      </trkpt>
      <trkpt lat="43.80091" lon="7.07991">
        <ele>1081.7</ele>
        <time>2021-08-22T07:50:36.000Z</time>
      </trkpt>
      <trkpt lat="43.80091" lon="7.07996">
        <ele>1080.5</ele>
        <time>2021-08-22T07:50:40.000Z</time>
      </trkpt>
      <trkpt lat="43.80095" lon="7.08003">
        <ele>1078.9</ele>
        <time>2021-08-22T07:50:47.000Z</time>
      </trkpt>
      <trkpt lat="43.80095" lon="7.08006">
        <ele>1078.5</ele>
        <time>2021-08-22T07:50:51.000Z</time>
      </trkpt>
      <trkpt lat="43.80096" lon="7.08014">
        <ele>1077.6</ele>
        <time>2021-08-22T07:50:57.000Z</time>
      </trkpt>
      <trkpt lat="43.80098" lon="7.08019">
        <ele>1076.9</ele>
        <time>2021-08-22T07:51:01.000Z</time>
      </trkpt>
      <trkpt lat="43.80099" lon="7.08028">
        <ele>1075.9</ele>
        <time>2021-08-22T07:51:08.000Z</time>
      </trkpt>
      <trkpt lat="43.80101" lon="7.08033">
        <ele>1075.4</ele>
        <time>2021-08-22T07:51:12.000Z</time>
      </trkpt>
      <trkpt lat="43.80106" lon="7.08042">
        <ele>1074.2</ele>
        <time>2021-08-22T07:51:20.000Z</time>
      </trkpt>
      <trkpt lat="43.80107" lon="7.08045">
        <ele>1074</ele>
        <time>2021-08-22T07:51:22.000Z</time>
      </trkpt>
      <trkpt lat="43.8011" lon="7.08047">
        <ele>1073.7</ele>
        <time>2021-08-22T07:51:25.000Z</time>
      </trkpt>
      <trkpt lat="43.8011" lon="7.08047">
        <ele>1073.7</ele>
        <time>2021-08-22T07:51:25.000Z</time>
      </trkpt>
      <trkpt lat="43.80114" lon="7.08052">
        <ele>1073.2</ele>
        <time>2021-08-22T07:51:30.000Z</time>
      </trkpt>
      <trkpt lat="43.80119" lon="7.08056">
        <ele>1072.9</ele>
        <time>2021-08-22T07:51:36.000Z</time>
      </trkpt>
      <trkpt lat="43.80123" lon="7.08065">
        <ele>1072.6</ele>
        <time>2021-08-22T07:51:43.000Z</time>
      </trkpt>
      <trkpt lat="43.80124" lon="7.08071">
        <ele>1072.3</ele>
        <time>2021-08-22T07:51:49.000Z</time>
      </trkpt>
      <trkpt lat="43.80126" lon="7.08081">
        <ele>1072.1</ele>
        <time>2021-08-22T07:51:57.000Z</time>
      </trkpt>
      <trkpt lat="43.80128" lon="7.08085">
        <ele>1072</ele>
        <time>2021-08-22T07:52:00.000Z</time>
      </trkpt>
      <trkpt lat="43.80129" lon="7.0809">
        <ele>1071.8</ele>
        <time>2021-08-22T07:52:04.000Z</time>
      </trkpt>
      <trkpt lat="43.80131" lon="7.08094">
        <ele>1071.6</ele>
        <time>2021-08-22T07:52:07.000Z</time>
      </trkpt>
      <trkpt lat="43.80135" lon="7.08097">
        <ele>1071.6</ele>
        <time>2021-08-22T07:52:12.000Z</time>
      </trkpt>
      <trkpt lat="43.80141" lon="7.081">
        <ele>1071.8</ele>
        <time>2021-08-22T07:52:19.000Z</time>
      </trkpt>
      <trkpt lat="43.80145" lon="7.08106">
        <ele>1071.8</ele>
        <time>2021-08-22T07:52:26.000Z</time>
      </trkpt>
      <trkpt lat="43.80146" lon="7.0811">
        <ele>1071.7</ele>
        <time>2021-08-22T07:52:29.000Z</time>
      </trkpt>
      <trkpt lat="43.80147" lon="7.08117">
        <ele>1071.4</ele>
        <time>2021-08-22T07:58:05.000Z</time>
      </trkpt>
      <trkpt lat="43.80148" lon="7.0812">
        <ele>1071.3</ele>
        <time>2021-08-22T07:58:07.000Z</time>
      </trkpt>
      <trkpt lat="43.80148" lon="7.08127">
        <ele>1071</ele>
        <time>2021-08-22T07:58:12.000Z</time>
      </trkpt>
      <trkpt lat="43.80149" lon="7.08134">
        <ele>1070.8</ele>
        <time>2021-08-22T07:58:17.000Z</time>
      </trkpt>
      <trkpt lat="43.80155" lon="7.08145">
        <ele>1071</ele>
        <time>2021-08-22T07:58:27.000Z</time>
      </trkpt>
      <trkpt lat="43.80159" lon="7.08148">
        <ele>1071.5</ele>
        <time>2021-08-22T07:58:33.000Z</time>
      </trkpt>
      <trkpt lat="43.80163" lon="7.0815">
        <ele>1071.9</ele>
        <time>2021-08-22T07:58:37.000Z</time>
      </trkpt>
      <trkpt lat="43.80168" lon="7.0815">
        <ele>1072.2</ele>
        <time>2021-08-22T07:58:42.000Z</time>
      </trkpt>
      <trkpt lat="43.80175" lon="7.08143">
        <ele>1070.6</ele>
        <time>2021-08-22T07:58:49.000Z</time>
      </trkpt>
      <trkpt lat="43.80179" lon="7.08138">
        <ele>1069.7</ele>
        <time>2021-08-22T07:58:53.000Z</time>
      </trkpt>
      <trkpt lat="43.80184" lon="7.08135">
        <ele>1068.6</ele>
        <time>2021-08-22T07:59:00.000Z</time>
      </trkpt>
      <trkpt lat="43.80194" lon="7.08134">
        <ele>1066.1</ele>
        <time>2021-08-22T07:59:11.000Z</time>
      </trkpt>
      <trkpt lat="43.80203" lon="7.08133">
        <ele>1063.8</ele>
        <time>2021-08-22T07:59:20.000Z</time>
      </trkpt>
      <trkpt lat="43.80209" lon="7.08139">
        <ele>1062.3</ele>
        <time>2021-08-22T07:59:27.000Z</time>
      </trkpt>
      <trkpt lat="43.80214" lon="7.08147">
        <ele>1060.8</ele>
        <time>2021-08-22T07:59:35.000Z</time>
      </trkpt>
      <trkpt lat="43.80219" lon="7.08155">
        <ele>1059.2</ele>
        <time>2021-08-22T07:59:42.000Z</time>
      </trkpt>
      <trkpt lat="43.80223" lon="7.08167">
        <ele>1057.8</ele>
        <time>2021-08-22T07:59:52.000Z</time>
      </trkpt>
      <trkpt lat="43.80227" lon="7.08176">
        <ele>1056</ele>
        <time>2021-08-22T08:00:00.000Z</time>
      </trkpt>
      <trkpt lat="43.80232" lon="7.08185">
        <ele>1054</ele>
        <time>2021-08-22T08:00:09.000Z</time>
      </trkpt>
      <trkpt lat="43.80237" lon="7.08192">
        <ele>1052.2</ele>
        <time>2021-08-22T08:00:18.000Z</time>
      </trkpt>
      <trkpt lat="43.80241" lon="7.08194">
        <ele>1051.3</ele>
        <time>2021-08-22T08:00:22.000Z</time>
      </trkpt>
      <trkpt lat="43.80245" lon="7.08201">
        <ele>1050</ele>
        <time>2021-08-22T08:00:29.000Z</time>
      </trkpt>
      <trkpt lat="43.80248" lon="7.08206">
        <ele>1049</ele>
        <time>2021-08-22T08:00:34.000Z</time>
      </trkpt>
      <trkpt lat="43.8025" lon="7.08211">
        <ele>1048.3</ele>
        <time>2021-08-22T08:00:37.000Z</time>
      </trkpt>
      <trkpt lat="43.80251" lon="7.08213">
        <ele>1048</ele>
        <time>2021-08-22T08:00:39.000Z</time>
      </trkpt>
      <trkpt lat="43.80253" lon="7.08216">
        <ele>1047.1</ele>
        <time>2021-08-22T08:00:43.000Z</time>
      </trkpt>
      <trkpt lat="43.8026" lon="7.0822">
        <ele>1045.1</ele>
        <time>2021-08-22T08:00:48.000Z</time>
      </trkpt>
      <trkpt lat="43.80264" lon="7.08222">
        <ele>1043.8</ele>
        <time>2021-08-22T08:00:52.000Z</time>
      </trkpt>
      <trkpt lat="43.80265" lon="7.08227">
        <ele>1043.1</ele>
        <time>2021-08-22T08:00:55.000Z</time>
      </trkpt>
      <trkpt lat="43.80266" lon="7.08235">
        <ele>1042.5</ele>
        <time>2021-08-22T08:01:00.000Z</time>
      </trkpt>
      <trkpt lat="43.80265" lon="7.08245">
        <ele>1042.1</ele>
        <time>2021-08-22T08:01:06.000Z</time>
      </trkpt>
      <trkpt lat="43.80265" lon="7.08252">
        <ele>1041.6</ele>
        <time>2021-08-22T08:01:11.000Z</time>
      </trkpt>
      <trkpt lat="43.80265" lon="7.08263">
        <ele>1040.1</ele>
        <time>2021-08-22T08:01:17.000Z</time>
      </trkpt>
      <trkpt lat="43.80266" lon="7.08265">
        <ele>1039.7</ele>
        <time>2021-08-22T08:01:18.000Z</time>
      </trkpt>
      <trkpt lat="43.80267" lon="7.08269">
        <ele>1039</ele>
        <time>2021-08-22T08:01:20.000Z</time>
      </trkpt>
      <trkpt lat="43.80271" lon="7.08278">
        <ele>1036.8</ele>
        <time>2021-08-22T08:01:27.000Z</time>
      </trkpt>
      <trkpt lat="43.80274" lon="7.08284">
        <ele>1035.7</ele>
        <time>2021-08-22T08:01:31.000Z</time>
      </trkpt>
      <trkpt lat="43.80276" lon="7.08291">
        <ele>1034.6</ele>
        <time>2021-08-22T08:01:36.000Z</time>
      </trkpt>
      <trkpt lat="43.80279" lon="7.08299">
        <ele>1033</ele>
        <time>2021-08-22T08:01:42.000Z</time>
      </trkpt>
      <trkpt lat="43.80283" lon="7.08303">
        <ele>1032</ele>
        <time>2021-08-22T08:01:46.000Z</time>
      </trkpt>
      <trkpt lat="43.8029" lon="7.08304">
        <ele>1030.6</ele>
        <time>2021-08-22T08:01:52.000Z</time>
      </trkpt>
      <trkpt lat="43.803" lon="7.08307">
        <ele>1028.7</ele>
        <time>2021-08-22T08:02:00.000Z</time>
      </trkpt>
      <trkpt lat="43.80302" lon="7.08308">
        <ele>1028.3</ele>
        <time>2021-08-22T08:02:02.000Z</time>
      </trkpt>
      <trkpt lat="43.80306" lon="7.08312">
        <ele>1027.4</ele>
        <time>2021-08-22T08:02:08.000Z</time>
      </trkpt>
      <trkpt lat="43.80308" lon="7.08314">
        <ele>1026.9</ele>
        <time>2021-08-22T08:02:12.000Z</time>
      </trkpt>
      <trkpt lat="43.80309" lon="7.08317">
        <ele>1026.7</ele>
        <time>2021-08-22T08:02:15.000Z</time>
      </trkpt>
      <trkpt lat="43.80309" lon="7.08319">
        <ele>1026.6</ele>
        <time>2021-08-22T08:02:17.000Z</time>
      </trkpt>
      <trkpt lat="43.80311" lon="7.08324">
        <ele>1026.1</ele>
        <time>2021-08-22T08:02:22.000Z</time>
      </trkpt>
      <trkpt lat="43.80313" lon="7.08332">
        <ele>1025.5</ele>
        <time>2021-08-22T08:02:28.000Z</time>
      </trkpt>
      <trkpt lat="43.80314" lon="7.08336">
        <ele>1024.9</ele>
        <time>2021-08-22T08:02:31.000Z</time>
      </trkpt>
      <trkpt lat="43.80316" lon="7.08346">
        <ele>1023.1</ele>
        <time>2021-08-22T08:02:37.000Z</time>
      </trkpt>
      <trkpt lat="43.80318" lon="7.08351">
        <ele>1022.2</ele>
        <time>2021-08-22T08:02:41.000Z</time>
      </trkpt>
      <trkpt lat="43.80322" lon="7.0836">
        <ele>1020.4</ele>
        <time>2021-08-22T08:02:48.000Z</time>
      </trkpt>
      <trkpt lat="43.80325" lon="7.08365">
        <ele>1019.4</ele>
        <time>2021-08-22T08:02:52.000Z</time>
      </trkpt>
      <trkpt lat="43.80327" lon="7.0837">
        <ele>1018.7</ele>
        <time>2021-08-22T08:02:56.000Z</time>
      </trkpt>
      <trkpt lat="43.80331" lon="7.08373">
        <ele>1017.9</ele>
        <time>2021-08-22T08:03:02.000Z</time>
      </trkpt>
      <trkpt lat="43.80333" lon="7.08379">
        <ele>1017</ele>
        <time>2021-08-22T08:03:08.000Z</time>
      </trkpt>
      <trkpt lat="43.80334" lon="7.08382">
        <ele>1016.2</ele>
        <time>2021-08-22T08:03:11.000Z</time>
      </trkpt>
      <trkpt lat="43.80336" lon="7.08381">
        <ele>1015.6</ele>
        <time>2021-08-22T08:03:13.000Z</time>
      </trkpt>
      <trkpt lat="43.8034" lon="7.08382">
        <ele>1014.2</ele>
        <time>2021-08-22T08:03:17.000Z</time>
      </trkpt>
      <trkpt lat="43.80342" lon="7.08382">
        <ele>1013.5</ele>
        <time>2021-08-22T08:03:19.000Z</time>
      </trkpt>
      <trkpt lat="43.80346" lon="7.08384">
        <ele>1011.9</ele>
        <time>2021-08-22T08:03:26.000Z</time>
      </trkpt>
      <trkpt lat="43.80348" lon="7.08388">
        <ele>1010.7</ele>
        <time>2021-08-22T08:03:32.000Z</time>
      </trkpt>
      <trkpt lat="43.8035" lon="7.08393">
        <ele>1009.2</ele>
        <time>2021-08-22T08:03:38.000Z</time>
      </trkpt>
      <trkpt lat="43.80353" lon="7.08397">
        <ele>1007.7</ele>
        <time>2021-08-22T08:03:44.000Z</time>
      </trkpt>
      <trkpt lat="43.80356" lon="7.084">
        <ele>1006.4</ele>
        <time>2021-08-22T08:03:50.000Z</time>
      </trkpt>
      <trkpt lat="43.80359" lon="7.08405">
        <ele>1004.7</ele>
        <time>2021-08-22T08:03:56.000Z</time>
      </trkpt>
      <trkpt lat="43.8036" lon="7.08412">
        <ele>1003.8</ele>
        <time>2021-08-22T08:04:01.000Z</time>
      </trkpt>
      <trkpt lat="43.80362" lon="7.08413">
        <ele>1003.2</ele>
        <time>2021-08-22T08:04:07.000Z</time>
      </trkpt>
      <trkpt lat="43.80362" lon="7.08414">
        <ele>1002.9</ele>
        <time>2021-08-22T08:04:20.000Z</time>
      </trkpt>
      <trkpt lat="43.80359" lon="7.08421">
        <ele>1002.9</ele>
        <time>2021-08-22T08:04:26.000Z</time>
      </trkpt>
      <trkpt lat="43.8036" lon="7.08423">
        <ele>1002.3</ele>
        <time>2021-08-22T08:04:28.000Z</time>
      </trkpt>
      <trkpt lat="43.80362" lon="7.08424">
        <ele>1001.5</ele>
        <time>2021-08-22T08:04:35.000Z</time>
      </trkpt>
      <trkpt lat="43.80364" lon="7.08428">
        <ele>1000.3</ele>
        <time>2021-08-22T08:04:40.000Z</time>
      </trkpt>
      <trkpt lat="43.80364" lon="7.0843">
        <ele>1000</ele>
        <time>2021-08-22T08:04:43.000Z</time>
      </trkpt>
      <trkpt lat="43.80363" lon="7.08436">
        <ele>999.2</ele>
        <time>2021-08-22T08:04:49.000Z</time>
      </trkpt>
      <trkpt lat="43.80363" lon="7.08442">
        <ele>998</ele>
        <time>2021-08-22T08:04:56.000Z</time>
      </trkpt>
      <trkpt lat="43.80361" lon="7.08446">
        <ele>997.7</ele>
        <time>2021-08-22T08:05:01.000Z</time>
      </trkpt>
      <trkpt lat="43.80364" lon="7.08449">
        <ele>996.5</ele>
        <time>2021-08-22T08:05:07.000Z</time>
      </trkpt>
      <trkpt lat="43.80366" lon="7.0845">
        <ele>996.1</ele>
        <time>2021-08-22T08:05:10.000Z</time>
      </trkpt>
      <trkpt lat="43.80367" lon="7.08455">
        <ele>995</ele>
        <time>2021-08-22T08:05:17.000Z</time>
      </trkpt>
      <trkpt lat="43.80368" lon="7.08457">
        <ele>994.2</ele>
        <time>2021-08-22T08:05:20.000Z</time>
      </trkpt>
      <trkpt lat="43.80372" lon="7.08459">
        <ele>993.1</ele>
        <time>2021-08-22T08:05:25.000Z</time>
      </trkpt>
      <trkpt lat="43.80372" lon="7.08462">
        <ele>992.5</ele>
        <time>2021-08-22T08:05:29.000Z</time>
      </trkpt>
      <trkpt lat="43.80373" lon="7.08466">
        <ele>991.7</ele>
        <time>2021-08-22T08:05:34.000Z</time>
      </trkpt>
      <trkpt lat="43.80374" lon="7.0847">
        <ele>991.1</ele>
        <time>2021-08-22T08:05:39.000Z</time>
      </trkpt>
      <trkpt lat="43.80375" lon="7.08471">
        <ele>990.7</ele>
        <time>2021-08-22T08:05:43.000Z</time>
      </trkpt>
      <trkpt lat="43.80376" lon="7.08475">
        <ele>989.9</ele>
        <time>2021-08-22T08:05:46.000Z</time>
      </trkpt>
      <trkpt lat="43.80378" lon="7.08479">
        <ele>989</ele>
        <time>2021-08-22T08:05:52.000Z</time>
      </trkpt>
      <trkpt lat="43.8038" lon="7.0848">
        <ele>988.6</ele>
        <time>2021-08-22T08:05:56.000Z</time>
      </trkpt>
      <trkpt lat="43.80382" lon="7.0848">
        <ele>988.2</ele>
        <time>2021-08-22T08:05:58.000Z</time>
      </trkpt>
      <trkpt lat="43.80385" lon="7.08486">
        <ele>986.9</ele>
        <time>2021-08-22T08:06:07.000Z</time>
      </trkpt>
      <trkpt lat="43.80385" lon="7.08486">
        <ele>986.8</ele>
        <time>2021-08-22T08:06:35.000Z</time>
      </trkpt>
      <trkpt lat="43.80387" lon="7.08487">
        <ele>986.4</ele>
        <time>2021-08-22T08:06:37.000Z</time>
      </trkpt>
      <trkpt lat="43.80389" lon="7.08491">
        <ele>985.6</ele>
        <time>2021-08-22T08:06:41.000Z</time>
      </trkpt>
      <trkpt lat="43.80388" lon="7.08497">
        <ele>985.1</ele>
        <time>2021-08-22T08:06:50.000Z</time>
      </trkpt>
      <trkpt lat="43.80387" lon="7.08504">
        <ele>984.4</ele>
        <time>2021-08-22T08:06:56.000Z</time>
      </trkpt>
      <trkpt lat="43.80387" lon="7.08506">
        <ele>984</ele>
        <time>2021-08-22T08:07:01.000Z</time>
      </trkpt>
      <trkpt lat="43.80387" lon="7.08505">
        <ele>984.2</ele>
        <time>2021-08-22T08:07:05.000Z</time>
      </trkpt>
      <trkpt lat="43.80387" lon="7.08507">
        <ele>983.9</ele>
        <time>2021-08-22T08:07:08.000Z</time>
      </trkpt>
      <trkpt lat="43.8039" lon="7.08512">
        <ele>982.9</ele>
        <time>2021-08-22T08:07:14.000Z</time>
      </trkpt>
      <trkpt lat="43.80389" lon="7.08516">
        <ele>982.5</ele>
        <time>2021-08-22T08:07:19.000Z</time>
      </trkpt>
      <trkpt lat="43.80391" lon="7.0852">
        <ele>981.7</ele>
        <time>2021-08-22T08:07:24.000Z</time>
      </trkpt>
      <trkpt lat="43.8039" lon="7.08522">
        <ele>981.5</ele>
        <time>2021-08-22T08:07:30.000Z</time>
      </trkpt>
      <trkpt lat="43.8039" lon="7.08522">
        <ele>981.5</ele>
        <time>2021-08-22T08:07:32.000Z</time>
      </trkpt>
      <trkpt lat="43.80387" lon="7.08527">
        <ele>981</ele>
        <time>2021-08-22T08:07:36.000Z</time>
      </trkpt>
      <trkpt lat="43.80388" lon="7.08536">
        <ele>979.8</ele>
        <time>2021-08-22T08:07:41.000Z</time>
      </trkpt>
      <trkpt lat="43.80393" lon="7.08537">
        <ele>979.2</ele>
        <time>2021-08-22T08:07:46.000Z</time>
      </trkpt>
      <trkpt lat="43.80394" lon="7.08537">
        <ele>979.2</ele>
        <time>2021-08-22T08:07:47.000Z</time>
      </trkpt>
      <trkpt lat="43.804" lon="7.08532">
        <ele>979.4</ele>
        <time>2021-08-22T08:07:53.000Z</time>
      </trkpt>
      <trkpt lat="43.80403" lon="7.08532">
        <ele>979.2</ele>
        <time>2021-08-22T08:07:58.000Z</time>
      </trkpt>
      <trkpt lat="43.8041" lon="7.08532">
        <ele>978.8</ele>
        <time>2021-08-22T08:10:24.000Z</time>
      </trkpt>
      <trkpt lat="43.80412" lon="7.08529">
        <ele>978.9</ele>
        <time>2021-08-22T08:10:26.000Z</time>
      </trkpt>
      <trkpt lat="43.80415" lon="7.08526">
        <ele>979</ele>
        <time>2021-08-22T08:10:29.000Z</time>
      </trkpt>
      <trkpt lat="43.80418" lon="7.08522">
        <ele>978.7</ele>
        <time>2021-08-22T08:10:35.000Z</time>
      </trkpt>
      <trkpt lat="43.80426" lon="7.0852">
        <ele>976.6</ele>
        <time>2021-08-22T08:10:43.000Z</time>
      </trkpt>
      <trkpt lat="43.80427" lon="7.0852">
        <ele>976.3</ele>
        <time>2021-08-22T08:10:44.000Z</time>
      </trkpt>
      <trkpt lat="43.80431" lon="7.08524">
        <ele>975</ele>
        <time>2021-08-22T08:10:50.000Z</time>
      </trkpt>
      <trkpt lat="43.80428" lon="7.0852">
        <ele>976.2</ele>
        <time>2021-08-22T08:10:54.000Z</time>
      </trkpt>
      <trkpt lat="43.80426" lon="7.08513">
        <ele>977.2</ele>
        <time>2021-08-22T08:10:58.000Z</time>
      </trkpt>
      <trkpt lat="43.80426" lon="7.0851">
        <ele>977.3</ele>
        <time>2021-08-22T08:11:00.000Z</time>
      </trkpt>
      <trkpt lat="43.80426" lon="7.08501">
        <ele>978</ele>
        <time>2021-08-22T08:11:04.000Z</time>
      </trkpt>
      <trkpt lat="43.80428" lon="7.08495">
        <ele>977.6</ele>
        <time>2021-08-22T08:11:08.000Z</time>
      </trkpt>
      <trkpt lat="43.80431" lon="7.08489">
        <ele>977.2</ele>
        <time>2021-08-22T08:11:13.000Z</time>
      </trkpt>
      <trkpt lat="43.80437" lon="7.08488">
        <ele>975.3</ele>
        <time>2021-08-22T08:11:22.000Z</time>
      </trkpt>
      <trkpt lat="43.8044" lon="7.08483">
        <ele>974.7</ele>
        <time>2021-08-22T08:11:28.000Z</time>
      </trkpt>
      <trkpt lat="43.80442" lon="7.08481">
        <ele>974.1</ele>
        <time>2021-08-22T08:11:32.000Z</time>
      </trkpt>
      <trkpt lat="43.80445" lon="7.08482">
        <ele>973.2</ele>
        <time>2021-08-22T08:11:38.000Z</time>
      </trkpt>
      <trkpt lat="43.80447" lon="7.08483">
        <ele>972.6</ele>
        <time>2021-08-22T08:11:43.000Z</time>
      </trkpt>
      <trkpt lat="43.80447" lon="7.08483">
        <ele>972.3</ele>
        <time>2021-08-22T08:11:44.000Z</time>
      </trkpt>
      <trkpt lat="43.80452" lon="7.08481">
        <ele>970.9</ele>
        <time>2021-08-22T08:11:49.000Z</time>
      </trkpt>
      <trkpt lat="43.80453" lon="7.08483">
        <ele>970.5</ele>
        <time>2021-08-22T08:11:54.000Z</time>
      </trkpt>
      <trkpt lat="43.80456" lon="7.08487">
        <ele>969.4</ele>
        <time>2021-08-22T08:12:01.000Z</time>
      </trkpt>
      <trkpt lat="43.80458" lon="7.08493">
        <ele>968.3</ele>
        <time>2021-08-22T08:12:07.000Z</time>
      </trkpt>
      <trkpt lat="43.80459" lon="7.08496">
        <ele>967.6</ele>
        <time>2021-08-22T08:12:09.000Z</time>
      </trkpt>
      <trkpt lat="43.80462" lon="7.08505">
        <ele>966.2</ele>
        <time>2021-08-22T08:12:16.000Z</time>
      </trkpt>
      <trkpt lat="43.80463" lon="7.08512">
        <ele>966</ele>
        <time>2021-08-22T08:12:20.000Z</time>
      </trkpt>
      <trkpt lat="43.80464" lon="7.08518">
        <ele>965.8</ele>
        <time>2021-08-22T08:12:26.000Z</time>
      </trkpt>
      <trkpt lat="43.80466" lon="7.08521">
        <ele>965.4</ele>
        <time>2021-08-22T08:12:31.000Z</time>
      </trkpt>
      <trkpt lat="43.80467" lon="7.08525">
        <ele>965.1</ele>
        <time>2021-08-22T08:12:35.000Z</time>
      </trkpt>
      <trkpt lat="43.8047" lon="7.08538">
        <ele>964.5</ele>
        <time>2021-08-22T08:12:44.000Z</time>
      </trkpt>
      <trkpt lat="43.80475" lon="7.08552">
        <ele>963.8</ele>
        <time>2021-08-22T08:12:54.000Z</time>
      </trkpt>
      <trkpt lat="43.80481" lon="7.08563">
        <ele>963.1</ele>
        <time>2021-08-22T08:13:03.000Z</time>
      </trkpt>
      <trkpt lat="43.80486" lon="7.08574">
        <ele>962.7</ele>
        <time>2021-08-22T08:13:11.000Z</time>
      </trkpt>
      <trkpt lat="43.80491" lon="7.08584">
        <ele>962.5</ele>
        <time>2021-08-22T08:13:18.000Z</time>
      </trkpt>
      <trkpt lat="43.80495" lon="7.08591">
        <ele>962.5</ele>
        <time>2021-08-22T08:13:23.000Z</time>
      </trkpt>
      <trkpt lat="43.80499" lon="7.08599">
        <ele>962.9</ele>
        <time>2021-08-22T08:13:29.000Z</time>
      </trkpt>
      <trkpt lat="43.805" lon="7.08603">
        <ele>963.2</ele>
        <time>2021-08-22T08:13:31.000Z</time>
      </trkpt>
      <trkpt lat="43.80503" lon="7.08612">
        <ele>963.5</ele>
        <time>2021-08-22T08:13:37.000Z</time>
      </trkpt>
      <trkpt lat="43.80504" lon="7.08615">
        <ele>963.6</ele>
        <time>2021-08-22T08:13:39.000Z</time>
      </trkpt>
      <trkpt lat="43.8051" lon="7.08621">
        <ele>963.2</ele>
        <time>2021-08-22T08:13:45.000Z</time>
      </trkpt>
      <trkpt lat="43.80512" lon="7.08619">
        <ele>962.4</ele>
        <time>2021-08-22T08:13:50.000Z</time>
      </trkpt>
      <trkpt lat="43.80513" lon="7.08619">
        <ele>962.2</ele>
        <time>2021-08-22T08:13:51.000Z</time>
      </trkpt>
      <trkpt lat="43.80517" lon="7.08617">
        <ele>961.1</ele>
        <time>2021-08-22T08:13:57.000Z</time>
      </trkpt>
      <trkpt lat="43.8052" lon="7.08616">
        <ele>960.6</ele>
        <time>2021-08-22T08:14:00.000Z</time>
      </trkpt>
      <trkpt lat="43.80524" lon="7.08619">
        <ele>960.2</ele>
        <time>2021-08-22T08:14:06.000Z</time>
      </trkpt>
      <trkpt lat="43.80524" lon="7.08618">
        <ele>960</ele>
        <time>2021-08-22T08:14:07.000Z</time>
      </trkpt>
      <trkpt lat="43.80526" lon="7.08616">
        <ele>959.3</ele>
        <time>2021-08-22T08:14:12.000Z</time>
      </trkpt>
      <trkpt lat="43.80528" lon="7.08615">
        <ele>958.7</ele>
        <time>2021-08-22T08:14:18.000Z</time>
      </trkpt>
      <trkpt lat="43.80529" lon="7.08614">
        <ele>958.4</ele>
        <time>2021-08-22T08:14:21.000Z</time>
      </trkpt>
      <trkpt lat="43.80532" lon="7.08612">
        <ele>957.5</ele>
        <time>2021-08-22T08:14:26.000Z</time>
      </trkpt>
      <trkpt lat="43.80535" lon="7.08609">
        <ele>956.4</ele>
        <time>2021-08-22T08:14:32.000Z</time>
      </trkpt>
      <trkpt lat="43.80535" lon="7.08604">
        <ele>955.7</ele>
        <time>2021-08-22T08:14:37.000Z</time>
      </trkpt>
      <trkpt lat="43.80534" lon="7.08599">
        <ele>955.2</ele>
        <time>2021-08-22T08:14:42.000Z</time>
      </trkpt>
      <trkpt lat="43.80535" lon="7.08594">
        <ele>954.2</ele>
        <time>2021-08-22T08:14:47.000Z</time>
      </trkpt>
      <trkpt lat="43.80533" lon="7.08585">
        <ele>953.2</ele>
        <time>2021-08-22T08:14:55.000Z</time>
      </trkpt>
      <trkpt lat="43.80532" lon="7.08579">
        <ele>953.2</ele>
        <time>2021-08-22T08:15:02.000Z</time>
      </trkpt>
      <trkpt lat="43.80531" lon="7.08574">
        <ele>953.2</ele>
        <time>2021-08-22T08:15:07.000Z</time>
      </trkpt>
      <trkpt lat="43.80529" lon="7.08569">
        <ele>953.3</ele>
        <time>2021-08-22T08:15:12.000Z</time>
      </trkpt>
      <trkpt lat="43.80527" lon="7.08564">
        <ele>953.4</ele>
        <time>2021-08-22T08:15:16.000Z</time>
      </trkpt>
      <trkpt lat="43.80525" lon="7.08557">
        <ele>953.5</ele>
        <time>2021-08-22T08:15:22.000Z</time>
      </trkpt>
      <trkpt lat="43.80522" lon="7.08553">
        <ele>953.8</ele>
        <time>2021-08-22T08:15:27.000Z</time>
      </trkpt>
      <trkpt lat="43.8052" lon="7.08547">
        <ele>953.9</ele>
        <time>2021-08-22T08:15:33.000Z</time>
      </trkpt>
      <trkpt lat="43.80518" lon="7.08543">
        <ele>954</ele>
        <time>2021-08-22T08:15:38.000Z</time>
      </trkpt>
      <trkpt lat="43.80516" lon="7.08539">
        <ele>954.2</ele>
        <time>2021-08-22T08:15:44.000Z</time>
      </trkpt>
      <trkpt lat="43.80515" lon="7.08536">
        <ele>954.1</ele>
        <time>2021-08-22T08:15:50.000Z</time>
      </trkpt>
      <trkpt lat="43.80513" lon="7.08531">
        <ele>954.1</ele>
        <time>2021-08-22T08:15:55.000Z</time>
      </trkpt>
      <trkpt lat="43.80513" lon="7.08532">
        <ele>954.2</ele>
        <time>2021-08-22T08:15:59.000Z</time>
      </trkpt>
      <trkpt lat="43.80513" lon="7.08529">
        <ele>954.1</ele>
        <time>2021-08-22T08:16:03.000Z</time>
      </trkpt>
      <trkpt lat="43.80511" lon="7.08526">
        <ele>954.1</ele>
        <time>2021-08-22T08:16:08.000Z</time>
      </trkpt>
      <trkpt lat="43.80512" lon="7.08523">
        <ele>953.8</ele>
        <time>2021-08-22T08:16:15.000Z</time>
      </trkpt>
      <trkpt lat="43.80508" lon="7.0852">
        <ele>954.2</ele>
        <time>2021-08-22T08:16:22.000Z</time>
      </trkpt>
      <trkpt lat="43.80508" lon="7.08518">
        <ele>954</ele>
        <time>2021-08-22T08:16:27.000Z</time>
      </trkpt>
      <trkpt lat="43.80509" lon="7.08517">
        <ele>953.8</ele>
        <time>2021-08-22T08:16:32.000Z</time>
      </trkpt>
      <trkpt lat="43.80509" lon="7.08513">
        <ele>953.6</ele>
        <time>2021-08-22T08:16:38.000Z</time>
      </trkpt>
      <trkpt lat="43.80508" lon="7.0851">
        <ele>953.5</ele>
        <time>2021-08-22T08:16:43.000Z</time>
      </trkpt>
      <trkpt lat="43.80508" lon="7.08506">
        <ele>953.1</ele>
        <time>2021-08-22T08:16:50.000Z</time>
      </trkpt>
      <trkpt lat="43.80511" lon="7.08502">
        <ele>952.5</ele>
        <time>2021-08-22T08:16:56.000Z</time>
      </trkpt>
      <trkpt lat="43.80514" lon="7.08506">
        <ele>952.3</ele>
        <time>2021-08-22T08:17:03.000Z</time>
      </trkpt>
      <trkpt lat="43.80515" lon="7.08509">
        <ele>952.2</ele>
        <time>2021-08-22T08:17:09.000Z</time>
      </trkpt>
      <trkpt lat="43.80518" lon="7.08509">
        <ele>951.7</ele>
        <time>2021-08-22T08:17:13.000Z</time>
      </trkpt>
      <trkpt lat="43.80523" lon="7.08509">
        <ele>951.1</ele>
        <time>2021-08-22T08:17:19.000Z</time>
      </trkpt>
      <trkpt lat="43.80526" lon="7.08511">
        <ele>950.6</ele>
        <time>2021-08-22T08:17:25.000Z</time>
      </trkpt>
      <trkpt lat="43.80529" lon="7.08514">
        <ele>950.3</ele>
        <time>2021-08-22T08:17:31.000Z</time>
      </trkpt>
      <trkpt lat="43.80536" lon="7.08513">
        <ele>949.1</ele>
        <time>2021-08-22T08:17:39.000Z</time>
      </trkpt>
      <trkpt lat="43.80536" lon="7.08514">
        <ele>949.1</ele>
        <time>2021-08-22T08:17:42.000Z</time>
      </trkpt>
      <trkpt lat="43.80536" lon="7.08519">
        <ele>949.3</ele>
        <time>2021-08-22T08:17:46.000Z</time>
      </trkpt>
      <trkpt lat="43.80536" lon="7.08521">
        <ele>949.4</ele>
        <time>2021-08-22T08:17:48.000Z</time>
      </trkpt>
      <trkpt lat="43.80537" lon="7.08528">
        <ele>949.5</ele>
        <time>2021-08-22T08:17:55.000Z</time>
      </trkpt>
      <trkpt lat="43.80537" lon="7.08531">
        <ele>949.6</ele>
        <time>2021-08-22T08:17:59.000Z</time>
      </trkpt>
      <trkpt lat="43.80544" lon="7.08532">
        <ele>948.5</ele>
        <time>2021-08-22T08:20:10.000Z</time>
      </trkpt>
      <trkpt lat="43.80544" lon="7.08534">
        <ele>948.6</ele>
        <time>2021-08-22T08:20:11.000Z</time>
      </trkpt>
      <trkpt lat="43.80542" lon="7.08539">
        <ele>949</ele>
        <time>2021-08-22T08:20:14.000Z</time>
      </trkpt>
      <trkpt lat="43.80541" lon="7.0854">
        <ele>949.2</ele>
        <time>2021-08-22T08:20:18.000Z</time>
      </trkpt>
      <trkpt lat="43.80543" lon="7.08543">
        <ele>949</ele>
        <time>2021-08-22T08:20:21.000Z</time>
      </trkpt>
      <trkpt lat="43.80546" lon="7.08547">
        <ele>948.7</ele>
        <time>2021-08-22T08:20:26.000Z</time>
      </trkpt>
      <trkpt lat="43.80546" lon="7.08549">
        <ele>948.6</ele>
        <time>2021-08-22T08:20:31.000Z</time>
      </trkpt>
      <trkpt lat="43.80546" lon="7.0855">
        <ele>948.7</ele>
        <time>2021-08-22T08:20:32.000Z</time>
      </trkpt>
      <trkpt lat="43.80545" lon="7.0855">
        <ele>948.9</ele>
        <time>2021-08-22T08:20:34.000Z</time>
      </trkpt>
      <trkpt lat="43.80548" lon="7.08548">
        <ele>948.1</ele>
        <time>2021-08-22T08:20:43.000Z</time>
      </trkpt>
      <trkpt lat="43.80549" lon="7.08546">
        <ele>948</ele>
        <time>2021-08-22T08:20:46.000Z</time>
      </trkpt>
      <trkpt lat="43.80549" lon="7.08542">
        <ele>947.8</ele>
        <time>2021-08-22T08:20:54.000Z</time>
      </trkpt>
      <trkpt lat="43.80551" lon="7.08543">
        <ele>947.4</ele>
        <time>2021-08-22T08:20:59.000Z</time>
      </trkpt>
      <trkpt lat="43.80557" lon="7.08544">
        <ele>946.3</ele>
        <time>2021-08-22T08:21:06.000Z</time>
      </trkpt>
      <trkpt lat="43.8056" lon="7.08542">
        <ele>945.5</ele>
        <time>2021-08-22T08:21:13.000Z</time>
      </trkpt>
      <trkpt lat="43.80561" lon="7.08545">
        <ele>945.5</ele>
        <time>2021-08-22T08:21:18.000Z</time>
      </trkpt>
      <trkpt lat="43.80562" lon="7.08547">
        <ele>945.3</ele>
        <time>2021-08-22T08:21:21.000Z</time>
      </trkpt>
      <trkpt lat="43.80565" lon="7.08552">
        <ele>944.8</ele>
        <time>2021-08-22T08:21:29.000Z</time>
      </trkpt>
      <trkpt lat="43.8057" lon="7.08551">
        <ele>943.9</ele>
        <time>2021-08-22T08:21:36.000Z</time>
      </trkpt>
      <trkpt lat="43.80571" lon="7.08555">
        <ele>943.7</ele>
        <time>2021-08-22T08:21:39.000Z</time>
      </trkpt>
      <trkpt lat="43.80571" lon="7.08557">
        <ele>943.5</ele>
        <time>2021-08-22T08:21:41.000Z</time>
      </trkpt>
      <trkpt lat="43.80578" lon="7.08557">
        <ele>942.1</ele>
        <time>2021-08-22T08:21:48.000Z</time>
      </trkpt>
      <trkpt lat="43.8058" lon="7.08558">
        <ele>941.7</ele>
        <time>2021-08-22T08:21:52.000Z</time>
      </trkpt>
      <trkpt lat="43.80583" lon="7.08558">
        <ele>941.1</ele>
        <time>2021-08-22T08:21:56.000Z</time>
      </trkpt>
      <trkpt lat="43.80586" lon="7.0856">
        <ele>940.5</ele>
        <time>2021-08-22T08:22:01.000Z</time>
      </trkpt>
      <trkpt lat="43.80586" lon="7.08564">
        <ele>940.3</ele>
        <time>2021-08-22T08:22:09.000Z</time>
      </trkpt>
      <trkpt lat="43.80592" lon="7.08573">
        <ele>938.8</ele>
        <time>2021-08-22T08:24:48.000Z</time>
      </trkpt>
      <trkpt lat="43.80586" lon="7.08572">
        <ele>940.3</ele>
        <time>2021-08-22T08:24:51.000Z</time>
      </trkpt>
      <trkpt lat="43.8059" lon="7.08577">
        <ele>939.2</ele>
        <time>2021-08-22T08:24:57.000Z</time>
      </trkpt>
      <trkpt lat="43.80593" lon="7.08578">
        <ele>938.4</ele>
        <time>2021-08-22T08:25:01.000Z</time>
      </trkpt>
      <trkpt lat="43.80598" lon="7.08579">
        <ele>937.1</ele>
        <time>2021-08-22T08:25:08.000Z</time>
      </trkpt>
      <trkpt lat="43.80599" lon="7.08577">
        <ele>936.7</ele>
        <time>2021-08-22T08:25:14.000Z</time>
      </trkpt>
      <trkpt lat="43.80604" lon="7.08578">
        <ele>935.5</ele>
        <time>2021-08-22T08:25:18.000Z</time>
      </trkpt>
      <trkpt lat="43.80604" lon="7.08584">
        <ele>935.2</ele>
        <time>2021-08-22T08:25:23.000Z</time>
      </trkpt>
      <trkpt lat="43.80604" lon="7.08581">
        <ele>935.1</ele>
        <time>2021-08-22T08:25:36.000Z</time>
      </trkpt>
      <trkpt lat="43.80605" lon="7.08581">
        <ele>935</ele>
        <time>2021-08-22T08:25:41.000Z</time>
      </trkpt>
      <trkpt lat="43.80605" lon="7.08581">
        <ele>934.8</ele>
        <time>2021-08-22T08:25:44.000Z</time>
      </trkpt>
      <trkpt lat="43.80606" lon="7.08578">
        <ele>935</ele>
        <time>2021-08-22T08:25:49.000Z</time>
      </trkpt>
      <trkpt lat="43.80608" lon="7.08578">
        <ele>934.3</ele>
        <time>2021-08-22T08:25:54.000Z</time>
      </trkpt>
      <trkpt lat="43.8061" lon="7.0858">
        <ele>933.6</ele>
        <time>2021-08-22T08:26:05.000Z</time>
      </trkpt>
      <trkpt lat="43.8061" lon="7.08581">
        <ele>933.5</ele>
        <time>2021-08-22T08:26:06.000Z</time>
      </trkpt>
      <trkpt lat="43.80611" lon="7.08581">
        <ele>933.2</ele>
        <time>2021-08-22T08:26:11.000Z</time>
      </trkpt>
      <trkpt lat="43.80615" lon="7.08578">
        <ele>932.6</ele>
        <time>2021-08-22T08:26:33.000Z</time>
      </trkpt>
      <trkpt lat="43.80615" lon="7.08578">
        <ele>932.6</ele>
        <time>2021-08-22T08:26:37.000Z</time>
      </trkpt>
      <trkpt lat="43.80614" lon="7.08576">
        <ele>932.9</ele>
        <time>2021-08-22T08:26:42.000Z</time>
      </trkpt>
      <trkpt lat="43.80614" lon="7.08577">
        <ele>933</ele>
        <time>2021-08-22T08:28:53.000Z</time>
      </trkpt>
      <trkpt lat="43.80615" lon="7.08579">
        <ele>932.5</ele>
        <time>2021-08-22T08:28:57.000Z</time>
      </trkpt>
      <trkpt lat="43.80619" lon="7.0858">
        <ele>931.3</ele>
        <time>2021-08-22T08:29:36.000Z</time>
      </trkpt>
      <trkpt lat="43.80622" lon="7.08579">
        <ele>930.3</ele>
        <time>2021-08-22T08:29:40.000Z</time>
      </trkpt>
      <trkpt lat="43.80626" lon="7.0858">
        <ele>929.1</ele>
        <time>2021-08-22T08:29:45.000Z</time>
      </trkpt>
      <trkpt lat="43.80631" lon="7.08582">
        <ele>927.5</ele>
        <time>2021-08-22T08:29:49.000Z</time>
      </trkpt>
      <trkpt lat="43.80633" lon="7.08587">
        <ele>927</ele>
        <time>2021-08-22T08:29:55.000Z</time>
      </trkpt>
      <trkpt lat="43.80634" lon="7.08588">
        <ele>926.9</ele>
        <time>2021-08-22T08:29:56.000Z</time>
      </trkpt>
      <trkpt lat="43.80636" lon="7.08595">
        <ele>926.9</ele>
        <time>2021-08-22T08:30:03.000Z</time>
      </trkpt>
      <trkpt lat="43.80636" lon="7.08597">
        <ele>926.9</ele>
        <time>2021-08-22T08:30:05.000Z</time>
      </trkpt>
      <trkpt lat="43.8064" lon="7.08602">
        <ele>926.1</ele>
        <time>2021-08-22T08:30:14.000Z</time>
      </trkpt>
      <trkpt lat="43.80642" lon="7.08606">
        <ele>925.6</ele>
        <time>2021-08-22T08:30:20.000Z</time>
      </trkpt>
      <trkpt lat="43.80643" lon="7.08607">
        <ele>925.5</ele>
        <time>2021-08-22T08:30:21.000Z</time>
      </trkpt>
      <trkpt lat="43.80646" lon="7.08611">
        <ele>924.6</ele>
        <time>2021-08-22T08:30:28.000Z</time>
      </trkpt>
      <trkpt lat="43.80649" lon="7.08613">
        <ele>923.6</ele>
        <time>2021-08-22T08:30:32.000Z</time>
      </trkpt>
      <trkpt lat="43.80656" lon="7.08621">
        <ele>921.6</ele>
        <time>2021-08-22T08:31:43.000Z</time>
      </trkpt>
      <trkpt lat="43.80657" lon="7.08624">
        <ele>921.2</ele>
        <time>2021-08-22T08:31:49.000Z</time>
      </trkpt>
      <trkpt lat="43.80659" lon="7.08627">
        <ele>920.4</ele>
        <time>2021-08-22T08:31:55.000Z</time>
      </trkpt>
      <trkpt lat="43.80663" lon="7.08631">
        <ele>919.2</ele>
        <time>2021-08-22T08:32:00.000Z</time>
      </trkpt>
      <trkpt lat="43.80665" lon="7.08638">
        <ele>918.2</ele>
        <time>2021-08-22T08:32:06.000Z</time>
      </trkpt>
      <trkpt lat="43.80666" lon="7.0864">
        <ele>917.8</ele>
        <time>2021-08-22T08:32:12.000Z</time>
      </trkpt>
      <trkpt lat="43.80666" lon="7.08639">
        <ele>917.8</ele>
        <time>2021-08-22T08:32:23.000Z</time>
      </trkpt>
      <trkpt lat="43.80672" lon="7.08647">
        <ele>915.7</ele>
        <time>2021-08-22T08:34:04.000Z</time>
      </trkpt>
      <trkpt lat="43.80675" lon="7.08658">
        <ele>914.3</ele>
        <time>2021-08-22T08:34:11.000Z</time>
      </trkpt>
      <trkpt lat="43.80677" lon="7.08663">
        <ele>913.6</ele>
        <time>2021-08-22T08:34:14.000Z</time>
      </trkpt>
      <trkpt lat="43.80679" lon="7.08667">
        <ele>912.4</ele>
        <time>2021-08-22T08:34:18.000Z</time>
      </trkpt>
      <trkpt lat="43.80683" lon="7.0867">
        <ele>911.4</ele>
        <time>2021-08-22T08:34:21.000Z</time>
      </trkpt>
      <trkpt lat="43.80686" lon="7.08678">
        <ele>911.2</ele>
        <time>2021-08-22T08:34:27.000Z</time>
      </trkpt>
      <trkpt lat="43.80692" lon="7.08684">
        <ele>909.7</ele>
        <time>2021-08-22T08:34:39.000Z</time>
      </trkpt>
      <trkpt lat="43.80695" lon="7.08693">
        <ele>910</ele>
        <time>2021-08-22T08:34:46.000Z</time>
      </trkpt>
      <trkpt lat="43.80697" lon="7.08697">
        <ele>909.6</ele>
        <time>2021-08-22T08:34:50.000Z</time>
      </trkpt>
      <trkpt lat="43.80701" lon="7.08703">
        <ele>908.7</ele>
        <time>2021-08-22T08:34:56.000Z</time>
      </trkpt>
      <trkpt lat="43.80703" lon="7.08705">
        <ele>908.4</ele>
        <time>2021-08-22T08:34:58.000Z</time>
      </trkpt>
      <trkpt lat="43.80706" lon="7.08713">
        <ele>908.2</ele>
        <time>2021-08-22T08:35:03.000Z</time>
      </trkpt>
      <trkpt lat="43.80708" lon="7.08716">
        <ele>907.9</ele>
        <time>2021-08-22T08:35:06.000Z</time>
      </trkpt>
      <trkpt lat="43.80711" lon="7.08724">
        <ele>907.9</ele>
        <time>2021-08-22T08:35:13.000Z</time>
      </trkpt>
      <trkpt lat="43.80713" lon="7.08728">
        <ele>907.7</ele>
        <time>2021-08-22T08:35:16.000Z</time>
      </trkpt>
      <trkpt lat="43.80713" lon="7.08736">
        <ele>908.8</ele>
        <time>2021-08-22T08:35:22.000Z</time>
      </trkpt>
      <trkpt lat="43.80717" lon="7.08745">
        <ele>908.7</ele>
        <time>2021-08-22T08:35:30.000Z</time>
      </trkpt>
      <trkpt lat="43.80718" lon="7.08748">
        <ele>908.5</ele>
        <time>2021-08-22T08:35:33.000Z</time>
      </trkpt>
      <trkpt lat="43.80721" lon="7.08758">
        <ele>908.2</ele>
        <time>2021-08-22T08:35:40.000Z</time>
      </trkpt>
      <trkpt lat="43.80724" lon="7.08768">
        <ele>907.6</ele>
        <time>2021-08-22T08:35:47.000Z</time>
      </trkpt>
      <trkpt lat="43.80724" lon="7.08773">
        <ele>907.8</ele>
        <time>2021-08-22T08:35:50.000Z</time>
      </trkpt>
      <trkpt lat="43.80727" lon="7.08779">
        <ele>907.3</ele>
        <time>2021-08-22T08:35:55.000Z</time>
      </trkpt>
      <trkpt lat="43.80729" lon="7.08789">
        <ele>907.1</ele>
        <time>2021-08-22T08:36:03.000Z</time>
      </trkpt>
      <trkpt lat="43.80732" lon="7.08796">
        <ele>906.8</ele>
        <time>2021-08-22T08:36:09.000Z</time>
      </trkpt>
      <trkpt lat="43.80734" lon="7.08805">
        <ele>907</ele>
        <time>2021-08-22T08:36:17.000Z</time>
      </trkpt>
      <trkpt lat="43.80734" lon="7.08806">
        <ele>906.9</ele>
        <time>2021-08-22T08:36:18.000Z</time>
      </trkpt>
      <trkpt lat="43.80734" lon="7.08808">
        <ele>907</ele>
        <time>2021-08-22T08:36:22.000Z</time>
      </trkpt>
      <trkpt lat="43.80734" lon="7.08812">
        <ele>907.5</ele>
        <time>2021-08-22T08:36:25.000Z</time>
      </trkpt>
      <trkpt lat="43.80737" lon="7.0882">
        <ele>907.2</ele>
        <time>2021-08-22T08:36:31.000Z</time>
      </trkpt>
      <trkpt lat="43.80739" lon="7.08828">
        <ele>907.5</ele>
        <time>2021-08-22T08:36:37.000Z</time>
      </trkpt>
      <trkpt lat="43.80739" lon="7.08827">
        <ele>907.5</ele>
        <time>2021-08-22T08:36:43.000Z</time>
      </trkpt>
      <trkpt lat="43.80739" lon="7.08833">
        <ele>908.1</ele>
        <time>2021-08-22T08:36:48.000Z</time>
      </trkpt>
      <trkpt lat="43.8074" lon="7.08839">
        <ele>908</ele>
        <time>2021-08-22T08:36:51.000Z</time>
      </trkpt>
      <trkpt lat="43.8074" lon="7.08848">
        <ele>907.9</ele>
        <time>2021-08-22T08:36:57.000Z</time>
      </trkpt>
      <trkpt lat="43.80743" lon="7.08858">
        <ele>907.4</ele>
        <time>2021-08-22T08:37:03.000Z</time>
      </trkpt>
      <trkpt lat="43.80745" lon="7.08861">
        <ele>907</ele>
        <time>2021-08-22T08:37:06.000Z</time>
      </trkpt>
      <trkpt lat="43.80748" lon="7.08868">
        <ele>906.7</ele>
        <time>2021-08-22T08:37:11.000Z</time>
      </trkpt>
      <trkpt lat="43.80752" lon="7.08869">
        <ele>905.4</ele>
        <time>2021-08-22T08:37:15.000Z</time>
      </trkpt>
      <trkpt lat="43.80754" lon="7.08871">
        <ele>904.7</ele>
        <time>2021-08-22T08:37:18.000Z</time>
      </trkpt>
      <trkpt lat="43.80758" lon="7.08876">
        <ele>903.7</ele>
        <time>2021-08-22T08:37:22.000Z</time>
      </trkpt>
      <trkpt lat="43.80762" lon="7.08879">
        <ele>902.6</ele>
        <time>2021-08-22T08:37:28.000Z</time>
      </trkpt>
      <trkpt lat="43.80764" lon="7.08881">
        <ele>902.1</ele>
        <time>2021-08-22T08:37:33.000Z</time>
      </trkpt>
      <trkpt lat="43.8079" lon="7.08931">
        <ele>901.6</ele>
        <time>2021-08-22T08:38:23.000Z</time>
      </trkpt>
      <trkpt lat="43.80795" lon="7.0894">
        <ele>901.7</ele>
        <time>2021-08-22T08:38:30.000Z</time>
      </trkpt>
      <trkpt lat="43.80801" lon="7.08948">
        <ele>901.8</ele>
        <time>2021-08-22T08:38:37.000Z</time>
      </trkpt>
      <trkpt lat="43.80807" lon="7.08955">
        <ele>902.1</ele>
        <time>2021-08-22T08:38:43.000Z</time>
      </trkpt>
      <trkpt lat="43.80808" lon="7.08957">
        <ele>902.2</ele>
        <time>2021-08-22T08:38:44.000Z</time>
      </trkpt>
      <trkpt lat="43.80811" lon="7.08962">
        <ele>902.6</ele>
        <time>2021-08-22T08:38:48.000Z</time>
      </trkpt>
      <trkpt lat="43.80816" lon="7.08973">
        <ele>903.7</ele>
        <time>2021-08-22T08:38:55.000Z</time>
      </trkpt>
      <trkpt lat="43.80819" lon="7.08979">
        <ele>904.4</ele>
        <time>2021-08-22T08:38:59.000Z</time>
      </trkpt>
      <trkpt lat="43.80822" lon="7.08987">
        <ele>905.5</ele>
        <time>2021-08-22T08:39:04.000Z</time>
      </trkpt>
      <trkpt lat="43.80823" lon="7.08988">
        <ele>905.6</ele>
        <time>2021-08-22T08:39:05.000Z</time>
      </trkpt>
      <trkpt lat="43.80824" lon="7.08991">
        <ele>906</ele>
        <time>2021-08-22T08:39:07.000Z</time>
      </trkpt>
      <trkpt lat="43.80829" lon="7.08999">
        <ele>907.1</ele>
        <time>2021-08-22T08:39:13.000Z</time>
      </trkpt>
      <trkpt lat="43.80832" lon="7.09002">
        <ele>907.2</ele>
        <time>2021-08-22T08:39:16.000Z</time>
      </trkpt>
      <trkpt lat="43.80835" lon="7.0901">
        <ele>907.1</ele>
        <time>2021-08-22T08:39:21.000Z</time>
      </trkpt>
      <trkpt lat="43.80836" lon="7.09013">
        <ele>907</ele>
        <time>2021-08-22T08:39:23.000Z</time>
      </trkpt>
      <trkpt lat="43.80841" lon="7.09022">
        <ele>906.4</ele>
        <time>2021-08-22T08:39:30.000Z</time>
      </trkpt>
      <trkpt lat="43.80842" lon="7.09036">
        <ele>906.6</ele>
        <time>2021-08-22T08:39:38.000Z</time>
      </trkpt>
      <trkpt lat="43.80841" lon="7.09044">
        <ele>907.2</ele>
        <time>2021-08-22T08:39:43.000Z</time>
      </trkpt>
      <trkpt lat="43.80841" lon="7.09053">
        <ele>907.7</ele>
        <time>2021-08-22T08:39:49.000Z</time>
      </trkpt>
      <trkpt lat="43.80842" lon="7.09059">
        <ele>907.5</ele>
        <time>2021-08-22T08:39:53.000Z</time>
      </trkpt>
      <trkpt lat="43.80842" lon="7.09066">
        <ele>907.9</ele>
        <time>2021-08-22T08:39:59.000Z</time>
      </trkpt>
      <trkpt lat="43.80841" lon="7.09076">
        <ele>908.7</ele>
        <time>2021-08-22T08:40:05.000Z</time>
      </trkpt>
      <trkpt lat="43.8084" lon="7.09087">
        <ele>909.1</ele>
        <time>2021-08-22T08:40:11.000Z</time>
      </trkpt>
      <trkpt lat="43.80841" lon="7.09097">
        <ele>908.6</ele>
        <time>2021-08-22T08:40:17.000Z</time>
      </trkpt>
      <trkpt lat="43.80841" lon="7.09104">
        <ele>908.3</ele>
        <time>2021-08-22T08:40:21.000Z</time>
      </trkpt>
      <trkpt lat="43.8084" lon="7.09116">
        <ele>908</ele>
        <time>2021-08-22T08:40:28.000Z</time>
      </trkpt>
      <trkpt lat="43.80841" lon="7.09119">
        <ele>907.9</ele>
        <time>2021-08-22T08:40:35.000Z</time>
      </trkpt>
      <trkpt lat="43.80841" lon="7.0912">
        <ele>907.9</ele>
        <time>2021-08-22T08:40:37.000Z</time>
      </trkpt>
      <trkpt lat="43.80841" lon="7.09128">
        <ele>907.6</ele>
        <time>2021-08-22T08:40:42.000Z</time>
      </trkpt>
      <trkpt lat="43.80841" lon="7.0913">
        <ele>907.3</ele>
        <time>2021-08-22T08:40:45.000Z</time>
      </trkpt>
      <trkpt lat="43.80842" lon="7.09134">
        <ele>907</ele>
        <time>2021-08-22T08:40:48.000Z</time>
      </trkpt>
      <trkpt lat="43.80842" lon="7.09142">
        <ele>906.6</ele>
        <time>2021-08-22T08:40:52.000Z</time>
      </trkpt>
      <trkpt lat="43.80842" lon="7.09151">
        <ele>906.2</ele>
        <time>2021-08-22T08:40:58.000Z</time>
      </trkpt>
      <trkpt lat="43.80843" lon="7.09154">
        <ele>906</ele>
        <time>2021-08-22T08:41:01.000Z</time>
      </trkpt>
      <trkpt lat="43.80843" lon="7.09161">
        <ele>905.7</ele>
        <time>2021-08-22T08:41:05.000Z</time>
      </trkpt>
      <trkpt lat="43.80843" lon="7.09166">
        <ele>905.7</ele>
        <time>2021-08-22T08:41:08.000Z</time>
      </trkpt>
      <trkpt lat="43.80843" lon="7.09178">
        <ele>905.2</ele>
        <time>2021-08-22T08:41:14.000Z</time>
      </trkpt>
      <trkpt lat="43.80841" lon="7.09195">
        <ele>905.8</ele>
        <time>2021-08-22T08:41:21.000Z</time>
      </trkpt>
      <trkpt lat="43.80839" lon="7.09204">
        <ele>906</ele>
        <time>2021-08-22T08:41:26.000Z</time>
      </trkpt>
      <trkpt lat="43.8084" lon="7.09213">
        <ele>905.6</ele>
        <time>2021-08-22T08:41:32.000Z</time>
      </trkpt>
      <trkpt lat="43.80842" lon="7.09221">
        <ele>904.7</ele>
        <time>2021-08-22T08:41:38.000Z</time>
      </trkpt>
      <trkpt lat="43.80843" lon="7.09226">
        <ele>904.4</ele>
        <time>2021-08-22T08:41:41.000Z</time>
      </trkpt>
      <trkpt lat="43.80842" lon="7.09242">
        <ele>904.3</ele>
        <time>2021-08-22T08:41:49.000Z</time>
      </trkpt>
      <trkpt lat="43.8084" lon="7.09247">
        <ele>904.8</ele>
        <time>2021-08-22T08:41:52.000Z</time>
      </trkpt>
      <trkpt lat="43.80841" lon="7.09253">
        <ele>904.5</ele>
        <time>2021-08-22T08:41:55.000Z</time>
      </trkpt>
      <trkpt lat="43.80843" lon="7.0926">
        <ele>903.5</ele>
        <time>2021-08-22T08:42:00.000Z</time>
      </trkpt>
      <trkpt lat="43.80846" lon="7.09271">
        <ele>902</ele>
        <time>2021-08-22T08:42:06.000Z</time>
      </trkpt>
      <trkpt lat="43.80848" lon="7.09285">
        <ele>900.8</ele>
        <time>2021-08-22T08:42:14.000Z</time>
      </trkpt>
      <trkpt lat="43.80849" lon="7.09289">
        <ele>900.4</ele>
        <time>2021-08-22T08:42:17.000Z</time>
      </trkpt>
      <trkpt lat="43.80847" lon="7.09295">
        <ele>900.9</ele>
        <time>2021-08-22T08:42:21.000Z</time>
      </trkpt>
      <trkpt lat="43.80847" lon="7.09307">
        <ele>900.2</ele>
        <time>2021-08-22T08:42:29.000Z</time>
      </trkpt>
      <trkpt lat="43.80847" lon="7.09309">
        <ele>900.3</ele>
        <time>2021-08-22T08:42:31.000Z</time>
      </trkpt>
      <trkpt lat="43.80847" lon="7.09317">
        <ele>899.9</ele>
        <time>2021-08-22T08:42:37.000Z</time>
      </trkpt>
      <trkpt lat="43.80844" lon="7.09328">
        <ele>900.4</ele>
        <time>2021-08-22T08:42:43.000Z</time>
      </trkpt>
      <trkpt lat="43.80843" lon="7.09333">
        <ele>900.5</ele>
        <time>2021-08-22T08:42:46.000Z</time>
      </trkpt>
      <trkpt lat="43.80843" lon="7.09338">
        <ele>899.7</ele>
        <time>2021-08-22T08:42:50.000Z</time>
      </trkpt>
      <trkpt lat="43.8084" lon="7.0935">
        <ele>898.6</ele>
        <time>2021-08-22T08:42:57.000Z</time>
      </trkpt>
      <trkpt lat="43.80839" lon="7.09354">
        <ele>898.4</ele>
        <time>2021-08-22T08:43:00.000Z</time>
      </trkpt>
      <trkpt lat="43.80836" lon="7.09362">
        <ele>898</ele>
        <time>2021-08-22T08:43:06.000Z</time>
      </trkpt>
      <trkpt lat="43.80835" lon="7.09369">
        <ele>897.4</ele>
        <time>2021-08-22T08:43:10.000Z</time>
      </trkpt>
      <trkpt lat="43.80836" lon="7.09374">
        <ele>896.3</ele>
        <time>2021-08-22T08:43:13.000Z</time>
      </trkpt>
      <trkpt lat="43.80834" lon="7.0938">
        <ele>896</ele>
        <time>2021-08-22T08:43:17.000Z</time>
      </trkpt>
      <trkpt lat="43.80828" lon="7.09391">
        <ele>896.6</ele>
        <time>2021-08-22T08:43:24.000Z</time>
      </trkpt>
      <trkpt lat="43.80821" lon="7.09404">
        <ele>897.3</ele>
        <time>2021-08-22T08:43:33.000Z</time>
      </trkpt>
      <trkpt lat="43.80818" lon="7.09407">
        <ele>897.9</ele>
        <time>2021-08-22T08:43:36.000Z</time>
      </trkpt>
      <trkpt lat="43.80814" lon="7.09413">
        <ele>898.8</ele>
        <time>2021-08-22T08:43:42.000Z</time>
      </trkpt>
      <trkpt lat="43.80812" lon="7.09417">
        <ele>898.8</ele>
        <time>2021-08-22T08:43:46.000Z</time>
      </trkpt>
      <trkpt lat="43.80811" lon="7.09422">
        <ele>898.6</ele>
        <time>2021-08-22T08:43:49.000Z</time>
      </trkpt>
      <trkpt lat="43.8081" lon="7.09441">
        <ele>897.2</ele>
        <time>2021-08-22T08:43:57.000Z</time>
      </trkpt>
      <trkpt lat="43.80809" lon="7.09449">
        <ele>896.5</ele>
        <time>2021-08-22T08:44:02.000Z</time>
      </trkpt>
      <trkpt lat="43.80809" lon="7.09461">
        <ele>895.4</ele>
        <time>2021-08-22T08:44:08.000Z</time>
      </trkpt>
      <trkpt lat="43.80808" lon="7.0947">
        <ele>894.8</ele>
        <time>2021-08-22T08:44:13.000Z</time>
      </trkpt>
      <trkpt lat="43.80804" lon="7.09478">
        <ele>895.2</ele>
        <time>2021-08-22T08:44:17.000Z</time>
      </trkpt>
      <trkpt lat="43.80803" lon="7.09483">
        <ele>895.2</ele>
        <time>2021-08-22T08:44:20.000Z</time>
      </trkpt>
      <trkpt lat="43.80803" lon="7.09493">
        <ele>893.9</ele>
        <time>2021-08-22T08:44:26.000Z</time>
      </trkpt>
      <trkpt lat="43.80804" lon="7.09505">
        <ele>892.4</ele>
        <time>2021-08-22T08:44:34.000Z</time>
      </trkpt>
      <trkpt lat="43.80804" lon="7.09514">
        <ele>892</ele>
        <time>2021-08-22T08:44:39.000Z</time>
      </trkpt>
      <trkpt lat="43.80805" lon="7.09517">
        <ele>891.7</ele>
        <time>2021-08-22T08:44:41.000Z</time>
      </trkpt>
      <trkpt lat="43.80806" lon="7.09521">
        <ele>891.2</ele>
        <time>2021-08-22T08:44:44.000Z</time>
      </trkpt>
      <trkpt lat="43.80806" lon="7.0953">
        <ele>890.7</ele>
        <time>2021-08-22T08:44:49.000Z</time>
      </trkpt>
      <trkpt lat="43.80806" lon="7.09537">
        <ele>890.4</ele>
        <time>2021-08-22T08:44:54.000Z</time>
      </trkpt>
      <trkpt lat="43.80806" lon="7.09545">
        <ele>889.9</ele>
        <time>2021-08-22T08:44:58.000Z</time>
      </trkpt>
      <trkpt lat="43.80807" lon="7.09547">
        <ele>889.7</ele>
        <time>2021-08-22T08:44:59.000Z</time>
      </trkpt>
      <trkpt lat="43.80807" lon="7.09552">
        <ele>889.3</ele>
        <time>2021-08-22T08:45:02.000Z</time>
      </trkpt>
      <trkpt lat="43.80811" lon="7.09559">
        <ele>888.5</ele>
        <time>2021-08-22T08:45:06.000Z</time>
      </trkpt>
      <trkpt lat="43.80811" lon="7.09567">
        <ele>888.2</ele>
        <time>2021-08-22T08:45:12.000Z</time>
      </trkpt>
    </trkseg>
  </trk>
</gpx>